[[{"header":{"parameterUnit":"m.s-1","parameterCategory":1,"la1":30.6,"la2":28.766,"lo1":-90.7593,"lo2":-88.6598,"dy":0.0162,"dx":0.0183,"nx":116,"ny":114,"refTime":"2023-07-22T12:00:00:Z","depth":0,"parameterNumber":2,"parameterNumberName":"U-component_of_WINDS"},"data":[0.0,0.0,0.0,0.0,0.0,0.0,0.0,0.0,0.0,0.0,0.0,0.0,0.0,0.0,0.0,0.0,0.0,0.0,0.0,0.0,0.0,0.0,0.0,0.0,0.0,0.0,0.0,0.0,0.0,0.0,0.0,0.0,0.0,0.0,0.0,0.0,0.0,0.0,0.0,0.0,0.0,0.0,0.0,0.0,0.0,0.0,0.0,0.0,0.0,0.0,0.0,0.0,0.0,0.0,0.0,0.0,0.0,0.0,0.0,0.0,0.0,0.0,0.0,0.0,0.0,0.0,0.0,0.0,0.0,0.0,0.0,0.0,0.0,0.0,0.0,0.0,0.0,0.0,0.0,0.0,0.0,0.0,0.0,0.0,0.0,0.0,0.0,0.0,0.0,0.0,0.0,0.0,0.0,0.0,0.0,0.0,0.0,0.0,0.0,0.0,0.0,0.0,0.0,0.0,0.0,0.0,0.0,0.0,0.0,0.0,0.0,0.0,0.0,0.0,0.0,0.0,0.0,0.0,0.0,0.0,0.0,0.0,0.0,0.0,0.0,0.0,0.0,0.0,0.0,0.0,0.0,0.0,0.0,0.0,0.0,0.0,0.0,0.0,0.0,0.0,0.0,0.0,0.0,0.0,0.0,0.0,0.0,0.0,0.0,0.0,0.0,0.0,0.0,0.0,0.0,0.0,0.0,0.0,0.0,0.0,0.0,0.0,0.0,0.0,0.0,0.0,0.0,0.0,0.0,0.0,0.0,0.0,0.0,0.0,0.0,0.0,0.0,0.0,0.0,0.0,0.0,0.0,0.0,0.0,0.0,0.0,0.0,0.0,0.0,0.0,0.0,0.0,0.0,0.0,0.0,0.0,0.0,0.0,0.0,0.0,0.0,0.0,0.0,0.0,0.0,0.0,0.0,0.0,0.0,0.0,0.0,0.0,0.0,0.0,0.0,0.0,0.0,0.0,0.0,0.0,0.0,0.0,0.0,0.0,0.0,0.0,0.0,0.0,0.0,0.0,0.0,0.0,0.0,0.0,0.0,0.0,0.0,0.0,0.0,0.0,0.0,0.0,0.0,0.0,0.0,0.0,0.0,0.0,0.0,0.0,0.0,0.0,0.0,0.0,0.0,0.0,0.0,0.0,0.0,0.0,0.0,0.0,0.0,0.0,0.0,0.0,0.0,0.0,0.0,0.0,0.0,0.0,0.0,0.0,0.0,0.0,0.0,0.0,0.0,0.0,0.0,0.0,0.0,0.0,0.0,0.0,0.0,0.0,0.0,0.0,0.0,0.0,0.0,0.0,0.0,0.0,0.0,0.0,0.0,0.0,0.0,0.0,0.0,0.0,0.0,0.0,0.0,0.0,0.0,0.0,0.0,0.0,0.0,0.0,0.0,0.0,0.0,0.0,0.0,0.0,0.0,0.0,0.0,0.0,0.0,0.0,0.0,0.0,0.0,0.0,0.0,0.0,0.0,0.0,0.0,0.0,0.0,0.0,0.0,0.0,0.0,0.0,0.0,0.0,0.0,0.0,0.0,0.0,0.0,0.0,0.0,0.0,0.0,0.0,0.0,0.0,0.0,0.0,0.0,0.0,0.0,0.0,0.0,0.0,0.0,0.0,0.0,0.0,0.0,0.0,0.0,0.0,0.0,0.0,0.0,0.0,0.0,0.0,0.0,0.0,0.0,0.0,0.0,0.0,0.0,0.0,0.0,0.0,0.0,0.0,0.0,0.0,0.0,0.0,0.0,0.0,0.0,0.0,0.0,0.0,0.0,0.0,0.0,0.0,0.0,0.0,0.0,0.0,0.0,0.0,0.0,0.0,0.0,0.0,0.0,0.0,0.0,0.0,0.0,0.0,0.0,0.0,0.0,0.0,0.0,0.0,0.0,0.0,0.0,0.0,0.0,0.0,0.0,0.0,0.0,0.0,0.0,0.0,0.0,0.0,0.0,0.0,0.0,0.0,0.0,0.0,0.0,0.0,0.0,0.0,0.0,0.0,0.0,0.0,0.0,0.0,0.0,0.0,0.0,0.0,0.0,0.0,0.0,0.0,0.0,0.0,0.0,0.0,0.0,0.0,0.0,0.0,0.0,0.0,0.0,0.0,0.0,0.0,0.0,0.0,0.0,0.0,0.0,0.0,0.0,0.0,0.0,0.0,0.0,0.0,0.0,0.0,0.0,0.0,0.0,0.0,0.0,0.0,0.0,0.0,0.0,0.0,0.0,0.0,0.0,0.0,0.0,0.0,0.0,0.0,0.0,0.0,0.0,0.0,0.0,0.0,0.0,0.0,0.0,0.0,0.0,0.0,0.0,0.0,0.0,0.0,0.0,0.0,0.0,0.0,0.0,0.0,0.0,0.0,0.0,0.0,0.0,0.0,0.0,0.0,0.0,0.0,0.0,0.0,0.0,0.0,0.0,0.0,0.0,0.0,0.0,0.0,0.0,0.0,0.0,0.0,0.0,0.0,0.0,0.0,0.0,0.0,0.0,0.0,0.0,0.0,0.0,0.0,0.0,0.0,0.0,0.0,0.0,0.0,0.0,0.0,0.0,0.0,0.0,0.0,0.0,0.0,0.0,0.0,0.0,0.0,0.0,0.0,0.0,0.0,0.0,0.0,0.0,0.0,0.0,0.0,0.0,0.0,0.0,0.0,0.0,0.0,0.0,0.0,0.0,0.0,0.0,0.0,0.0,0.0,0.0,0.0,0.0,0.0,0.0,0.0,0.0,0.0,0.0,0.0,0.0,0.0,0.0,0.0,0.0,0.0,0.0,0.0,0.0,0.0,0.0,0.0,0.0,0.0,0.0,0.0,0.0,0.0,0.0,0.0,0.0,0.0,0.0,0.0,0.0,0.0,0.0,0.0,0.0,0.0,0.0,0.0,0.0,0.0,0.0,0.0,0.0,0.0,0.0,0.0,0.0,0.0,0.0,0.0,0.0,0.0,0.0,0.0,0.0,0.0,0.0,0.0,0.0,0.0,0.0,0.0,0.0,0.0,0.0,0.0,0.0,0.0,0.0,0.0,0.0,0.0,0.0,0.0,0.0,0.0,0.0,0.0,0.0,0.0,0.0,0.0,0.0,0.0,0.0,0.0,0.0,0.0,0.0,0.0,0.0,0.0,0.0,0.0,0.0,0.0,0.0,0.0,0.0,0.0,0.0,0.0,0.0,0.0,0.0,0.0,0.0,0.0,0.0,0.0,0.0,0.0,0.0,0.0,0.0,0.0,0.0,0.0,0.0,0.0,0.0,0.0,0.0,0.0,0.0,0.0,0.0,0.0,0.0,0.0,0.0,0.0,0.0,0.0,0.0,0.0,0.0,0.0,0.0,0.0,0.0,0.0,0.0,0.0,0.0,0.0,0.0,0.0,0.0,0.0,0.0,0.0,0.0,0.0,0.0,0.0,0.0,0.0,0.0,0.0,0.0,0.0,0.0,0.0,0.0,0.0,0.0,0.0,0.0,0.0,0.0,0.0,0.0,0.0,0.0,0.0,0.0,0.0,0.0,0.0,0.0,0.0,0.0,0.0,0.0,0.0,0.0,0.0,0.0,0.0,0.0,0.0,0.0,0.0,0.0,0.0,0.0,0.0,0.0,0.0,0.0,0.0,0.0,0.0,0.0,0.0,0.0,0.0,0.0,0.0,0.0,0.0,0.0,0.0,0.0,0.0,0.0,0.0,0.0,0.0,0.0,0.0,0.0,0.0,0.0,0.0,0.0,0.0,0.0,0.0,0.0,0.0,0.0,0.0,0.0,0.0,0.0,0.0,0.0,0.0,0.0,0.0,0.0,0.0,0.0,0.0,0.0,0.0,0.0,0.0,0.0,0.0,0.0,0.0,0.0,0.0,0.0,0.0,0.0,0.0,0.0,0.0,0.0,0.0,0.0,0.0,0.0,0.0,0.0,0.0,0.0,0.0,0.0,0.0,0.0,0.0,0.0,0.0,0.0,0.0,0.0,0.0,0.0,0.0,0.0,0.0,0.0,0.0,0.0,0.0,0.0,0.0,0.0,0.0,0.0,0.0,0.0,0.0,0.0,0.0,0.0,0.0,0.0,0.0,0.0,0.0,0.0,0.0,0.0,0.0,0.0,0.0,0.0,0.0,0.0,0.0,0.0,0.0,0.0,0.0,0.0,0.0,0.0,0.0,0.0,0.0,0.0,0.0,0.0,0.0,0.0,0.0,0.0,0.0,0.0,0.0,0.0,0.0,0.0,0.0,0.0,0.0,0.0,0.0,0.0,0.0,0.0,0.0,0.0,0.0,0.0,0.0,0.0,0.0,0.0,0.0,0.0,0.0,0.0,0.0,0.0,0.0,0.0,0.0,0.0,0.0,0.0,0.0,0.0,0.0,0.0,0.0,0.0,0.0,0.0,0.0,0.0,0.0,0.0,0.0,0.0,0.0,0.0,0.0,0.0,0.0,0.0,0.0,0.0,0.0,0.0,0.0,0.0,0.0,0.0,0.0,0.0,0.0,0.0,0.0,0.0,0.0,0.0,0.0,0.0,0.0,0.0,0.0,0.0,0.0,0.0,0.0,0.0,0.0,0.0,0.0,0.0,0.0,0.0,0.0,0.0,0.0,0.0,0.0,0.0,0.0,0.0,0.0,0.0,0.0,0.0,0.0,0.0,0.0,0.0,0.0,0.0,0.0,0.0,0.0,0.0,0.0,0.0,0.0,0.0,0.0,0.0,0.0,0.0,0.0,0.0,0.0,0.0,0.0,0.0,0.0,0.0,0.0,0.0,0.0,0.0,0.0,0.0,0.0,0.0,0.0,0.0,0.0,0.0,0.0,0.0,0.0,0.0,0.0,0.0,0.0,0.0,0.0,0.0,0.0,0.0,0.0,0.0,0.0,0.0,0.0,0.0,0.0,0.0,0.0,0.0,0.0,0.0,0.0,0.0,0.0,0.0,0.0,0.0,0.0,0.0,0.0,0.0,0.0,0.0,0.0,0.0,0.0,0.0,0.0,0.0,0.0,0.0,0.0,0.0,0.0,0.0,0.0,0.0,0.0,0.0,0.0,0.0,0.0,0.0,0.0,0.0,0.0,0.0,0.0,0.0,0.0,0.0,0.0,0.0,0.0,0.0,0.0,0.0,0.0,0.0,0.0,0.0,0.0,0.0,0.0,0.0,0.0,0.0,0.0,0.0,0.0,0.0,0.0,0.0,0.0,0.0,0.0,0.0,0.0,0.0,0.0,0.0,0.0,0.0,0.0,0.0,0.0,0.0,0.0,0.0,0.0,0.0,0.0,0.0,0.0,0.0,0.0,0.0,0.0,0.0,0.0,0.0,0.0,0.0,0.0,0.0,0.0,0.0,0.0,0.0,0.0,0.0,0.0,0.0,0.0,0.0,0.0,0.0,0.0,0.0,0.0,0.0,0.0,0.0,0.0,0.0,0.0,0.0,0.0,0.0,0.0,0.0,0.0,0.0,0.0,0.0,0.0,0.0,0.0,0.0,0.0,0.0,0.0,0.0,0.0,0.0,0.0,0.0,0.0,0.0,0.0,0.0,0.0,0.0,0.0,0.0,0.0,0.0,0.0,0.0,0.0,0.0,0.0,0.0,0.0,0.0,0.0,0.0,0.0,0.0,0.0,0.0,0.0,0.0,0.0,0.0,0.0,0.0,0.0,0.0,0.0,0.0,0.0,0.0,0.0,0.0,0.0,0.0,0.0,0.0,0.0,0.0,0.0,0.0,0.0,0.0,0.0,0.0,0.0,0.0,0.0,0.0,0.0,0.0,0.0,0.0,0.0,0.0,0.0,0.0,0.0,0.0,0.0,0.0,0.0,0.0,0.0,0.0,0.0,0.0,0.0,0.0,0.0,0.0,0.0,0.0,0.0,0.0,0.0,0.0,0.0,0.0,0.0,0.0,0.0,0.0,0.0,0.0,0.0,0.0,0.0,0.0,0.0,0.0,0.0,0.0,0.0,0.0,0.0,0.0,0.0,0.0,0.0,0.0,0.0,0.0,0.0,0.0,0.0,0.0,0.0,0.0,0.0,0.0,0.0,0.0,0.0,0.0,0.0,0.0,0.0,0.0,0.0,0.0,0.0,0.0,0.0,0.0,0.0,0.0,0.0,0.0,0.0,0.0,0.0,0.8131,0.0,0.0,0.0,0.0,0.0,0.0,0.0,0.0,0.0,0.0,0.0,0.0,0.0,0.0,0.0,0.0,0.0,0.0,0.0,0.0,0.0,0.0,0.0,0.0,0.0,0.0,0.0,0.0,0.0,0.0,0.0,0.0,0.0,0.0,0.0,0.0,0.0,0.0,0.0,0.0,0.0,0.0,0.0,0.0,0.0,0.0,0.0,0.0,0.0,0.0,0.0,0.0,0.0,0.0,0.0,0.0,0.0,0.0,0.0,0.0,0.0,0.0,0.0,0.0,0.0,0.0,0.0,0.0,0.0,0.0,0.0,0.0,0.0,0.0,0.0,0.0,0.0,0.0,0.0,0.0,0.0,0.0,0.0,0.0,0.0,0.0,0.0,0.0,0.0,0.0,0.0,0.0,0.0,0.0,0.0,0.0,0.0,0.0,0.0,0.0,0.0,0.0,0.0,0.0,0.0,0.0,0.0,0.0,0.0,0.0,0.0,0.0,0.0,0.0,0.0,0.0,0.7303,0.0,0.0,0.0,0.0,0.0,0.0,0.0,0.0,0.0,0.0,0.0,0.0,0.0,0.0,0.0,0.0,0.0,0.0,0.0,0.0,0.0,0.0,0.0,0.0,0.0,0.0,0.0,0.0,0.0,0.0,0.0,0.0,0.0,0.0,0.0,0.0,0.0,0.0,0.0,0.0,0.0,0.0,0.0,0.0,0.0,0.0,0.0,0.0,0.0,0.0,0.0,0.0,0.0,0.0,0.0,0.0,0.0,0.0,0.0,0.0,0.0,0.0,0.0,0.0,0.0,0.0,0.0,0.0,0.0,0.0,0.0,0.0,0.0,0.0,0.0,0.0,0.0,0.0,0.0,0.0,0.0,0.0,0.0,0.0,0.0,0.0,0.0,0.0,0.0,0.0,0.0,0.0,0.0,0.0,0.0,0.0,0.0,0.0,0.0,0.0,0.0,0.0,0.0,0.0,0.0,0.0,0.0,0.0,0.3959,0.3735,0.3793,0.6202,0.6258,0.4639,0.7031,0.6347,0.3626,0.0,0.0,0.0,0.0,0.0,0.0,0.0,0.0,0.0,0.0,0.0,0.0,0.0,0.0,0.0,0.0,0.0,0.0,0.0,0.0,0.0,0.0,0.0,0.0,0.0,0.0,0.0,0.0,0.0,0.0,0.0,0.0,0.0,0.0,0.0,0.0,0.0,0.0,0.0,2.4995,2.5967,2.6419,2.6362,2.5751,0.0,0.0,0.0,0.0,0.0,0.0,0.0,0.0,0.0,0.0,0.0,0.0,0.0,0.0,0.0,0.0,0.0,0.0,0.0,0.0,0.0,0.0,0.0,0.0,0.0,0.0,0.0,0.0,0.0,0.0,0.0,0.0,0.0,0.0,0.0,0.0,0.0,0.0,0.0,0.0,0.0,0.0,0.0,1.1474,1.398,0.0,0.0,0.0,0.0,0.0,0.0,0.0,0.0,0.0,0.0,0.0,0.0,0.0,0.5521,0.532,0.8013,0.7694,0.446,0.1842,0.0616,0.0616,0.1009,0.2359,0.4521,0.4908,0.0,0.3443,0.1426,0.0,0.0,0.0,0.0,0.0,0.0,0.0,0.0,0.0,0.0,0.0,0.0,0.0,0.0,0.0,0.0,0.0,0.0,0.0,0.0,0.0,0.0,0.0,0.0,0.0,0.0,0.0,0.0,0.0,0.0,0.0,0.0,0.0,0.0,0.0,0.0,2.5284,2.6179,2.614,2.7893,2.8771,2.882,2.8509,2.7801,2.6798,2.5956,0.0,0.0,0.0,0.0,0.0,0.0,0.0,0.0,0.0,0.0,0.0,0.0,0.0,0.0,0.0,0.0,0.0,0.0,0.0,0.0,0.0,0.0,0.0,0.0,0.0,0.0,0.0,0.0,0.0,0.0,0.0,0.0,0.0,0.0,0.0,0.0,0.0,0.0,0.0,1.2815,1.211,1.2966,1.2304,1.1782,0.0,0.0,0.0,0.0,0.0,0.0,0.0,0.0,0.0,0.8163,0.4097,0.2763,0.4467,0.4047,0.3251,0.1982,0.0643,-0.0,-0.0,-0.0,0.075,0.2001,0.2001,0.1816,0.1489,0.0451,-0.0,-0.0,0.0,0.0,0.0,0.0,-0.0,-0.0,0.0,0.0,0.0,0.0,0.0,0.0,0.0,0.0,0.0,0.0,0.0,0.0,0.0,0.0,0.0,2.3244,0.0,0.0,0.0,0.0,0.0,0.0,0.0,0.0,0.0,0.0,0.0,0.0,2.6439,2.7827,2.7746,3.0007,3.1086,3.1137,3.1216,2.9989,2.7803,2.6666,2.6125,0.0,0.0,0.0,0.0,0.0,0.0,0.0,0.0,0.0,0.0,0.0,0.0,0.0,0.0,0.0,0.0,0.0,0.0,0.0,0.0,0.0,0.0,0.0,0.0,0.0,0.0,0.0,0.0,0.0,0.0,0.0,0.0,0.0,0.0,0.0,0.0,0.0,0.0,1.168,1.1943,1.1311,1.0019,0.9332,0.0,0.0,0.0,0.0,0.0,0.0,0.6108,0.7073,0.6371,0.3362,0.1138,0.1078,0.3322,0.1144,-0.0,-0.0,-0.0,-0.0,-0.0,-0.0,-0.0,-0.0,-0.0,-0.0,-0.0,-0.0,-0.0,-0.0056,-0.0838,-0.1174,-0.1062,-0.028,-0.0,-0.0,0.0,0.0,0.0,0.0,0.0,0.0,0.0,0.0,0.0,0.0,0.0,0.0,0.0,0.0,2.3419,2.5034,2.4372,2.451,0.0,0.0,0.0,0.0,0.0,0.0,0.0,0.0,0.0,2.5279,2.7041,2.8751,3.0447,3.2106,3.2871,3.2883,3.2947,3.2055,3.0395,2.8756,2.7621,2.6856,0.0,0.0,0.0,0.0,0.0,0.0,0.0,0.0,0.0,0.0,0.0,0.0,0.0,0.0,0.0,0.0,0.0,0.0,0.0,0.0,0.0,0.0,0.0,0.0,0.0,0.0,0.0,0.0,0.0,0.0,0.0,0.0,0.0,0.0,0.0,0.0,0.0,0.0,0.0,0.7276,0.6764,0.0,0.0,0.0,0.0,0.4768,0.461,0.4592,0.458,0.4707,0.3353,0.0335,0.0074,0.0078,0.0232,0.0078,-0.0,-0.0,-0.0,-0.0,-0.0,-0.0,-0.0,-0.0,-0.0,-0.0,-0.0,-0.0,-0.0,-0.028,-0.3176,-0.4294,-0.3901,-0.1062,-0.0,-0.0,0.0,0.0,0.0,0.0,0.0,0.0,0.0,0.0,0.0,0.0,0.0,0.0,0.0,2.4513,2.5774,2.6929,2.6666,2.6427,2.6364,0.0,0.0,0.0,0.0,0.0,0.0,0.0,2.5965,2.797,2.9606,3.1344,3.3153,3.4794,3.5581,3.5599,3.6229,3.5582,3.3814,3.0417,2.853,2.7608,2.5069,2.4502,0.0,0.0,0.0,0.0,0.0,0.0,0.0,0.0,0.0,0.0,0.0,0.0,0.0,0.0,0.0,0.0,0.0,0.0,0.0,0.0,0.0,0.0,0.0,0.0,0.0,0.0,0.0,0.0,0.0,0.0,0.0,0.0,0.0,0.0,0.0,0.0,0.0,0.7658,0.6612,0.0,0.6531,0.5954,0.525,0.4492,0.2688,0.0276,-0.279,-0.2938,-0.2053,-0.0071,-0.0,-0.1332,-0.4064,-0.1332,-0.0,-0.0,-0.0,-0.0,-0.0,-0.0,-0.0,-0.0,-0.0,-0.0,-0.0,-0.0,-0.0,-0.0127,-0.12,-0.1578,-0.1453,-0.038,-0.0,-0.0,0.0,0.0,0.0,0.0,0.0,0.0,0.0,0.0,0.0,0.0,0.0,2.2946,2.412,2.5712,2.7168,2.8311,2.7856,2.7343,2.7006,0.0,0.0,0.0,0.0,0.0,0.0,2.6151,2.7473,2.9842,3.1791,3.3504,3.5003,3.669,3.7482,3.7494,3.8143,3.7819,3.6557,3.3099,3.0507,2.8514,2.5906,2.5361,2.5976,0.0,0.0,0.0,0.0,0.0,0.0,0.0,0.0,0.0,0.0,0.0,0.0,0.0,0.0,0.0,0.0,0.0,0.0,0.0,0.0,0.0,0.0,0.0,0.0,0.0,0.0,0.0,0.0,0.0,0.0,0.0,0.0,0.0,0.0,0.0,0.6971,0.7527,0.6325,0.5506,0.5766,0.4999,0.343,0.079,0.022,-0.1349,-0.4525,-0.6202,-0.5617,-0.2475,-0.085,-0.1353,-0.4179,-0.1396,-0.0,-0.0,-0.0,-0.0784,-0.2113,-0.2113,-0.2113,-0.2106,-0.2119,-0.2127,-0.2133,-0.1911,-0.179,-0.1678,-0.0471,-0.0,-0.0,-0.0,-0.0,-0.0,0.0,0.0,0.0,0.0,0.0,0.0,0.0,0.0,0.0,0.0,2.1029,2.2177,2.3949,2.5683,2.7396,2.9051,2.7679,2.7073,2.8003,2.563,0.0,0.0,0.0,0.0,2.6843,2.7738,2.9054,3.0863,3.3406,3.5081,3.5975,3.7653,3.8456,3.8479,3.855,3.8574,3.8476,3.6804,3.3665,2.9704,2.8708,2.7793,2.6913,0.0,0.0,0.0,0.0,0.0,0.0,0.0,0.0,0.0,0.0,0.0,0.0,0.0,0.0,0.0,0.0,0.0,0.0,0.0,0.0,0.0,0.0,0.0,0.0,0.0,0.0,0.0,0.0,0.0,0.0,0.0,0.0,0.0,0.7805,0.6818,0.6099,0.6435,0.5686,0.4986,0.4619,0.4459,0.1247,-0.6311,-0.2728,-0.0244,-0.0236,-0.4611,-0.708,-0.7115,-0.2606,-0.0247,-0.018,-0.0179,-0.0172,-0.0235,-0.0235,-0.2347,-0.6338,-0.6338,-0.6338,-0.6338,-0.6338,-0.6338,-0.629,-0.57,-0.5456,-0.5052,-0.1553,-0.0203,-0.0137,-0.0151,-0.0147,-0.0135,0.0,0.0,0.0,0.0,0.0,0.0,0.0,0.0,0.0,0.0,2.0953,2.2642,2.4679,2.637,2.7891,2.9237,2.7688,2.6784,2.7119,0.0,0.0,0.0,0.0,0.0,3.0477,3.0211,3.1522,3.4547,3.5214,3.5994,3.6875,3.8554,3.9687,4.0293,4.0361,4.0333,4.0173,3.9071,3.6807,3.3612,2.9822,2.816,2.7695,0.0,0.0,0.0,0.0,0.0,0.0,0.0,0.0,0.0,0.0,0.0,0.0,0.0,0.0,0.0,0.0,0.0,0.0,0.0,0.0,0.0,0.0,0.0,0.0,0.0,0.0,0.0,0.0,0.0,0.0,0.0,0.0,0.6446,0.6575,0.5886,0.5463,0.5884,0.5529,0.5448,0.5744,0.3071,0.0348,-0.1757,-0.4372,-0.5576,-0.5191,-0.6601,-0.7354,-0.7107,-0.5866,-0.5142,-0.5174,-0.4785,-0.4574,-0.4535,-0.4535,-0.516,-0.6338,-0.6338,-0.6338,-0.6338,-0.6338,-0.6338,-0.6247,-0.6156,-0.6088,-0.5939,-0.4958,-0.4308,-0.3899,-0.3949,-0.3917,-0.3551,0.0,0.0,0.0,0.0,0.0,0.0,0.0,0.0,0.0,0.0,2.0819,2.259,2.4305,2.6053,2.7361,2.8037,2.724,2.6564,2.6311,0.0,0.0,0.0,0.0,2.9885,3.2989,3.2964,3.4255,3.6964,3.7356,3.7764,3.8232,3.9927,4.0972,4.1466,4.1772,4.1877,4.1762,4.0898,3.9452,3.7413,3.3837,3.1554,2.9965,2.7152,2.6622,2.7256,2.6346,2.6051,2.5987,2.5541,0.0,0.0,0.0,0.0,0.0,0.0,0.0,0.0,0.0,0.0,0.0,0.0,0.0,0.0,0.0,0.0,0.0,0.0,0.0,0.0,0.0,0.0,0.0,0.0,0.4976,0.4671,0.4433,0.4882,0.537,0.5922,0.5814,0.5232,0.3794,0.1474,-0.0,-0.0,-0.4942,-0.7784,-0.7369,-0.756,-0.7655,-0.7522,-0.7272,-0.7139,-0.7139,-0.6556,-0.6338,-0.6338,-0.6338,-0.6338,-0.6338,-0.6338,-0.6338,0.0,-0.6338,-0.6338,-0.6338,-0.6338,-0.6338,0.0,0.0,0.0,0.0,0.0,-0.5648,-0.5093,0.0,0.0,0.0,0.0,0.0,0.0,0.0,0.0,0.0,0.0,0.0,2.1953,2.2999,2.4848,2.6048,2.6115,2.6329,2.622,0.0,0.0,0.0,2.8585,3.0234,3.2318,3.4866,3.582,3.6999,3.8424,3.9505,3.992,3.9738,4.1323,4.2102,4.2218,4.2673,4.2916,4.2955,4.2188,4.137,4.0456,3.8844,3.6176,3.2858,3.0147,2.9487,2.975,2.7883,2.6783,2.6204,2.6165,0.0,0.0,0.0,0.0,0.0,0.0,0.0,0.0,0.0,0.0,0.0,0.0,0.0,0.0,0.0,0.0,0.0,0.0,0.0,0.0,0.0,0.0,0.0,0.0,0.318,0.1906,0.1146,0.2676,0.4472,0.6097,0.5344,0.3377,0.0095,-0.0389,-0.0486,-0.0471,-0.5121,-0.7885,-0.7668,0.0,0.0,0.0,0.0,-0.7139,-0.7139,-0.6556,-0.6295,-0.6359,-0.6359,-0.6359,-0.6359,-0.6359,-0.6359,-0.6359,-0.6359,-0.6359,-0.6352,-0.6288,-0.6298,-0.6352,-0.6288,-0.6338,-0.6338,-0.6338,-0.5995,-0.5531,0.0,0.0,0.0,0.0,0.0,0.0,0.0,0.0,0.0,1.6949,1.8471,1.9823,2.0739,2.2483,2.3975,2.4992,2.4697,2.4794,0.0,0.0,2.8298,3.1226,3.2893,3.497,3.752,3.8338,3.8869,3.919,4.0673,4.1075,4.0428,4.139,4.2209,4.28,4.2284,4.2197,4.245,4.2278,4.1302,3.9844,3.9161,3.6957,3.3878,3.234,3.0998,2.9795,2.881,2.8356,2.8178,2.7741,2.7023,2.6133,2.497,0.0,0.0,0.0,0.0,0.0,0.0,0.0,0.0,0.0,0.0,0.0,0.0,0.0,0.0,0.0,0.0,0.0,0.0,0.0,0.0,0.4897,0.3235,0.0249,-0.5292,-0.5681,-0.2481,0.5349,-0.0568,-0.4181,-0.1562,-0.2476,-0.3192,-0.3179,-0.6218,-0.7955,-0.7888,-0.8018,0.0,-0.8038,-0.7455,-0.7139,-0.7139,-0.6556,-0.6502,-0.697,0.0,0.0,-0.697,-0.697,-0.697,-0.697,-0.697,-0.697,-0.6932,-0.6458,-0.6539,-0.6922,-0.6447,-0.6338,-0.6338,-0.6338,-0.6263,-0.6163,0.0,0.0,0.0,0.0,0.0,0.0,0.0,0.0,0.0,0.0,1.7117,1.8315,1.933,2.1329,2.2665,2.2884,2.313,0.0,0.0,2.7134,2.9152,3.2503,3.4475,3.6663,3.9158,3.9788,4.0142,4.0242,4.1108,4.1161,4.0477,4.1254,4.198,4.2546,4.2466,4.2397,4.2427,4.2886,4.2126,4.0596,4.0464,3.8758,3.6071,3.3945,3.2247,3.0798,2.9254,2.8322,2.777,2.7174,2.6343,2.5447,2.4843,2.3522,2.197,0.0,0.0,0.0,0.0,0.0,0.0,0.0,0.0,0.0,0.0,0.0,0.0,0.0,0.0,0.7177,0.0,0.0,0.4822,-0.0828,-0.242,-0.3602,-0.569,-0.7202,-0.5751,0.038,-0.3119,-0.5674,-0.4876,-0.4602,-0.4826,-0.5947,-0.7263,-0.7969,-0.7955,-0.8045,-0.7994,-0.7892,-0.7597,-0.7343,-0.7143,-0.6848,-0.6848,-0.7139,-0.7139,-0.7139,-0.7139,-0.7139,-0.7139,-0.7139,-0.7139,-0.7139,-0.7095,-0.6505,-0.6434,-0.6671,-0.6376,-0.6338,-0.6338,-0.6338,-0.6338,-0.6338,0.0,0.0,0.0,0.0,0.0,0.0,0.0,0.0,0.0,0.0,0.0,1.6923,1.7757,1.9979,2.1342,0.0,0.0,0.0,0.0,2.783,2.9877,3.3533,3.5521,3.7644,4.007,4.03,4.0533,4.0858,4.1111,4.0948,4.0435,4.09,4.1383,4.186,4.2199,4.2229,4.2114,4.3063,4.2696,4.1452,4.136,4.0013,3.7698,3.4806,3.299,3.1725,2.9306,2.7568,2.6371,2.5995,2.4971,2.3951,2.42,2.3128,2.1584,2.0563,1.9286,0.0,0.0,0.0,0.0,0.0,0.0,0.0,0.0,0.0,0.8567,0.7721,0.6561,0.6211,0.768,0.4725,-0.0169,-0.6882,-0.8027,-0.7276,-0.5105,-0.6594,-0.7217,-0.4997,-0.4769,-0.5532,-0.7372,-0.6242,-0.6034,-0.7563,-0.7865,-0.7959,-0.8041,-0.8038,-0.7967,-0.7804,-0.7743,-0.7584,-0.7319,-0.7197,-0.717,-0.7231,-0.7288,-0.7268,-0.7183,-0.7153,-0.7139,-0.7139,-0.7139,-0.7139,-0.7102,-0.6627,-0.643,-0.643,-0.643,-0.643,-0.6417,-0.6302,-0.6338,-0.6338,0.0,0.0,0.0,0.0,0.0,0.0,0.0,0.0,0.0,0.0,0.0,0.0,0.0,0.0,0.0,0.0,0.0,0.0,2.7589,2.7985,3.0248,3.5212,3.6167,3.7726,4.0144,3.9378,3.9283,3.9942,4.0706,4.0939,4.0816,4.0141,4.0208,4.0926,4.0249,4.0175,4.061,4.1469,4.1651,4.1252,4.0435,3.8846,3.6701,3.4196,3.2659,3.1496,2.8861,2.6525,2.4844,2.533,2.4279,2.2943,2.3893,2.2586,2.0542,1.9875,0.0,1.5608,1.4896,1.345,1.1737,1.0077,0.9576,0.9271,0.0,0.0,0.7279,0.698,0.4862,0.3544,0.4763,-0.1379,-0.6892,-0.7872,-0.7962,-0.7906,-0.7624,-0.7859,-0.7809,-0.744,-0.7464,-0.7156,-0.6245,-0.7042,-0.7338,-0.6639,-0.7441,-0.8041,-0.8038,-0.8038,-0.8028,-0.8007,-0.7753,-0.7719,-0.7936,-0.7407,-0.7278,-0.7553,-0.7814,-0.7729,-0.7343,-0.7204,-0.7139,-0.7139,-0.7139,-0.7139,-0.7136,-0.7068,-0.7041,-0.7041,-0.7041,-0.7041,-0.698,-0.6454,-0.6338,-0.6338,0.0,0.0,0.0,0.0,0.0,0.0,0.0,0.0,0.0,0.0,0.0,0.0,0.0,0.0,0.0,0.0,0.0,0.0,2.6117,2.6469,2.7867,3.0857,3.2083,3.2214,3.1146,3.1498,3.2013,3.2572,3.3726,3.487,3.6017,3.5623,3.5399,3.5359,3.5689,3.5795,3.591,3.8017,3.8638,3.8139,3.7769,3.6754,3.5,3.113,2.8755,2.7188,2.5564,2.3955,0.0,0.0,2.1744,2.125,2.2597,2.1439,1.946,1.8595,1.6816,0.0,1.3057,1.1489,1.0096,0.0,0.8663,0.8354,0.7718,0.7413,0.7152,0.6819,0.3445,-0.0089,-0.2383,-0.4394,-0.6214,0.0,-0.796,-0.8007,-0.8048,-0.7977,-0.7862,-0.7706,-0.8317,-0.8293,-0.7113,-0.7514,-0.7746,-0.7332,-0.7739,-0.8038,-0.8038,-0.8038,-0.7997,-0.7909,-0.776,-0.7682,-0.7689,-0.7326,-0.7207,-0.7339,-0.7811,-0.794,-0.7746,-0.7329,-0.7413,-0.7847,-0.7307,-0.7408,-0.794,-0.7319,-0.7139,-0.7139,-0.7139,-0.7139,-0.7112,-0.7462,-0.7617,-0.756,0.0,0.0,0.0,0.0,0.0,0.0,0.0,0.0,0.0,0.0,0.0,0.0,0.0,0.0,0.0,0.0,0.0,0.0,0.0,2.4803,2.5147,2.4603,2.4225,2.2934,2.0593,2.1337,2.2839,2.5179,2.5975,2.7782,3.0482,2.9832,2.9406,2.9173,2.9697,3.0104,3.0546,3.2981,3.3999,3.4005,3.3793,3.3023,3.1592,2.7097,2.4046,2.2036,2.1656,2.0575,0.0,0.0,1.8388,1.8363,1.9754,1.9047,1.7542,1.6704,1.511,1.3181,1.1177,0.0,0.0,0.8227,0.7966,0.7746,0.7269,0.7226,0.6806,0.5091,0.1945,-0.2076,-0.6955,-0.6282,-0.5701,-0.7588,-0.7942,-0.7959,-0.8041,-0.8063,-0.809,-0.8074,-0.8942,-0.9304,-0.8698,-0.8387,-0.829,-0.8354,-0.8463,-0.8481,-0.8528,-0.8237,-0.7987,-0.7879,-0.7841,-0.7753,-0.7607,-0.7461,-0.739,-0.7394,-0.7831,-0.8038,-0.8021,-0.7595,-0.7887,-0.8653,-0.8037,-0.811,-0.8568,-0.7852,-0.7496,-0.7496,-0.7496,-0.7496,-0.7584,-0.83,-0.8568,-0.8491,0.0,0.0,0.0,0.0,0.0,0.0,0.0,0.0,0.0,0.0,0.0,0.0,0.0,0.0,0.0,0.0,0.0,0.0,0.0,2.3316,2.2677,1.7164,1.2015,0.9572,1.0245,0.957,1.2629,1.9524,1.8715,2.082,2.547,2.3097,2.2517,2.3536,2.2402,2.3101,2.5113,2.6009,2.7493,2.9146,2.8211,2.7194,2.5775,2.2255,1.9168,1.6928,1.762,0.0,0.0,0.0,1.408,1.3832,1.505,1.4949,0.0,1.4154,1.2361,1.025,0.0,0.0,0.8417,0.7394,0.7258,0.7322,0.6886,0.691,0.5519,0.0775,0.0097,-0.1266,-0.658,-0.7563,-0.7647,-0.7654,-0.7858,-0.8038,-0.8038,-0.8641,-0.908,-0.9254,-0.9666,-1.0152,0.0,-0.9793,-0.9337,-0.9431,-0.9631,-0.9803,-0.9891,-0.8726,-0.8038,-0.8031,-0.8031,-0.8028,-0.8021,-0.8014,-0.8014,-0.8014,-0.8031,-0.8038,-0.8028,-0.8288,-0.8794,-0.9608,-0.9501,-0.9206,-0.8568,-0.8564,-0.8568,-0.8568,-0.8568,-0.8568,-0.8568,-0.8568,-0.8568,-0.8564,0.0,0.0,0.0,0.0,0.0,0.0,0.0,0.0,0.0,0.0,0.0,0.0,0.0,0.0,0.0,0.0,0.0,0.0,0.0,1.1952,1.0122,0.6543,0.4744,0.2319,-0.0882,0.0134,0.2065,0.4792,0.6576,0.9087,1.2186,1.1514,1.1339,1.1495,1.2091,1.4395,1.7873,1.8694,2.0232,2.2088,2.1625,2.1215,2.0495,1.7035,1.4827,1.3389,0.0,0.0,0.0,0.0,1.2167,1.1771,1.2551,0.0,1.1696,1.0455,0.9238,0.8325,0.8413,0.0,0.7755,0.7709,0.7319,0.6936,0.6873,0.4315,0.1734,0.067,-0.2271,-0.5037,-0.665,-0.7141,-0.759,-0.8609,-0.9049,-0.9563,-1.0467,-1.0738,-1.0739,-1.0548,-1.1294,0.0,0.0,0.0,0.0,-1.0811,-1.0844,-1.1034,-1.1253,-1.0877,-1.0583,-1.0583,-0.9993,-0.9213,-0.8038,-0.8038,-0.8038,-0.8038,-0.8733,-0.9031,-0.9027,-0.9112,-0.9217,-0.9221,-0.9069,-0.9341,-0.9864,-0.8725,-0.8344,-0.8568,-0.8568,-0.8568,-0.8568,-0.8568,-0.8568,-0.8532,0.0,0.0,0.0,0.0,0.0,0.0,0.0,0.0,0.0,0.0,0.0,0.0,0.0,0.0,0.0,0.0,0.0,0.0,0.0,0.0,-0.0,-0.3102,-0.5232,-0.7804,-1.0966,-0.8969,-0.7601,-0.7173,-0.3107,-0.0242,0.1455,0.2314,0.2804,0.2935,0.3734,0.627,0.9884,1.0668,1.2273,1.4241,1.3999,1.3855,1.3437,1.0657,0.9541,0.0,0.0,0.0,0.0,0.9717,0.0,0.9321,0.9678,0.9754,0.9425,0.7995,0.7451,0.7433,0.7863,0.7855,0.7667,0.7694,0.6031,0.4328,0.4405,0.1949,-0.0574,-0.1584,-0.4542,-0.6883,-0.6909,-0.7094,-0.7646,-0.9165,-0.9562,-1.0163,-1.1462,-1.1885,-1.1967,-1.1919,-1.2756,-1.3231,0.0,0.0,0.0,-1.1886,-1.217,-1.2336,-1.2395,-1.2576,-1.2624,-1.2624,-1.1258,-1.0186,-0.941,-0.8432,-0.8237,-0.8535,-0.9229,-0.9628,-0.9628,-0.9628,-0.9529,-0.932,-0.9837,-1.0324,-1.0631,-0.9719,-0.9528,-0.9727,-0.897,-0.869,-0.8678,-0.8597,-0.8617,-0.8641,0.0,0.0,0.0,0.0,0.0,0.0,0.0,0.0,0.0,0.0,0.0,0.0,0.0,0.0,0.0,0.0,0.0,0.0,0.0,0.0,0.0,-1.119,-1.699,-1.9874,-1.933,-1.7124,-1.5785,-1.5343,-0.978,-0.6807,-0.6282,-0.4533,-0.3198,-0.2246,-0.2543,-0.1124,0.1429,0.2326,0.3963,0.5848,0.5532,0.5343,0.505,0.3463,0.0,0.0,0.0,0.0,0.0,0.0,0.0,0.0,0.0,0.6921,0.7353,0.6448,0.6573,0.7116,0.7489,0.7727,0.7735,0.692,0.3319,-0.01,-0.03,-0.0291,-0.149,-0.5836,-0.6547,-0.6576,0.0,0.0,-0.7884,-0.938,-0.9732,-1.0201,-1.1222,-1.213,-1.2968,0.0,0.0,0.0,0.0,0.0,0.0,-1.2833,0.0,-1.3701,-1.3508,-1.3838,-1.3974,-1.3974,-1.1935,-1.1258,-1.2042,-0.9604,-0.8928,-0.992,-0.992,-0.992,-0.9821,-0.9723,-0.9727,-0.9821,-1.175,-1.19,-1.1015,-1.1673,-1.1914,-1.1731,-0.9766,-0.8997,-0.8968,-0.8662,-0.8723,-0.8885,0.0,0.0,0.0,0.0,0.0,0.0,0.0,0.0,0.0,0.0,0.0,0.0,0.0,0.0,0.0,0.0,0.0,0.0,0.0,0.0,0.0,0.0,0.0,0.0,0.0,0.0,0.0,0.0,0.0,-1.0979,-1.158,-1.0834,-0.9775,-0.8507,-0.8343,-0.7354,-0.5627,-0.3572,-0.1978,-0.0699,0.0,0.0701,0.1315,0.0,0.0,0.0,0.0,0.0,0.0,0.0,0.0,0.0,0.0,0.3312,0.2406,0.1175,0.0893,0.1047,0.1276,0.1717,0.2001,0.1862,0.0893,-0.0893,-0.4461,-0.5144,-0.5267,-0.6074,-0.656,-0.6927,0.0,0.0,0.0,-1.0971,-1.1679,0.0,-1.4709,-1.4999,0.0,-1.5214,0.0,-1.5037,-1.497,-1.509,0.0,0.0,-1.4721,-1.5013,-1.522,-1.5298,-1.5343,-1.5343,-1.4758,-1.4561,-1.4758,-1.4172,-1.398,-1.4184,-1.4184,-1.3698,-1.2732,-1.1668,-1.1375,-1.1556,-1.0633,-1.1143,-1.2732,-1.2314,-1.2258,-1.2299,-1.091,-1.0353,-1.0157,-0.9152,-0.8881,-0.9051,0.0,0.0,0.0,0.0,0.0,0.0,0.0,0.0,0.0,0.0,0.0,0.0,0.0,0.0,0.0,0.0,0.0,0.0,0.0,0.0,0.0,0.0,0.0,0.0,0.0,0.0,0.0,0.0,0.0,0.0,0.0,-1.2439,-1.1694,-1.0338,-0.9858,-0.8871,-0.7542,0.0,0.0,0.0,0.0,0.0,0.0,0.0,0.0,0.0,0.0,0.0,0.0,0.0,0.0,0.0823,0.0325,0.0069,-0.0369,-0.1935,0.0,-0.4181,-0.4025,-0.3818,-0.3652,-0.3497,-0.3362,-0.3879,-0.6532,-0.7041,-0.6876,-0.6409,-0.6769,0.0,0.0,0.0,0.0,0.0,0.0,0.0,-1.5226,-1.5585,-1.5685,0.0,-1.5685,0.0,-1.5357,-1.5491,-1.5518,0.0,-1.5491,-1.5605,-1.5638,-1.5758,-1.5832,-1.5832,-1.5832,-1.5832,-1.5832,-1.5832,-1.5832,-1.5825,-1.5153,-1.4184,-1.2829,-1.2058,-1.176,-1.1848,0.0,-1.2178,-1.3548,-1.3117,-1.2897,-1.2872,-1.1595,-1.1261,-1.1237,-1.0386,-0.9989,-0.9862,0.0,0.0,0.0,0.0,0.0,0.0,0.0,0.0,0.0,0.0,0.0,0.0,0.0,0.0,0.0,0.0,0.0,0.0,0.0,0.0,0.0,0.0,0.0,0.0,0.0,0.0,0.0,0.0,0.0,0.0,0.0,0.0,0.0,0.0,0.0,0.0,0.0,0.0,0.0,0.0,0.0,0.0,0.0,0.0,0.0,0.0,0.0,0.0,0.0,0.0,-0.5667,-0.1899,-0.3311,-0.2971,-0.2339,-0.4042,-0.616,-0.8037,-0.8014,-0.8007,-0.7989,-0.8009,-0.7748,-0.7346,-0.7252,-0.7202,-0.7154,-0.6875,0.0,-0.769,-0.845,-0.8652,-0.9328,-1.1613,0.0,-1.2859,-1.4469,-1.507,-1.5478,-1.5845,-1.5852,-1.5832,-1.5832,-1.5832,-1.5832,-1.5832,-1.5832,-1.5718,-1.5471,-1.5691,-1.5832,-1.5832,-1.5832,-1.5832,-1.5832,-1.5832,-1.5832,-1.5825,-1.4669,-1.3409,-1.2247,-1.2155,-1.1955,-1.1853,0.0,0.0,-1.3963,-1.387,-1.3713,-1.3459,-1.2367,-1.2062,-1.2221,-1.1844,-1.141,-1.0882,0.0,0.0,0.0,0.0,0.0,0.0,0.0,0.0,0.0,0.0,0.0,0.0,0.0,0.0,0.0,0.0,0.0,0.0,0.0,0.0,0.0,0.0,0.0,0.0,0.0,0.0,0.0,0.0,0.0,0.0,0.0,0.0,0.0,0.0,0.0,0.0,0.0,0.0,0.0,0.0,0.0,0.0,0.0,0.0,0.0,0.0,0.0,0.0,0.0,0.0,-0.6717,-0.5437,-0.6033,-0.6213,-0.6421,-0.7069,-0.7614,-0.8004,-0.822,-0.8126,-0.8079,-0.8208,-0.7824,-0.7486,-0.7669,-0.7226,0.0,0.0,-0.7833,-0.8184,-0.8661,-0.9357,-1.0325,-1.1984,0.0,0.0,0.0,0.0,-1.5324,0.0,0.0,0.0,0.0,0.0,0.0,0.0,0.0,-1.5805,-1.5758,-1.5798,-1.5832,-1.5832,-1.5832,-1.5832,-1.5832,-1.5832,-1.5832,-1.5832,-1.554,-1.5343,-1.5057,-1.4196,-1.4286,-1.4956,-1.3505,0.0,-1.5015,-1.4155,-1.4185,-1.4611,-1.3762,-1.3477,-1.3327,-1.1614,-1.1106,-1.0993,0.0,0.0,0.0,0.0,0.0,0.0,0.0,0.0,0.0,0.0,-1.0262,0.0,0.0,0.0,0.0,0.0,0.0,0.0,0.0,0.0,0.0,0.0,0.0,0.0,0.0,0.0,0.0,0.0,0.0,0.0,0.0,0.0,0.0,0.0,0.0,0.0,0.0,0.0,0.0,0.0,0.0,0.0,0.0,0.0,0.0,0.0,0.0,0.0,0.0,0.0,-0.8238,-0.7532,-0.7944,-0.8556,-0.9125,-0.9494,-0.9279,-0.9162,-1.0205,-0.9811,-0.9341,-1.0037,-0.9334,-0.8632,-0.8666,0.0,0.0,0.0,-0.8486,-0.8858,-0.9197,0.0,0.0,0.0,0.0,0.0,0.0,0.0,0.0,0.0,0.0,0.0,0.0,0.0,0.0,0.0,0.0,-1.5832,-1.5832,-1.5832,-1.5832,-1.5832,-1.5832,-1.5832,-1.5832,-1.5832,-1.5832,-1.5832,-1.5832,-1.554,-1.4968,-1.449,-1.4586,-1.4968,-1.3998,0.0,-1.5511,-1.4881,-1.4838,-1.5177,-1.4501,-1.439,-1.445,-1.3436,-1.2331,-1.1356,0.0,0.0,0.0,0.0,0.0,0.0,0.0,-1.1548,-1.1895,-1.3052,-1.2892,-1.24,-1.1652,-1.1363,0.0,0.0,0.0,0.0,0.0,0.0,0.0,0.0,0.0,0.0,0.0,0.0,0.0,0.0,0.0,0.0,0.0,0.0,0.0,0.0,0.0,0.0,0.0,0.0,0.0,0.0,0.0,0.0,0.0,0.0,0.0,0.0,0.0,0.0,0.0,0.0,-0.9812,-0.9261,-0.9735,-1.0204,-1.0587,-1.1035,-1.0594,-1.0409,-1.189,-1.1439,-1.0766,-1.1595,-1.0726,-0.9647,-0.9611,-0.899,0.0,0.0,-0.9036,-0.9239,-0.9532,0.0,-0.9432,0.0,0.0,0.0,0.0,0.0,0.0,0.0,0.0,0.0,0.0,0.0,0.0,0.0,0.0,0.0,-1.5832,-1.5832,-1.5832,-1.5832,-1.5832,-1.5832,-1.5832,-1.5832,-1.5832,-1.5832,-1.5832,-1.535,-1.4586,-1.4586,-1.4586,-1.4586,-1.4586,0.0,0.0,-1.5545,-1.5438,-1.5331,-1.5037,-1.5104,-1.5259,-1.4734,-1.3456,-1.1858,0.0,0.0,0.0,0.0,0.0,0.0,0.0,-1.3899,-1.3758,-1.4422,-1.447,-1.4448,-1.4343,-1.345,0.0,0.0,0.0,0.0,0.0,0.0,0.0,0.0,0.0,0.0,0.0,0.0,0.0,0.0,0.0,0.0,0.0,0.0,0.0,0.0,0.0,0.0,0.0,0.0,0.0,0.0,0.0,0.0,0.0,0.0,0.0,0.0,0.0,0.0,0.0,0.0,0.0,-1.1435,-1.1727,-1.1179,-1.0479,-1.1006,0.0,0.0,-1.1998,-1.2028,-1.1775,-1.175,-1.0602,-0.9611,-0.9786,0.0,0.0,-0.8976,-0.901,-0.8938,-0.917,-0.9045,-0.9132,0.0,0.0,0.0,0.0,0.0,0.0,0.0,0.0,0.0,0.0,0.0,0.0,0.0,0.0,0.0,-1.5832,-1.5832,-1.5832,-1.5832,-1.5832,-1.5832,-1.5832,-1.5832,-1.5832,-1.5832,-1.5832,-1.5737,-1.5642,-1.5642,-1.5642,-1.5642,-1.5642,0.0,0.0,-1.5651,-1.5578,-1.5291,-1.5598,-1.5745,-1.5481,-1.3634,-1.2791,-1.2344,0.0,0.0,0.0,0.0,0.0,0.0,0.0,-1.4525,-1.456,-1.5141,-1.4926,-1.4835,-1.5186,-1.4189,0.0,0.0,0.0,0.0,0.0,0.0,0.0,0.0,0.0,0.0,0.0,0.0,0.0,0.0,0.0,0.0,0.0,0.0,0.0,0.0,0.0,0.0,0.0,0.0,0.0,0.0,0.0,0.0,0.0,0.0,0.0,0.0,0.0,0.0,0.0,0.0,0.0,0.0,-1.1885,-1.1823,0.0,0.0,-1.2845,-1.2597,-1.449,-1.4124,-1.3316,-1.3631,-1.2547,-1.1386,-1.0914,0.0,0.0,-0.9449,-0.9272,-0.905,-0.9163,-0.9005,-0.8918,0.0,0.0,0.0,0.0,0.0,0.0,0.0,0.0,0.0,0.0,0.0,0.0,0.0,0.0,0.0,-1.5832,-1.5832,-1.5832,-1.5832,-1.5832,-1.5832,-1.5832,-1.5832,-1.5832,-1.5832,-1.5832,-1.5832,-1.5832,-1.5832,-1.5832,-1.5832,-1.5832,0.0,0.0,-1.5765,-1.5738,-1.5611,-1.5765,-1.5832,-1.5439,-1.2052,-1.1375,-1.1858,0.0,0.0,0.0,0.0,0.0,0.0,-1.5186,-1.5062,-1.5186,-1.5776,-1.5197,-1.488,-1.5332,-1.4468,-1.4061,-1.4525,0.0,0.0,0.0,0.0,0.0,0.0,0.0,0.0,0.0,0.0,0.0,0.0,0.0,0.0,0.0,0.0,0.0,0.0,0.0,0.0,0.0,0.0,0.0,0.0,0.0,0.0,0.0,0.0,0.0,0.0,0.0,0.0,0.0,0.0,0.0,0.0,0.0,0.0,0.0,0.0,-1.3978,-1.3886,-1.5926,-1.5472,-1.4551,-1.4791,-1.362,-1.2151,0.0,0.0,0.0,-0.9426,-0.9259,-0.9057,-0.9057,-0.8945,-0.8804,0.0,0.0,-0.9158,0.0,0.0,0.0,0.0,0.0,0.0,0.0,0.0,0.0,0.0,0.0,0.0,0.0,-1.5571,-1.5611,-1.5698,-1.5705,-1.5705,-1.5705,-1.5618,-1.5658,-1.5832,-1.5745,-1.5745,-1.5832,-1.5832,-1.5832,-1.5832,0.0,0.0,0.0,-1.5832,-1.5832,-1.573,-1.5153,-1.5051,-1.486,-1.1663,-1.0792,-1.0988,0.0,0.0,0.0,0.0,0.0,0.0,0.0,-1.5952,-1.582,-1.6423,-1.5433,-1.4755,-1.4903,-1.4351,-1.4071,-1.4176,0.0,0.0,0.0,0.0,0.0,0.0,0.0,0.0,0.0,0.0,0.0,0.0,0.0,0.0,0.0,0.0,0.0,0.0,0.0,0.0,0.0,0.0,0.0,0.0,0.0,0.0,0.0,0.0,0.0,0.0,0.0,0.0,0.0,0.0,0.0,0.0,0.0,0.0,0.0,0.0,-1.418,-1.4913,-1.5459,-1.5538,-1.5323,-1.4754,-1.3032,-1.1283,0.0,0.0,-0.8818,-0.8818,-0.8818,-0.8811,-0.8811,-0.8811,-0.8804,-0.8804,0.0,0.0,0.0,0.0,0.0,0.0,0.0,0.0,0.0,0.0,0.0,0.0,0.0,0.0,0.0,-1.497,-1.5104,-1.5391,-1.5398,-1.5398,-1.5398,-1.5117,-1.5257,-1.5825,-1.5538,-1.5551,-1.5832,-1.5832,-1.5832,0.0,0.0,0.0,0.0,-1.5832,-1.5832,-1.5635,-1.3505,-1.3216,-1.3703,-1.2926,-1.1375,-0.9628,0.0,0.0,0.0,0.0,0.0,0.0,0.0,-1.6337,-1.6281,-1.6466,-1.5433,-1.4709,-1.4755,-1.3836,-1.343,-1.3884,0.0,0.0,0.0,0.0,0.0,0.0,0.0,0.0,0.0,0.0,0.0,0.0,0.0,0.0,0.0,0.0,0.0,0.0,0.0,0.0,0.0,0.0,0.0,0.0,0.0,0.0,0.0,0.0,0.0,0.0,0.0,0.0,0.0,0.0,0.0,0.0,0.0,0.0,0.0,0.0,0.0,0.0,-1.49,-1.4928,-1.4574,-1.3978,-1.2833,-1.161,-1.0838,0.0,-0.9045,-0.8844,-0.8804,-0.8804,-0.8804,-0.8804,-0.8804,-0.8804,-0.8971,0.0,0.0,0.0,0.0,0.0,0.0,0.0,0.0,0.0,0.0,0.0,0.0,0.0,0.0,-1.4963,-1.501,-1.5097,-1.5104,-1.5104,-1.5104,-1.501,-1.5124,-1.5424,-1.5337,-1.5478,-1.5832,-1.5832,0.0,0.0,0.0,0.0,0.0,-1.5832,-1.5832,-1.5635,-1.4088,-1.3607,-1.3607,-1.2242,-1.1272,-1.0592,0.0,0.0,0.0,0.0,0.0,0.0,0.0,-1.6522,-1.6423,-1.6194,-1.5287,-1.4606,-1.4479,-1.3573,-1.3152,-1.3542,0.0,0.0,0.0,0.0,0.0,0.0,0.0,0.0,0.0,0.0,0.0,0.0,0.0,0.0,0.0,0.0,0.0,0.0,0.0,0.0,0.0,0.0,0.0,0.0,0.0,0.0,-1.319,0.0,0.0,0.0,0.0,0.0,0.0,0.0,0.0,0.0,0.0,0.0,0.0,0.0,-1.3096,0.0,0.0,-1.4435,-1.4064,-1.362,-1.2695,0.0,0.0,0.0,-0.9695,-0.9246,-0.9159,-0.9113,-0.8857,-0.8804,-0.8804,-0.8804,-0.8958,0.0,0.0,0.0,0.0,0.0,0.0,0.0,0.0,0.0,0.0,0.0,0.0,0.0,0.0,-1.4696,-1.4629,-1.4629,-1.4743,-1.4796,-1.4796,-1.4689,-1.4803,-1.5137,-1.5137,-1.5324,-1.5671,-1.5778,0.0,0.0,0.0,0.0,0.0,-1.5832,-1.554,-1.5153,-1.3896,-1.3119,-1.263,-1.1175,-1.0596,-1.0498,0.0,0.0,0.0,0.0,0.0,0.0,0.0,0.0,0.0,0.0,-1.5005,-1.4468,-1.4014,-1.344,-1.3113,0.0,0.0,0.0,0.0,0.0,0.0,0.0,0.0,0.0,0.0,0.0,0.0,-1.0973,-1.0973,-1.0618,-1.0072,0.0,0.0,0.0,0.0,0.0,0.0,0.0,0.0,0.0,0.0,0.0,0.0,0.0,0.0,0.0,0.0,0.0,0.0,0.0,0.0,0.0,0.0,0.0,0.0,0.0,0.0,0.0,0.0,-1.3998,0.0,0.0,0.0,0.0,0.0,0.0,0.0,-0.9917,-0.9762,-0.9562,-0.891,-0.8804,-0.8804,-0.8804,-0.8858,0.0,0.0,0.0,0.0,0.0,0.0,0.0,0.0,0.0,0.0,0.0,0.0,0.0,0.0,-1.4235,-1.4088,-1.4088,-1.4349,-1.4489,-1.4489,-1.4222,-1.4376,-1.4943,-1.4943,-1.511,-1.5438,-1.5705,0.0,0.0,0.0,0.0,0.0,-1.5832,-1.5255,-1.4202,-1.3125,-1.2047,-1.1077,-1.0015,-0.9628,-0.9628,0.0,0.0,0.0,0.0,0.0,0.0,0.0,0.0,0.0,0.0,0.0,-1.3956,-1.3873,-1.3296,0.0,0.0,0.0,0.0,0.0,0.0,0.0,0.0,0.0,0.0,0.0,0.0,0.0,-1.2412,-1.2412,-1.2314,-1.2157,-1.2676,0.0,0.0,0.0,0.0,0.0,0.0,0.0,0.0,0.0,0.0,0.0,0.0,0.0,0.0,-1.3104,-1.2881,0.0,0.0,0.0,0.0,0.0,0.0,0.0,0.0,-1.2881,-1.293,-1.3125,0.0,-1.3132,-1.3087,-1.2397,-1.1762,0.0,0.0,-1.0012,-0.9814,0.0,-0.9008,-0.8804,-0.8804,-0.8804,-0.8804,0.0,0.0,0.0,0.0,0.0,0.0,0.0,0.0,0.0,0.0,0.0,0.0,0.0,0.0,0.0,-1.4122,-1.4088,-1.4088,-1.4155,-1.4188,-1.4188,-1.4122,-1.4309,-1.4743,-1.4743,-1.509,-1.5732,-1.5798,0.0,0.0,0.0,0.0,-1.5832,-1.5832,-1.5255,-1.4202,-1.3125,-1.2047,-1.1077,-1.0015,-0.9628,-0.9628,0.0,0.0,0.0,0.0,0.0,0.0,0.0,0.0,0.0,0.0,0.0,0.0,0.0,0.0,0.0,0.0,0.0,0.0,0.0,0.0,0.0,0.0,0.0,0.0,0.0,0.0,0.0,0.0,0.0,-1.2393,0.0,0.0,0.0,0.0,0.0,0.0,0.0,0.0,0.0,0.0,-1.456,0.0,0.0,0.0,0.0,0.0,-1.3515,-1.3152,0.0,-1.2881,-1.2881,-1.2881,0.0,0.0,0.0,0.0,-1.2881,-1.2881,-1.2881,-1.2881,-1.2881,-1.2881,-1.2608,-1.2295,-1.2295,0.0,0.0,0.0,0.0,0.0,0.0,0.0,0.0,0.0,0.0,0.0,0.0,0.0,0.0,0.0,0.0,0.0,0.0,0.0,0.0,0.0,0.0,0.0,0.0,-1.3955,-1.3881,-1.3881,-1.3881,-1.4032,-1.4243,-1.4166,-1.4347,-1.4784,-1.4831,-1.5097,-1.5631,-1.5765,-1.5832,0.0,0.0,0.0,-1.5832,-1.5832,-1.4962,-1.3511,-1.2926,-1.176,-1.04,-0.9821,-0.9628,-0.9628,0.0,0.0,0.0,0.0,0.0,0.0,0.0,0.0,0.0,0.0,0.0,0.0,0.0,0.0,0.0,0.0,0.0,0.0,0.0,0.0,0.0,0.0,0.0,0.0,0.0,0.0,0.0,0.0,0.0,0.0,0.0,0.0,-1.2881,0.0,0.0,0.0,0.0,0.0,0.0,0.0,-1.4926,0.0,0.0,0.0,0.0,0.0,0.0,0.0,0.0,-1.3065,-1.2968,-1.2881,-1.2881,0.0,0.0,0.0,0.0,0.0,-1.2881,-1.2881,-1.2881,-1.2881,-1.2881,-1.2881,-1.2881,0.0,0.0,0.0,0.0,0.0,0.0,0.0,0.0,0.0,0.0,0.0,0.0,0.0,0.0,0.0,0.0,0.0,0.0,0.0,0.0,0.0,0.0,0.0,0.0,-1.3841,-1.3707,-1.379,-1.379,-1.3987,-1.4475,-1.4291,-1.4473,-1.5039,-1.5157,-1.5366,-1.5564,-1.5812,-1.5832,0.0,0.0,0.0,-1.5832,-1.5832,-1.4567,-1.2727,-1.2727,-1.1473,-0.9628,-0.9628,-0.9628,-0.9628,0.0,0.0,0.0,0.0,0.0,0.0,0.0,0.0,0.0,0.0,0.0,0.0,0.0,0.0,0.0,0.0,0.0,0.0,0.0,0.0,0.0,0.0,0.0,0.0,0.0,0.0,0.0,0.0,0.0,0.0,-1.2715,-1.2832,-1.2881,-1.2929,0.0,-1.3732,-1.3862,-1.4903,-1.5365,-1.5499,-1.602,0.0,0.0,0.0,0.0,0.0,0.0,0.0,0.0,-1.3637,-1.3324,-1.2881,-1.2881,0.0,0.0,0.0,0.0,0.0,-1.2881,-1.2881,-1.2881,-1.2881,-1.2881,-1.2881,-1.2881,0.0,0.0,0.0,0.0,0.0,0.0,0.0,0.0,0.0,0.0,0.0,0.0,0.0,0.0,0.0,0.0,0.0,0.0,0.0,0.0,0.0,0.0,0.0,0.0,-1.4273,-1.433,-1.4497,-1.4497,-1.4692,-1.4999,-1.4829,-1.5026,-1.5602,-1.5917,-1.6125,-1.6425,-1.6197,-1.613,0.0,0.0,-1.5832,-1.5832,-1.5832,-1.4567,-1.2727,-1.2727,-1.1473,-0.9628,-0.9628,-0.9628,-0.9628,0.0,0.0,0.0,0.0,0.0,0.0,0.0,0.0,0.0,0.0,0.0,0.0,0.0,0.0,0.0,0.0,0.0,0.0,0.0,0.0,0.0,0.0,0.0,0.0,0.0,0.0,0.0,0.0,0.0,-1.2881,-1.2881,-1.2881,-1.2881,-1.2929,0.0,-1.3695,-1.4329,-1.4869,-1.5511,-1.6095,0.0,0.0,0.0,0.0,0.0,0.0,0.0,0.0,0.0,0.0,-1.342,-1.2881,-1.2881,0.0,0.0,0.0,0.0,0.0,-1.2881,-1.2618,-1.2295,-1.2295,-1.2618,-1.2939,-1.3164,0.0,0.0,0.0,0.0,0.0,0.0,0.0,0.0,0.0,0.0,0.0,0.0,0.0,0.0,0.0,0.0,0.0,0.0,0.0,0.0,0.0,0.0,0.0,0.0,0.0,-1.4241,-1.4324,-1.4406,-1.4655,-1.509,-1.5227,-1.5451,-1.585,-1.5901,-1.6127,-1.6588,-1.6494,-1.6312,-1.6224,0.0,-1.5927,-1.5832,-1.5832,-1.4962,-1.3511,-1.2926,-1.176,-1.04,-0.9821,-0.9628,-0.9628,0.0,0.0,0.0,0.0,0.0,0.0,0.0,0.0,0.0,0.0,0.0,0.0,0.0,0.0,0.0,0.0,0.0,0.0,0.0,0.0,0.0,0.0,0.0,0.0,0.0,0.0,-1.293,-1.3027,-1.293,-1.2881,-1.2881,-1.2881,-1.2881,0.0,0.0,-1.3695,-1.4698,-1.4835,-1.5522,-1.6522,0.0,0.0,0.0,0.0,0.0,0.0,0.0,0.0,0.0,0.0,0.0,0.0,0.0,0.0,0.0,-1.2881,-1.2881,-1.2871,-1.2666,-1.2344,-1.1972,-1.1665,0.0,-1.2544,-1.3002,0.0,0.0,0.0,0.0,0.0,0.0,0.0,0.0,0.0,0.0,0.0,0.0,0.0,0.0,0.0,0.0,0.0,0.0,0.0,0.0,0.0,0.0,0.0,0.0,0.0,-1.3994,-1.422,-1.4321,-1.4597,-1.5173,-1.5418,-1.5734,-1.6116,-1.601,-1.6239,-1.677,-1.6683,-1.6595,-1.6312,-1.6224,-1.6028,-1.5832,-1.5832,-1.5057,-1.3806,-1.3022,-1.195,-1.069,-0.992,-0.9628,-0.9628,0.0,0.0,0.0,0.0,0.0,0.0,0.0,0.0,0.0,0.0,0.0,0.0,0.0,0.0,0.0,0.0,0.0,0.0,0.0,0.0,0.0,0.0,0.0,0.0,0.0,-1.3076,-1.3076,-1.3467,-1.3076,-1.2881,-1.2881,-1.2881,-1.2881,-1.2929,0.0,-1.4097,-1.4744,-1.5276,-1.5908,-1.6522,-1.6522,0.0,0.0,0.0,0.0,0.0,0.0,0.0,0.0,0.0,0.0,0.0,0.0,0.0,-1.2881,-1.2881,-1.2881,-1.2764,-1.208,-1.2344,-1.251,-1.1225,-1.0914,0.0,-1.1696,-1.2215,0.0,0.0,0.0,0.0,0.0,0.0,0.0,0.0,0.0,0.0,0.0,0.0,0.0,0.0,0.0,0.0,0.0,0.0,0.0,0.0,0.0,0.0,0.0,0.0,0.0,-1.4949,-1.4767,-1.4849,-1.534,-1.5369,-1.5767,-1.6374,-1.6674,-1.7004,-1.7239,-1.7066,-1.6784,-1.6588,-1.6312,-1.6028,-1.5832,-1.5832,-1.4663,-1.2829,-1.2727,-1.1468,-0.9723,-0.9628,-0.9628,-0.9628,0.0,0.0,0.0,0.0,0.0,0.0,0.0,0.0,0.0,0.0,0.0,0.0,0.0,0.0,0.0,0.0,0.0,0.0,0.0,0.0,0.0,0.0,0.0,-1.3488,-1.3496,-1.3096,-1.2959,-1.3125,-1.2959,-1.2881,-1.2881,-1.2881,0.0,0.0,0.0,-1.3563,-1.4143,-1.4365,-1.505,-1.5952,-1.5952,-1.6194,0.0,0.0,0.0,0.0,0.0,0.0,0.0,0.0,-1.361,-1.2881,0.0,0.0,-1.2881,-1.2881,-1.2559,-1.2187,-1.1864,-1.1375,-1.083,-1.032,0.0,0.0,0.0,0.0,0.0,0.0,0.0,0.0,0.0,0.0,0.0,0.0,0.0,0.0,0.0,0.0,0.0,0.0,0.0,0.0,0.0,0.0,0.0,0.0,0.0,0.0,0.0,0.0,0.0,-1.4358,-1.4512,-1.4767,-1.5173,-1.5347,-1.565,-1.6089,-1.6404,-1.6828,-1.7326,-1.7239,-1.7059,-1.6784,-1.6595,-1.6312,-1.6028,-1.5159,-1.4388,-1.3607,-1.2242,-1.0886,-0.9628,-0.9628,-0.9628,-0.9628,0.0,0.0,0.0,0.0,0.0,0.0,0.0,0.0,0.0,0.0,0.0,0.0,0.0,0.0,0.0,0.0,0.0,0.0,0.0,0.0,0.0,0.0,0.0,-1.3466,-1.3301,-1.3027,-1.2939,-1.3076,-1.2939,-1.2881,-1.2881,0.0,0.0,0.0,0.0,0.0,0.0,-1.3815,-1.4411,-1.532,-1.5543,-1.5864,0.0,0.0,0.0,0.0,0.0,0.0,0.0,0.0,-1.342,0.0,0.0,0.0,0.0,0.0,-1.2353,-1.1981,-1.1366,-1.0813,-1.0261,0.0,0.0,0.0,0.0,0.0,0.0,0.0,0.0,0.0,0.0,0.0,0.0,0.0,0.0,0.0,0.0,0.0,0.0,0.0,0.0,0.0,0.0,0.0,0.0,0.0,0.0,0.0,0.0,0.0,0.0,0.0,-1.4132,-1.4448,-1.4932,-1.5206,-1.5507,-1.5921,-1.6126,-1.6557,-1.7179,-1.7282,-1.7153,-1.6979,-1.6683,-1.6407,-1.6123,-1.4873,-1.3908,-1.3125,-1.137,-1.0207,-0.9628,-0.9628,-0.9628,-0.9628,0.0,0.0,0.0,0.0,0.0,0.0,0.0,0.0,0.0,0.0,0.0,0.0,0.0,0.0,0.0,0.0,0.0,0.0,0.0,0.0,0.0,0.0,0.0,-1.2881,-1.2881,-1.2881,-1.3086,-1.3496,-1.3086,-1.2881,-1.2881,-1.2881,0.0,0.0,0.0,0.0,0.0,-1.3779,-1.4143,-1.4744,-1.5365,-1.5576,-1.5676,0.0,0.0,0.0,0.0,0.0,0.0,0.0,-1.3372,0.0,0.0,0.0,0.0,0.0,-1.2314,-1.2421,-1.0379,-1.0762,-1.1266,0.0,0.0,0.0,0.0,0.0,0.0,0.0,0.0,0.0,0.0,0.0,0.0,0.0,0.0,0.0,0.0,0.0,0.0,0.0,0.0,0.0,0.0,0.0,0.0,0.0,0.0,0.0,0.0,0.0,0.0,0.0,-1.3495,-1.3884,-1.4603,-1.4925,-1.5324,-1.5906,-1.5913,-1.6243,-1.6865,-1.7179,-1.7145,-1.6979,-1.6683,-1.64,-1.6028,-1.4777,-1.3028,-1.1077,-1.0015,-0.9628,-0.9628,-0.9628,-0.9628,-0.9628,0.0,0.0,0.0,0.0,0.0,0.0,0.0,0.0,0.0,0.0,0.0,0.0,0.0,0.0,0.0,0.0,0.0,0.0,0.0,0.0,0.0,0.0,0.0,0.0,0.0,0.0,-1.2939,-1.3066,-1.2939,-1.2881,0.0,0.0,0.0,-1.2891,0.0,0.0,0.0,-1.3152,-1.3515,-1.4097,-1.4732,-1.5231,-1.5632,0.0,0.0,0.0,0.0,0.0,0.0,0.0,0.0,0.0,0.0,0.0,0.0,-1.2039,-1.1633,-1.1183,-1.0115,-0.9762,0.0,0.0,0.0,0.0,0.0,0.0,0.0,0.0,0.0,0.0,0.0,0.0,0.0,0.0,0.0,0.0,0.0,0.0,0.0,0.0,0.0,0.0,0.0,0.0,0.0,0.0,0.0,0.0,0.0,0.0,0.0,0.0,-1.3341,-1.3726,-1.4273,-1.4757,-1.5056,-1.524,-1.5694,-1.6126,-1.6521,-1.685,-1.643,-1.5498,-1.553,-1.4949,-1.3896,-1.2635,-1.1277,-1.0015,-0.9723,-0.9628,-0.9628,-0.9628,-0.9628,-0.9628,0.0,0.0,0.0,0.0,0.0,0.0,0.0,0.0,0.0,0.0,0.0,0.0,0.0,0.0,0.0,0.0,0.0,0.0,0.0,0.0,0.0,0.0,0.0,0.0,0.0,-1.2881,-1.2881,0.0,0.0,0.0,0.0,0.0,0.0,-1.2891,0.0,-1.3125,0.0,0.0,-1.3104,-1.3515,-1.434,-1.4789,-1.4949,0.0,0.0,0.0,0.0,0.0,0.0,0.0,0.0,0.0,0.0,0.0,0.0,-1.1674,-1.1316,-1.0914,-0.9718,0.0,0.0,0.0,0.0,0.0,0.0,0.0,0.0,0.0,0.0,0.0,0.0,0.0,0.0,0.0,0.0,0.0,0.0,0.0,0.0,0.0,0.0,0.0,0.0,0.0,0.0,0.0,0.0,0.0,0.0,0.0,0.0,0.0,-1.3141,-1.3522,-1.3797,-1.4345,-1.467,-1.4765,-1.5284,-1.5628,-1.5818,-1.5946,-1.5366,-1.427,-1.4272,-1.3504,-1.2242,-1.156,-1.0596,-0.9628,-0.9628,-0.9628,-0.9628,-0.9628,-0.9628,-0.9628,0.0,0.0,0.0,0.0,0.0,0.0,0.0,0.0,0.0,0.0,0.0,0.0,0.0,0.0,0.0,0.0,0.0,0.0,0.0,0.0,0.0,0.0,0.0,0.0,0.0,0.0,0.0,0.0,0.0,0.0,0.0,0.0,-1.292,-1.2881,0.0,-1.291,0.0,-1.2881,-1.2881,-1.3027,-1.4154,-1.4283,-1.3909,-1.5039,0.0,0.0,0.0,0.0,0.0,0.0,0.0,0.0,-1.2881,0.0,-1.252,-1.1174,-1.1166,-1.1216,0.0,0.0,0.0,0.0,0.0,0.0,0.0,0.0,0.0,0.0,0.0,0.0,0.0,0.0,0.0,0.0,0.0,0.0,0.0,0.0,0.0,0.0,0.0,0.0,0.0,0.0,0.0,0.0,0.0,0.0,0.0,0.0,0.0,-1.2331,-1.29,-1.3285,-1.3395,-1.386,-1.418,0.0,-1.475,-1.4831,-1.4727,-1.4676,-1.4096,-1.315,-1.2927,-1.2125,-1.1077,-1.1077,-1.0498,-0.9628,-0.9628,-0.9628,-0.9628,-0.9628,-0.9628,-0.9628,0.0,0.0,0.0,0.0,0.0,0.0,0.0,0.0,0.0,0.0,0.0,0.0,0.0,0.0,0.0,0.0,0.0,0.0,0.0,0.0,0.0,0.0,0.0,0.0,0.0,0.0,0.0,0.0,0.0,0.0,0.0,0.0,0.0,-1.29,0.0,-1.3193,-1.2881,-1.2881,-1.2881,-1.2968,-1.3695,-1.3909,-1.3815,-1.4086,-1.4097,0.0,0.0,0.0,0.0,0.0,0.0,0.0,-1.2881,-1.2501,-1.1873,-1.1065,-1.0517,-1.0012,0.0,0.0,0.0,0.0,0.0,0.0,0.0,0.0,0.0,0.0,0.0,0.0,0.0,0.0,0.0,0.0,0.0,0.0,0.0,0.0,0.0,0.0,0.0,0.0,0.0,0.0,0.0,0.0,0.0,0.0,0.0,0.0,0.0,-1.2458,-1.2456,-1.2753,-1.3447,-1.369,-1.3925,0.0,-1.4414,-1.4207,-1.3546,-1.4111,-1.3381,-1.163,-1.0654,-1.0127,-0.9916,-0.9916,-0.9821,-0.9628,-0.9628,-0.9628,-0.9628,-0.9628,-0.9628,-0.9628,0.0,0.0,0.0,0.0,0.0,0.0,0.0,0.0,0.0,0.0,0.0,0.0,0.0,0.0,0.0,0.0,0.0,0.0,0.0,0.0,0.0,0.0,0.0,0.0,0.0,0.0,0.0,0.0,0.0,0.0,0.0,0.0,0.0,-1.2891,0.0,-1.3086,-1.2881,-1.2881,-1.2881,-1.2978,-1.3552,-1.3637,-1.342,-1.3684,-1.3637,-1.3334,-1.3017,0.0,0.0,0.0,0.0,0.0,0.0,0.0,-1.2138,-1.1116,-1.0559,-1.0064,0.0,0.0,0.0,0.0,0.0,0.0,0.0,0.0,0.0,0.0,0.0,0.0,0.0,0.0,0.0,0.0,0.0,0.0,0.0,0.0,0.0,0.0,0.0,0.0,0.0,0.0,0.0,0.0,0.0,0.0,0.0,-1.1701,-1.1757,-1.2207,-1.2431,-1.2735,-1.2971,-1.3286,-1.3518,-1.3599,-1.3925,-1.3509,-1.2371,-1.2443,-1.1599,-1.0107,-0.9562,-0.9427,-0.9502,-0.9592,-0.9628,-0.9628,-0.9628,-0.9628,-0.9628,-0.9628,-0.9628,-0.9628,0.0,0.0,0.0,0.0,0.0,0.0,0.0,0.0,0.0,0.0,0.0,0.0,0.0,0.0,0.0,0.0,0.0,0.0,0.0,0.0,0.0,0.0,0.0,0.0,0.0,0.0,0.0,0.0,0.0,0.0,0.0,0.0,0.0,-1.2881,0.0,-1.2881,-1.2881,-1.2881,-1.2881,-1.2929,-1.342,-1.3324,-1.2978,-1.3467,-1.3324,-1.2881,-1.2881,-1.2881,-1.2881,-1.2881,0.0,0.0,0.0,0.0,-1.2461,-1.1174,-1.0712,-1.0364,0.0,0.0,0.0,0.0,0.0,0.0,0.0,0.0,0.0,0.0,0.0,0.0,0.0,0.0,0.0,0.0,0.0,0.0,0.0,0.0,0.0,0.0,0.0,0.0,0.0,0.0,0.0,0.0,0.0,0.0,-1.1727,-1.1708,-1.1708,-1.1878,-1.2419,-1.2584,-1.2424,-1.2828,-1.3064,-1.3121,-1.3344,-1.2694,-1.1305,-1.0719,-0.9846,-0.8828,-0.9163,-0.9349,-0.9368,-0.9518,-0.96,-0.9628,-0.9628,-0.9628,-0.9628,-0.9628,-0.9628,-0.9628,0.0,0.0,0.0,0.0,0.0,0.0,0.0,0.0,0.0,0.0,0.0,0.0,0.0,0.0,0.0,0.0,0.0,0.0,-1.4744,0.0,0.0,-1.3017,-1.2929,0.0,0.0,0.0,0.0,0.0,0.0,0.0,0.0,0.0,0.0,-1.2881,0.0,0.0,0.0,-1.2881,-1.2881,-1.2929,-1.2968,-1.2968,-1.2929,-1.2968,-1.2978,-1.2881,-1.2881,-1.2881,-1.2881,-1.2881,-1.2881,0.0,0.0,0.0,-1.1823,-1.1015,-1.0364,-0.9762,0.0,0.0,0.0,0.0,0.0,0.0,0.0,0.0,0.0,0.0,0.0,0.0,0.0,0.0,0.0,0.0,0.0,0.0,0.0,0.0,0.0,0.0,0.0,0.0,0.0,0.0,0.0,0.0,0.0,0.0,-1.1178,-1.1206,-1.139,-1.1833,-1.1546,-1.1766,-1.2516,-1.2287,-1.2374,-1.2792,-1.256,-1.1811,-1.0805,-1.0315,-0.962,-0.8824,-0.8844,-0.9047,-0.9356,-0.938,-0.9486,-0.9628,-0.9628,-0.9628,-0.9628,-0.9628,-0.9628,-0.9628,0.0,0.0,0.0,0.0,0.0,0.0,0.0,0.0,0.0,0.0,0.0,0.0,0.0,0.0,0.0,-1.6522,-1.5964,-1.5174,-1.4283,-1.3382,-1.2881,-1.2881,-1.2881,-1.2881,-1.2881,0.0,0.0,0.0,0.0,0.0,0.0,-1.2263,-1.245,0.0,0.0,0.0,0.0,0.0,-1.2881,-1.2881,-1.2881,-1.2881,-1.2881,-1.2881,-1.2881,-1.2881,-1.2881,-1.2881,-1.2881,-1.2881,-1.2618,-1.2286,-1.2286,0.0,0.0,0.0,-1.0312,0.0,0.0,0.0,0.0,0.0,0.0,0.0,0.0,0.0,0.0,0.0,0.0,0.0,0.0,0.0,0.0,0.0,0.0,0.0,0.0,0.0,0.0,0.0,0.0,0.0,0.0,0.0,0.0,0.0,0.0,-1.0815,-1.1115,-1.1247,-1.1374,-1.1383,-1.1488,-1.1577,-1.1776,-1.1892,-1.1923,-1.1857,-1.1162,-1.0577,-1.004,-0.9243,-0.8841,-0.8682,-0.8779,-0.897,-0.9218,-0.9315,-0.9462,-0.9628,-0.9628,-0.9628,-0.9628,-0.9628,-0.9628,-0.9628,0.0,0.0,0.0,0.0,0.0,0.0,0.0,0.0,0.0,0.0,0.0,0.0,0.0,0.0,0.0,0.0,-1.5864,-1.5084,-1.3862,-1.3238,-1.2881,-1.2881,-1.2881,-1.2881,-1.2881,0.0,0.0,0.0,0.0,0.0,-1.1754,-1.1597,-1.1578,0.0,-1.2492,0.0,0.0,0.0,0.0,0.0,0.0,0.0,0.0,0.0,0.0,-1.2608,-1.2608,-1.251,-1.2363,-1.2363,-1.199,-1.1566,-1.1566,-1.1566,0.0,0.0,0.0,0.0,0.0,0.0,0.0,0.0,0.0,0.0,0.0,0.0,0.0,0.0,0.0,0.0,0.0,0.0,0.0,0.0,0.0,0.0,0.0,0.0,0.0,0.0,0.0,0.0,0.0,0.0,0.0,0.0,0.0,-1.0558,-1.0926,-1.1188,-1.1293,-1.1122,-1.1411,-1.133,-1.0934,-1.1162,-1.1106,-1.0747,-0.9874,-0.9432,-0.9313,-0.835,-0.815,-0.8507,-0.8682,-0.8861,-0.9039,-0.9218,-0.9397,-0.9563,-0.9608,-0.9628,-0.9628,-0.9628,-0.9628,-0.9628,0.0,0.0,0.0,0.0,0.0,0.0,0.0,0.0,0.0,0.0,0.0,0.0,0.0,-1.6522,-1.6281,-1.5688,-1.5632,-1.5084,-1.3862,-1.3238,-1.2881,-1.2881,-1.2881,0.0,-1.2881,0.0,0.0,0.0,0.0,0.0,-1.1338,-1.1428,-1.11,-1.0408,-1.0797,-1.0939,-1.0914,0.0,0.0,0.0,0.0,0.0,0.0,0.0,0.0,0.0,0.0,-1.1466,-1.0914,-1.0914,-1.0864,-1.0864,-1.0864,-1.0864,-1.0712,0.0,0.0,0.0,0.0,0.0,0.0,0.0,0.0,0.0,0.0,0.0,0.0,0.0,0.0,0.0,0.0,0.0,0.0,0.0,0.0,0.0,0.0,0.0,0.0,0.0,0.0,0.0,0.0,0.0,0.0,0.0,0.0,-1.0062,-1.043,-1.0565,-1.0812,-1.1115,-1.0947,-1.0631,-1.004,-0.9592,-0.9383,-0.9491,-0.8789,-0.868,-0.9015,-0.8162,-0.7967,-0.8316,-0.8499,-0.8678,-0.8848,-0.9035,-0.9214,-0.9384,-0.9559,-0.9628,-0.9628,-0.9628,-0.9628,-0.9628,0.0,0.0,0.0,0.0,0.0,0.0,0.0,0.0,0.0,0.0,0.0,0.0,0.0,-1.5908,-1.5688,-1.5062,-1.4687,-1.4272,-1.3815,-1.3238,-1.2881,-1.2881,-1.2881,-1.2881,-1.2881,0.0,0.0,0.0,0.0,-1.1404,-1.067,-1.0918,-1.0514,-0.9666,-1.0751,-1.1088,-1.0813,-1.0813,0.0,0.0,0.0,0.0,0.0,0.0,0.0,0.0,0.0,0.0,0.0,-1.0813,-1.0517,-1.0167,-1.0167,-1.0167,-1.0115,-0.9865,-0.9309,0.0,0.0,0.0,0.0,0.0,0.0,0.0,0.0,0.0,0.0,0.0,0.0,0.0,0.0,0.0,0.0,0.0,0.0,0.0,0.0,0.0,0.0,0.0,0.0,0.0,0.0,0.0,0.0,0.0,0.0,0.0,-1.0221,-1.0663,-1.0885,-1.0807,-1.0807,-1.0485,-0.9894,-0.9156,-0.8666,-0.8495,-0.8226,-0.8111,-0.8043,-0.7861,-0.789,-0.8122,-0.8308,-0.8552,-0.8824,-0.8893,-0.9027,-0.9206,-0.9384,-0.9453,-0.9466,-0.9583,-0.9628,-0.9628,0.0,0.0,0.0,0.0,0.0,0.0,0.0,0.0,0.0,0.0,0.0,0.0,0.0,0.0,-1.505,-1.4468,-1.3826,-1.3505,-1.3505,-1.3104,-1.2881,-1.2881,-1.2881,-1.2881,-1.2881,0.0,0.0,0.0,0.0,0.0,0.0,-1.1031,-1.0542,-0.9458,-1.0711,-1.0837,0.0,0.0,0.0,-1.0466,0.0,0.0,-1.0813,0.0,0.0,0.0,0.0,0.0,0.0,0.0,0.0,0.0,-0.9588,-0.9552,-0.9465,-0.9465,-0.9159,0.0,0.0,0.0,0.0,0.0,0.0,0.0,0.0,0.0,0.0,0.0,0.0,0.0,0.0,0.0,0.0,0.0,0.0,0.0,0.0,0.0,0.0,0.0,0.0,0.0,0.0,0.0,0.0,0.0,0.0,0.0,-0.9784,-1.017,-1.0253,-0.9907,-0.9773,-0.9448,-0.893,-0.8161,-0.766,-0.7458,-0.7588,-0.7569,-0.7411,-0.761,-0.776,-0.7935,-0.8061,-0.8312,-0.8649,-0.8771,-0.8893,-0.9023,-0.9292,-0.9399,-0.9464,-0.9587,-0.9575,-0.9628,0.0,0.0,0.0,0.0,0.0,0.0,0.0,0.0,0.0,0.0,0.0,0.0,0.0,0.0,0.0,-1.3815,-1.3238,-1.2881,-1.2881,-1.2881,-1.2881,-1.2881,-1.2881,-1.2881,-1.2881,0.0,0.0,0.0,0.0,0.0,0.0,0.0,-1.1116,0.0,-1.0517,-1.0115,-0.8857,0.0,-0.9211,-0.9762,0.0,-1.0167,-1.0762,0.0,0.0,0.0,-0.9762,-0.9361,0.0,-0.909,0.0,0.0,0.0,0.0,-0.8804,-0.8804,0.0,0.0,0.0,0.0,0.0,0.0,0.0,0.0,0.0,0.0,0.0,0.0,0.0,0.0,0.0,0.0,0.0,0.0,0.0,0.0,0.0,0.0,0.0,0.0,0.0,0.0,0.0,0.0,0.0,0.0,0.0,-0.9157,-0.9095,-0.907,-0.8879,-0.8479,-0.7847,-0.7386,-0.7181,-0.6671,-0.6388,-0.6433,-0.6797,-0.7057,-0.7165,-0.7399,-0.7577,-0.7752,-0.7756,-0.7955,-0.83,-0.8653,-0.8804,-0.8828,-0.9192,-0.937,-0.9436,-0.9627,-0.9647,-0.9612,0.0,0.0,0.0,0.0,0.0,0.0,0.0,0.0,0.0,0.0,0.0,0.0,0.0,0.0,-1.3344,-1.3152,-1.3027,-1.2881,-1.2881,-1.2881,-1.2881,-1.2881,-1.2881,-1.2881,-1.2881,0.0,0.0,0.0,0.0,0.0,0.0,0.0,0.0,0.0,-1.1216,-1.1065,-1.021,-0.9718,0.0,0.0,-0.9061,-0.9211,0.0,0.0,0.0,0.0,0.0,-0.8956,-0.8851,0.0,-0.9051,-0.8824,0.0,0.0,0.0,0.0,0.0,0.0,-0.8804,0.0,0.0,0.0,0.0,0.0,0.0,0.0,0.0,0.0,0.0,0.0,0.0,0.0,0.0,0.0,0.0,0.0,0.0,0.0,0.0,0.0,0.0,0.0,0.0,0.0,0.0,0.0,-0.8915,-0.8887,-0.9108,-0.8668,-0.8473,-0.8484,-0.7577,-0.712,-0.7181,-0.6408,-0.6133,-0.6293,-0.6486,-0.6667,-0.6741,-0.7092,-0.7319,-0.7418,-0.7703,-0.7817,-0.7923,-0.8146,-0.8394,-0.8641,-0.8783,-0.8906,-0.8986,-0.921,-0.9386,-0.9449,0.0,0.0,0.0,0.0,0.0,0.0,0.0,0.0,0.0,0.0,0.0,0.0,0.0,0.0,0.0,-1.3145,-1.3301,-1.333,-1.3154,-1.3145,-1.3066,-1.2891,-1.2881,-1.2881,0.0,0.0,0.0,0.0,0.0,0.0,0.0,0.0,0.0,0.0,0.0,0.0,0.0,0.0,0.0,0.0,-0.891,0.0,0.0,-0.8804,-0.8804,0.0,0.0,0.0,-0.9051,-0.9409,-0.9492,0.0,0.0,0.0,0.0,0.0,0.0,0.0,0.0,0.0,0.0,0.0,0.0,0.0,-0.8804,-0.8804,0.0,0.0,0.0,0.0,0.0,0.0,0.0,0.0,0.0,0.0,0.0,0.0,0.0,0.0,0.0,0.0,0.0,0.0,0.0,-0.9412,-0.9279,-0.9253,-0.9277,-0.8334,-0.7827,-0.7967,-0.6994,-0.647,-0.6527,-0.621,-0.6055,-0.6052,-0.6291,-0.6503,-0.6606,-0.6849,-0.7057,-0.7239,-0.7414,-0.7612,-0.7768,-0.7866,-0.8122,-0.8459,-0.8623,-0.8759,-0.8832,-0.9129,-0.9309,-0.9478,0.0,0.0,0.0,0.0,0.0,0.0,0.0,0.0,0.0,0.0,0.0,0.0,0.0,0.0,0.0,0.0,-1.3824,-1.3926,-1.3603,-1.3535,-1.3359,-1.3037,-1.3018,-1.2998,-1.2949,0.0,0.0,0.0,0.0,0.0,0.0,0.0,0.0,0.0,0.0,0.0,0.0,0.0,0.0,-0.9762,-0.9061,-0.8824,0.0,0.0,-0.8804,0.0,-0.9084,-0.9183,-0.9269,-0.988,-1.0094,0.0,0.0,0.0,0.0,0.0,-0.9065,0.0,0.0,0.0,0.0,0.0,0.0,0.0,-0.8804,-0.8804,-0.8804,0.0,0.0,0.0,0.0,0.0,0.0,0.0,0.0,0.0,0.0,0.0,0.0,0.0,0.0,0.0,0.0,-0.925,-0.953,-0.9563,-0.9674,-0.9581,-0.9116,-0.7762,-0.7051,-0.7051,-0.6276,-0.5756,-0.5617,-0.5966,-0.6052,-0.5786,-0.613,-0.6429,-0.6531,-0.661,-0.6834,-0.7162,-0.7186,-0.7426,-0.7732,-0.7772,-0.7988,-0.8304,-0.8727,-0.8814,-0.8792,-0.9251,-0.9444,-0.9498,-1.392,0.0,0.0,0.0,0.0,0.0,0.0,0.0,0.0,0.0,0.0,0.0,0.0,0.0,0.0,0.0,-1.3779,-1.374,-1.3941,-1.3691,-1.3623,-1.3877,-1.3887,-1.373,-1.3389,0.0,0.0,0.0,0.0,0.0,0.0,0.0,0.0,0.0,0.0,0.0,0.0,0.0,0.0,-0.9762,-0.9061,0.0,-0.9077,-0.8898,-0.8804,-0.8844,-0.9084,-0.9183,-0.9236,0.0,-0.992,-1.0053,0.0,0.0,0.0,0.0,0.0,0.0,0.0,0.0,0.0,0.0,0.0,0.0,-0.8804,-0.8804,-0.8804,0.0,0.0,0.0,0.0,0.0,0.0,0.0,0.0,0.0,0.0,0.0,0.0,0.0,0.0,0.0,0.0,-0.8441,-0.8366,-0.8639,-0.798,-0.7274,-0.6605,-0.6141,-0.6009,-0.6148,-0.5756,-0.5557,-0.5617,-0.5684,-0.5761,-0.5786,-0.5855,-0.601,-0.6241,-0.6561,-0.6726,-0.6712,-0.7255,-0.7504,-0.7561,-0.7845,-0.8093,-0.8296,-0.8414,-0.8541,-0.8705,-0.8966,-0.9164,-0.9393,-1.3324,0.0,0.0,0.0,0.0,0.0,0.0,0.0,0.0,0.0,0.0,0.0,0.0,0.0,0.0,0.0,0.0,0.0,0.0,0.0,-1.4141,-1.4077,-1.4077,-1.398,-1.3828,-1.3818,0.0,0.0,0.0,0.0,0.0,0.0,0.0,0.0,0.0,0.0,0.0,0.0,-0.9493,-0.9693,-0.9078,0.0,-0.9011,-0.8864,-0.8898,-0.9058,-0.9359,-0.9646,-0.992,-1.0067,-1.0214,0.0,0.0,-1.0,-1.0067,0.0,-0.9679,-0.9555,0.0,0.0,0.0,-0.8844,0.0,0.0,0.0,-0.8804,-0.8804,0.0,0.0,0.0,0.0,0.0,0.0,0.0,0.0,0.0,0.0,0.0,0.0,0.0,0.0,0.0,0.0,-0.7787,-0.7679,-0.8034,-0.7706,-0.7312,-0.6994,-0.6465,-0.6203,-0.6272,-0.5686,-0.5425,-0.5488,-0.5568,-0.5602,-0.5666,-0.5666,-0.5845,-0.6138,-0.6309,-0.6573,-0.681,-0.7219,-0.7407,-0.7508,-0.7866,-0.8069,-0.817,-0.8357,-0.8487,-0.8656,-0.8823,-0.9087,-0.9362,-1.3027,0.0,0.0,0.0,0.0,0.0,0.0,0.0,0.0,0.0,0.0,0.0,0.0,0.0,0.0,0.0,0.0,0.0,0.0,0.0,0.0,-1.4268,-1.4282,-1.4253,-1.4087,-1.4057,-1.3777,0.0,0.0,0.0,0.0,0.0,0.0,0.0,0.0,0.0,0.0,0.0,0.0,-0.9486,0.0,-0.9005,-0.9045,-0.8931,-0.9072,-0.9365,-0.9659,-1.0107,-1.0624,-1.0624,0.0,-1.0521,-1.0281,-1.0367,0.0,0.0,0.0,0.0,0.0,0.0,0.0,0.0,0.0,-0.8804,0.0,0.0,0.0,0.0,0.0,0.0,0.0,0.0,0.0,0.0,0.0,0.0,0.0,0.0,0.0,0.0,0.0,0.0,0.0,-0.7173,-0.6958,-0.7159,-0.7326,-0.7445,-0.7445,-0.6833,-0.6461,-0.6461,-0.5752,-0.5428,-0.5428,-0.5519,-0.5596,-0.5596,-0.5628,-0.584,-0.619,-0.622,-0.6429,-0.6949,-0.7124,-0.7257,-0.7435,-0.7789,-0.793,-0.8048,-0.8381,-0.8536,-0.8652,-0.8786,-0.8965,-0.9262,-1.2929,-1.2978,0.0,0.0,0.0,0.0,0.0,0.0,0.0,0.0,0.0,0.0,0.0,0.0,0.0,0.0,0.0,0.0,-1.5264,0.0,0.0,0.0,-1.5068,-1.4912,-1.4097,-1.383,-1.3421,0.0,0.0,0.0,0.0,0.0,0.0,0.0,-0.9609,0.0,0.0,0.0,-0.9158,0.0,-0.9406,-0.974,0.0,-0.9336,-0.9372,-0.9673,-0.996,-1.0281,-1.0624,0.0,-1.0624,-1.0618,0.0,-1.0598,-1.0611,0.0,0.0,0.0,0.0,0.0,0.0,0.0,-0.8998,0.0,0.0,0.0,0.0,0.0,0.0,0.0,0.0,0.0,0.0,0.0,0.0,0.0,0.0,0.0,0.0,0.0,0.0,0.0,0.0,0.0,-0.5743,-0.5229,-0.5321,-0.5407,-0.5407,-0.548,-0.5557,-0.5557,-0.5425,-0.5428,-0.5428,-0.5562,-0.5631,-0.5634,-0.5688,-0.5894,-0.6118,-0.6441,-0.66,-0.6682,-0.7022,-0.7184,-0.7285,-0.7631,-0.7851,-0.8032,-0.8239,-0.8422,-0.8636,-0.8635,-0.8763,-0.8999,-1.2881,-1.2881,0.0,0.0,0.0,0.0,0.0,0.0,0.0,0.0,0.0,0.0,0.0,0.0,0.0,0.0,0.0,-1.3403,0.0,0.0,0.0,0.0,0.0,0.0,-1.4184,-1.4467,-1.4183,-1.3327,-1.2575,0.0,0.0,0.0,0.0,0.0,-0.9219,0.0,-0.9232,0.0,0.0,0.0,0.0,0.0,0.0,-0.9719,-0.9679,-0.9973,-1.0267,-1.0454,-1.0624,0.0,-1.0624,0.0,0.0,0.0,0.0,0.0,0.0,0.0,0.0,0.0,0.0,0.0,0.0,0.0,-0.8844,0.0,-0.8804,0.0,0.0,0.0,0.0,0.0,0.0,0.0,0.0,0.0,0.0,0.0,0.0,0.0,0.0,0.0,0.0,0.0,0.0,0.0,0.0,-0.5131,-0.5131,-0.5277,-0.5428,-0.5428,-0.5428,-0.5428,-0.5428,-0.5511,-0.5589,-0.5593,-0.5735,-0.5946,-0.6312,-0.6401,-0.6548,-0.6782,-0.7106,-0.7184,-0.72,-0.7605,-0.7845,-0.8012,-0.7992,-0.8223,-0.8544,-0.8443,-0.8664,-0.8911,-1.2881,0.0,0.0,0.0,0.0,0.0,0.0,0.0,0.0,0.0,0.0,0.0,-1.4337,-1.3447,0.0,0.0,-1.2464,-1.2448,0.0,0.0,-1.3309,0.0,0.0,0.0,0.0,-1.4146,-1.4001,-1.3141,-1.2384,0.0,0.0,0.0,0.0,0.0,0.0,-0.9059,-0.9212,0.0,0.0,-0.9599,-1.006,-1.0367,-1.0577,-1.0087,-1.0,-1.0154,-1.0454,-1.0624,-1.0624,-1.0624,-1.0624,0.0,-1.0624,0.0,0.0,0.0,0.0,0.0,-1.0294,0.0,0.0,0.0,0.0,0.0,0.0,0.0,0.0,0.0,0.0,0.0,0.0,0.0,0.0,0.0,0.0,0.0,0.0,0.0,0.0,0.0,0.0,0.0,0.0,0.0,0.0,-0.4908,-0.5022,-0.5074,-0.5074,-0.5257,-0.5428,-0.5428,-0.547,-0.5423,-0.5423,-0.5572,-0.5647,-0.565,-0.5864,-0.6078,-0.6375,-0.6463,-0.6611,-0.6918,-0.7049,-0.7208,-0.7262,-0.7597,-0.7935,-0.8077,-0.7951,-0.8178,-0.854,-0.83,-0.8447,-0.8832,-1.2881,-1.2881,0.0,0.0,0.0,0.0,0.0,0.0,0.0,0.0,0.0,0.0,0.0,0.0,0.0,0.0,0.0,-1.1229,-1.2117,0.0,-1.1872,0.0,0.0,-1.273,0.0,0.0,-1.1888,-1.1873,-1.1031,-1.0674,0.0,0.0,0.0,0.0,0.0,-0.9695,-1.025,-1.0444,-1.0027,-0.9269,-1.0194,-1.0618,-1.0618,0.0,-1.0361,-1.0154,-1.0454,0.0,0.0,-1.0624,-1.0624,0.0,0.0,0.0,0.0,0.0,0.0,0.0,0.0,0.0,0.0,-1.0094,0.0,0.0,0.0,0.0,-0.9492,0.0,0.0,0.0,0.0,0.0,0.0,0.0,0.0,0.0,0.0,0.0,0.0,0.0,0.0,0.0,0.0,0.0,0.0,-0.5496,-0.5097,-0.4925,-0.4925,-0.5203,-0.5428,-0.5428,-0.5504,-0.5583,-0.5583,-0.5725,-0.5793,-0.5796,-0.6092,-0.6311,-0.6318,-0.6703,-0.6853,-0.6934,-0.6938,-0.711,-0.743,-0.7609,-0.7951,-0.828,-0.8276,-0.8394,-0.8524,-0.8154,-0.8256,-0.8681,0.0,0.0,0.0,0.0,0.0,0.0,0.0,-1.4326,0.0,0.0,0.0,0.0,0.0,-1.1759,-1.1243,0.0,0.0,-1.0622,-1.1246,-1.1448,0.0,0.0,0.0,-1.2696,0.0,0.0,-1.2437,-1.2086,-1.1633,-1.1406,0.0,0.0,0.0,0.0,0.0,-0.9566,0.0,0.0,0.0,0.0,0.0,-1.0739,-1.0828,0.0,0.0,-1.0421,-1.0584,-1.0624,0.0,-1.0624,-1.0624,-1.0624,-1.0624,-1.0624,-1.0491,-0.9913,-1.0238,0.0,0.0,0.0,-1.034,-0.8765,0.0,0.0,0.0,0.0,0.0,0.0,0.0,0.0,0.0,0.0,0.0,0.0,0.0,0.0,0.0,0.0,0.0,0.0,0.0,0.0,0.0,0.0,0.0,-0.4842,-0.4862,-0.4918,0.0,-0.5199,-0.5428,-0.5428,-0.5511,-0.5589,-0.5589,-0.583,-0.6026,-0.6169,-0.6256,-0.6405,-0.6703,-0.6689,-0.6788,-0.6945,-0.7133,-0.7292,-0.7437,-0.7776,-0.8038,-0.8276,-0.8154,-0.8296,-0.8536,-0.8288,-0.8353,-0.8576,-1.3076,0.0,0.0,0.0,0.0,0.0,0.0,0.0,0.0,0.0,-1.2545,0.0,-1.179,0.0,-1.0624,0.0,-1.0194,-1.0109,-1.0473,-1.0696,0.0,-1.0769,-1.1662,0.0,0.0,0.0,0.0,-1.1646,-1.1445,-1.1344,0.0,0.0,0.0,0.0,0.0,0.0,0.0,0.0,-1.0047,0.0,0.0,-1.0735,0.0,0.0,-1.0715,-1.0715,0.0,-1.0712,-1.0638,-1.0681,-1.0712,-1.0624,-1.0624,-1.0624,-1.0491,-0.9919,-1.0039,-1.0139,-0.8787,-0.9185,0.0,-0.8069,-0.8122,0.0,-0.7339,0.0,0.0,0.0,0.0,0.0,0.0,0.0,0.0,0.0,0.0,0.0,0.0,-0.5987,0.0,0.0,0.0,0.0,0.0,0.0,-0.4864,-0.4983,-0.4952,-0.4942,0.0,0.0,-0.5428,-0.5428,-0.5559,-0.5664,-0.5664,-0.5962,-0.6187,-0.6335,-0.6364,-0.6563,-0.6791,-0.6714,-0.6791,-0.7026,-0.7215,-0.7406,-0.7608,-0.7885,-0.8162,-0.8377,-0.8256,-0.8357,-0.8544,-0.8357,-0.8487,-0.8747,0.0,0.0,0.0,0.0,-1.4248,0.0,0.0,0.0,-1.3606,0.0,-1.1985,-1.1855,-1.1034,-1.0728,-1.0624,-1.0624,-1.0107,0.0,-0.9706,-0.9973,0.0,0.0,-1.0315,-1.0434,-1.0167,0.0,0.0,0.0,0.0,0.0,0.0,0.0,0.0,0.0,-1.0267,0.0,-0.9733,-1.0376,-1.0302,-0.9773,-1.0396,-1.0735,-1.0995,-1.0995,-1.1002,-1.1015,-1.1015,-1.0822,-1.0665,-1.0895,-1.0802,-1.0624,-1.0624,-1.0624,-1.0561,-1.0561,-0.9989,-0.9356,-0.921,-0.8624,-0.8037,-0.7902,0.0,0.0,0.0,0.0,-0.7761,0.0,0.0,0.0,0.0,0.0,0.0,0.0,0.0,0.0,0.0,0.0,0.0,0.0,0.0,0.0,0.0,-0.5882,-0.552,-0.576,-0.5244,0.0,0.0,0.0,-0.5422,-0.5428,-0.5647,-0.58,-0.58,-0.6108,-0.6338,-0.6338,-0.6486,-0.6563,-0.6637,-0.6788,-0.7022,-0.7184,-0.7192,-0.7541,-0.8012,-0.8024,-0.8239,-0.8568,-0.8568,-0.8568,-0.8548,-0.8369,-0.8629,-0.9047,-1.3955,-1.4238,-1.4463,0.0,-1.4639,-1.4706,0.0,0.0,0.0,0.0,-1.144,-1.0917,-1.0739,-1.0665,-1.0624,-1.0624,-1.0483,0.0,0.0,0.0,0.0,-1.002,-1.0361,-1.0621,-1.0768,-1.0635,0.0,-1.0882,0.0,0.0,-1.0624,0.0,0.0,0.0,0.0,0.0,-0.9927,-1.0436,-1.0537,-1.0409,-1.0564,-1.0735,0.0,0.0,-1.1129,-1.1316,-1.1316,-1.0989,-1.0665,-1.0895,-1.0802,-1.0624,-1.0624,-1.0624,-1.0498,-0.9849,-1.0058,-1.0099,-0.7937,-0.828,-0.8771,-0.6634,-0.6531,-0.6802,0.0,0.0,0.0,0.0,0.0,0.0,0.0,0.0,0.0,0.0,0.0,0.0,0.0,0.0,0.0,0.0,0.0,0.0,-0.5073,-0.4956,-0.493,-0.4973,-0.4949,0.0,0.0,0.0,0.0,-0.5425,-0.5647,-0.58,-0.58,-0.6108,-0.6412,-0.6486,-0.6412,-0.6563,-0.6788,-0.6865,-0.7022,-0.7188,-0.7552,-0.7813,-0.8024,-0.8162,-0.8357,-0.8568,-0.8568,-0.8568,-0.856,-0.8515,-0.8584,-0.8714,-1.4385,0.0,0.0,-1.4742,0.0,0.0,-1.4048,0.0,0.0,-1.1747,-1.1166,0.0,-1.0748,-1.0698,-1.0624,-1.0624,-1.0624,0.0,-1.0321,0.0,0.0,-1.0314,-1.0474,-1.0698,-1.0802,-1.0705,0.0,-1.0808,0.0,0.0,-1.0624,0.0,0.0,0.0,0.0,-1.0367,0.0,-1.0274,-1.0441,-1.0631,-1.0759,0.0,0.0,-1.1329,-1.1476,-1.1637,-1.1764,-1.1436,-1.0962,-1.1129,-1.0989,-1.0728,-1.0665,-1.0712,-1.0684,-1.016,-1.0202,-1.0085,-0.8469,-0.8459,-0.8475,-0.6526,-0.639,-0.6453,-0.5529,-0.56,-0.5868,0.0,0.0,0.0,0.0,0.0,0.0,0.0,0.0,0.0,0.0,0.0,0.0,0.0,-0.4792,0.0,-0.467,-0.468,-0.4691,-0.4691,0.0,0.0,0.0,0.0,0.0,-0.5422,-0.5647,-0.58,-0.58,-0.6108,-0.6338,-0.6486,-0.6335,-0.649,-0.6788,-0.6865,-0.7061,-0.7293,-0.7632,-0.7902,-0.8142,-0.8247,-0.8398,-0.8568,-0.8568,-0.8568,-0.8568,-0.8568,-0.8613,-0.8702,0.0,0.0,0.0,0.0,0.0,0.0,0.0,-1.269,0.0,-1.1154,0.0,-1.0935,-1.0935,-1.0715,-1.0624,-1.0624,0.0,-1.0624,-1.0624,-1.0624,-1.0624,-1.0624,-1.0624,-1.0624,-1.0624,-1.0624,0.0,0.0,0.0,0.0,0.0,0.0,0.0,0.0,0.0,0.0,0.0,-1.0174,-1.0347,0.0,-1.0895,-1.1169,-1.1456,-1.1757,-1.187,-1.1911,-1.2198,-1.1897,-1.1376,-1.141,-1.1209,-1.0902,-1.0681,-1.0788,-1.0995,-1.0995,-1.0479,-0.9898,-0.9728,-0.8975,-0.8093,-0.7342,-0.6983,-0.6639,-0.5996,-0.5651,-0.542,-0.542,-0.6058,-0.656,0.0,0.0,0.0,0.0,0.0,0.0,0.0,0.0,0.0,0.0,0.0,0.0,0.0,-0.4816,-0.4748,0.0,0.0,0.0,0.0,0.0,0.0,-0.5386,-0.5657,-0.581,-0.583,0.0,-0.6338,-0.6338,-0.6338,-0.6412,-0.6637,-0.6788,-0.7099,-0.7395,-0.764,-0.7927,-0.8256,-0.8256,-0.8377,-0.8568,-0.8568,-0.8568,-0.8568,-0.8568,-0.8674,-0.8754,0.0,0.0,0.0,0.0,0.0,-1.3999,-1.2572,-1.2104,-1.1716,-1.1093,-1.0782,-1.0698,-1.0698,-1.0651,-1.0624,-1.0624,-1.0624,0.0,0.0,0.0,0.0,-1.0624,-1.0624,-1.0624,-1.0624,-1.0624,-1.0624,0.0,0.0,0.0,0.0,0.0,0.0,0.0,0.0,0.0,-1.0481,-1.0481,0.0,-1.0922,-1.0969,-1.1169,-1.1456,-1.1757,-1.187,-1.1911,-1.2198,-1.177,-1.1102,-1.1349,-1.1069,-1.0668,-1.0855,-1.0955,-1.0995,-1.0995,-1.1028,-1.0882,-0.9977,-0.9705,-0.9559,-0.8687,-0.7832,-0.7189,-0.7016,-0.6373,-0.5725,-0.5725,-0.5769,-0.6017,-0.6755,0.0,0.0,0.0,0.0,0.0,0.0,0.0,0.0,0.0,0.0,0.0,0.0,0.0,0.0,0.0,0.0,0.0,0.0,0.0,0.0,0.0,-0.5715,0.0,0.0,0.0,-0.6338,-0.6338,-0.6338,-0.649,-0.6865,-0.6865,-0.7111,-0.7451,-0.7533,-0.7732,-0.8061,-0.8061,-0.826,-0.8568,-0.8568,-0.8568,-0.8568,-0.8568,-0.8585,-0.8485,0.0,0.0,0.0,0.0,0.0,0.0,0.0,-1.1789,0.0,-1.1021,-1.1002,-1.0955,-1.0802,-1.0782,-1.0722,-1.0638,-1.0624,-1.0624,-1.0624,-1.0624,-1.0624,-1.0624,-1.0624,0.0,-1.0624,-1.0624,-1.0698,-1.0782,0.0,0.0,0.0,0.0,0.0,0.0,0.0,-1.0624,0.0,0.0,0.0,-1.1022,-1.1323,-1.153,-1.169,-1.1984,-1.2091,-1.2111,-1.2251,-1.1937,-1.147,-1.161,-1.1369,-1.1035,-1.1176,-1.1216,-1.1243,-1.1403,-1.155,-1.1554,-1.0994,-1.0811,-1.0622,-0.9825,-0.8771,-0.7877,-0.7479,-0.6569,-0.58,-0.58,-0.5688,-0.57,-0.6082,-0.6131,0.0,0.0,0.0,0.0,0.0,0.0,0.0,0.0,0.0,0.0,0.0,0.0,0.0,0.0,0.0,0.0,0.0,0.0,0.0,0.0,0.0,0.0,0.0,0.0,0.0,-0.6338,-0.6338,-0.649,-0.6714,-0.6865,-0.7064,-0.7462,-0.7622,-0.7772,-0.802,-0.8117,-0.8321,-0.8568,-0.8568,-0.8568,-0.8576,-0.8492,-0.845,-0.8325,0.0,-1.6741,0.0,0.0,-1.4669,0.0,-1.296,-1.1751,-1.092,-1.0895,-1.1102,-1.1176,-1.1009,-1.0995,-1.0902,-1.0675,-1.0719,-1.0692,-1.0624,-1.0624,-1.0624,-1.0624,-1.0624,-1.0624,-1.0624,-1.0624,-1.0675,0.0,0.0,0.0,0.0,0.0,0.0,0.0,0.0,0.0,0.0,0.0,-1.1029,-1.1129,-1.1657,-1.1904,-1.1984,-1.2218,-1.2305,-1.2305,-1.2305,-1.2118,-1.1877,-1.1944,-1.1724,-1.1436,-1.1496,-1.1523,-1.1563,-1.1797,-1.1911,-1.1951,-1.1891,-1.1744,-1.1453,-1.0947,-0.9763,-0.86,-0.8038,-0.683,-0.5861,-0.5891,-0.5759,-0.5579,-0.5463,-0.5456,0.0,0.0,0.0,0.0,0.0,0.0,0.0,0.0,0.0,0.0,0.0,0.0,0.0,0.0,0.0,0.0,0.0,0.0,0.0,0.0,0.0,-0.5874,-0.6027,0.0,-0.6338,-0.6338,-0.6338,-0.643,-0.6613,-0.6806,-0.7032,-0.7346,-0.7593,-0.7797,-0.8002,-0.8272,-0.8434,-0.8568,-0.8568,-0.8589,-0.8637,-0.8501,-0.8406,-0.8393,0.0,0.0,0.0,0.0,0.0,0.0,0.0,-1.2158,-1.147,-1.0766,-1.0692,-1.0728,-1.0969,-1.0995,-1.0982,-1.0955,-1.0955,-1.0842,-1.0645,-1.0624,-1.0624,-1.0624,-1.0624,-1.0624,-1.0624,-1.0624,-1.0638,0.0,0.0,0.0,0.0,0.0,0.0,0.0,0.0,0.0,0.0,-1.0868,-1.1142,-1.141,-1.1737,-1.2031,-1.2265,-1.2291,-1.2305,-1.2305,-1.2305,-1.2118,-1.1911,-1.2171,-1.1891,-1.147,-1.1744,-1.183,-1.183,-1.1864,-1.2058,-1.2204,-1.1944,-1.2044,-1.2225,-1.2104,-1.0668,-0.9241,-0.911,-0.7534,-0.6047,-0.619,-0.5986,-0.5694,-0.5413,-0.5474,-0.5528,0.0,0.0,0.0,0.0,0.0,0.0,0.0,0.0,0.0,0.0,0.0,0.0,0.0,0.0,0.0,0.0,0.0,0.0,-0.5586,0.0,-0.5874,-0.6027,-0.6183,-0.6338,-0.6338,-0.6338,-0.6489,-0.6773,-0.6705,-0.6802,-0.7114,-0.7194,-0.7461,-0.794,-0.838,-0.8552,-0.8568,-0.8568,-0.8662,-0.8709,-0.8454,-0.8482,-0.8568,0.0,0.0,0.0,0.0,0.0,0.0,0.0,-1.3074,-1.2154,-1.1189,-1.1236,-1.1323,-1.1263,-1.1249,-1.1182,-1.1009,-1.0835,-1.0681,-1.0631,-1.0624,-1.0624,-1.0624,-1.0624,-1.0705,-1.0815,-1.0648,-1.0728,0.0,0.0,0.0,0.0,0.0,0.0,0.0,0.0,-1.1082,-1.1096,-1.1396,-1.159,-1.1717,-1.2011,-1.2198,-1.2305,-1.2305,-1.2191,-1.2064,-1.2238,-1.2118,-1.1911,-1.2204,-1.1911,-1.151,-1.1977,-1.1891,-1.167,-1.2024,-1.2091,-1.2051,-1.2118,-1.2218,-1.215,-1.1545,-1.0346,-0.9145,-0.8542,-0.7187,-0.6074,-0.623,-0.6017,-0.5739,-0.5535,-0.5474,-0.5491,0.0,0.0,0.0,0.0,0.0,0.0,0.0,0.0,0.0,0.0,0.0,0.0,0.0,0.0,0.0,0.0,0.0,0.0,-0.5711,0.0,-0.6013,-0.6166,-0.623,-0.6338,-0.6264,-0.6346,-0.6579,-0.6802,-0.6827,-0.7035,-0.7508,-0.7585,-0.7804,-0.8126,-0.8373,-0.8467,-0.8576,-0.8678,-0.8669,-0.8576,-0.8505,-0.8478,-0.8319,-1.7949,0.0,-1.6886,0.0,-1.5996,-1.4604,-1.4635,-1.3546,-1.2443,-1.1753,-1.1864,-1.1884,-1.159,-1.1476,-1.1343,-1.1136,-1.0855,-1.0648,-1.0631,-1.0624,-1.0624,-1.0624,-1.0624,0.0,-1.0862,-1.0732,-1.0762,-1.1169,-1.1136,0.0,0.0,0.0,0.0,0.0,-1.1423,-1.1423,-1.1443,-1.1744,-1.187,-1.1897,-1.2184,-1.2305,-1.2305,-1.2305,-1.2178,-1.2024,-1.2231,-1.2118,-1.1911,-1.2204,-1.1971,-1.1643,-1.2144,-1.2017,-1.1764,-1.2178,-1.2158,-1.2044,-1.2245,-1.2305,-1.207,-1.1087,-0.9985,-0.899,-0.7995,-0.6847,-0.5993,-0.6105,-0.5989,-0.5813,-0.5627,-0.5501,-0.5484,-0.5644,0.0,0.0,0.0,0.0,0.0,0.0,-0.543,-0.541,-0.5432,0.0,0.0,0.0,0.0,0.0,0.0,0.0,0.0,0.0,0.0,0.0,0.0,-0.6237,-0.6359,-0.6482,-0.6507,-0.6764,-0.7019,-0.7127,-0.7431,-0.7852,-0.8014,-0.8199,-0.8369,-0.8508,-0.8611,-0.8746,-0.8832,-0.8842,-0.8641,-0.86,-0.843,-0.8192,-1.8008,-1.7207,-1.6793,-1.7319,-1.5636,-1.4269,-1.447,-1.3228,-1.2291,-1.2291,-1.2291,-1.2184,-1.1897,-1.1603,-1.1423,-1.1423,-1.1156,-1.0868,-1.0645,-1.0624,-1.0624,0.0,0.0,-1.0624,-1.0624,-1.0624,-1.0624,-1.0631,0.0,0.0,-1.1002,0.0,-1.1423,-1.1423,-1.1423,-1.1423,-1.1443,-1.1744,-1.187,-1.1897,-1.2184,-1.2305,-1.2305,-1.2305,-1.2298,-1.2298,-1.2305,-1.2118,-1.1911,-1.2204,-1.2104,-1.1917,-1.2204,-1.2298,-1.2291,-1.2298,-1.2298,-1.2298,-1.2305,-1.2305,-1.207,-1.1087,-0.9933,-0.8876,-0.7964,-0.6756,-0.5803,-0.5806,-0.5925,-0.5939,-0.5644,-0.5589,-0.5538,-0.5459,0.0,0.0,0.0,0.0,0.0,0.0,-0.5586,-0.5528,-0.5442,0.0,0.0,0.0,0.0,0.0,0.0,0.0,0.0,-0.5796,-0.5949,0.0,-0.6034,-0.6183,-0.6492,-0.6798,-0.6802,-0.704,-0.7595,-0.7595,-0.7854,-0.8288,-0.8284,-0.8385,-0.8648,-0.9003,-0.9173,-0.9194,-0.9116,-0.9198,-0.9348,-0.8779,-0.8496,-0.8333,-1.8008,-1.7079,-1.6618,-1.762,-1.6504,-1.5413,-1.5006,-1.4593,-1.381,-1.2445,-1.2305,-1.2265,-1.2178,-1.1724,-1.1423,0.0,-1.0982,-1.0742,0.0,-1.0855,-1.0855,-1.0855,-1.1042,-1.1056,-1.0862,-1.1049,-1.1056,-1.0855,0.0,0.0,0.0,-1.1977,-1.2024,-1.2024,-1.2024,-1.2024,-1.2031,-1.2124,-1.2164,-1.2171,-1.2265,-1.2305,-1.2278,-1.2084,-1.1884,-1.1703,-1.1703,-1.1516,-1.1316,-1.1603,-1.1643,-1.1617,-1.1917,-1.2004,-1.2044,-1.2245,-1.2164,-1.19,-1.1415,-1.1316,-1.0864,-0.921,-0.8379,-0.7764,-0.6984,-0.6412,-0.6057,-0.5844,-0.584,-0.5817,-0.5627,-0.5504,-0.5454,-0.5508,-0.5559,0.0,0.0,0.0,0.0,0.0,-0.5528,-0.5532,0.0,-0.5586,0.0,0.0,0.0,0.0,0.0,0.0,0.0,0.0,-0.6105,0.0,-0.6186,-0.6237,-0.641,-0.6638,-0.6905,-0.7286,-0.7774,-0.7945,-0.8185,-0.8472,-0.8444,-0.8649,-0.8917,-0.8939,-0.8889,-0.883,-0.9013,-0.8833,-0.8605,-0.8517,-0.8294,-0.8137,-1.8008,-1.7373,-1.7079,-1.7872,-1.7364,-1.6446,-1.5376,-1.4593,-1.3665,-1.2445,-1.2305,-1.2305,-1.2305,-1.1971,0.0,-1.1443,-1.1096,-1.0915,-1.0989,-1.1096,-1.1156,-1.1156,-1.1329,-1.1336,-1.1156,0.0,0.0,-1.1156,-1.1637,-1.2017,-1.2305,-1.2305,-1.2305,-1.2305,-1.2305,-1.2305,-1.2305,-1.2305,-1.2305,-1.2305,-1.2305,-1.2305,-1.2285,-1.2098,-1.185,-1.159,-1.159,-1.1403,-1.1182,-1.1363,-1.1423,-1.1456,-1.1643,-1.1784,-1.1924,-1.2218,-1.1952,-1.1458,-1.0857,-1.0495,-0.9876,-0.8026,-0.75,-0.7105,-0.6205,-0.6051,-0.6034,-0.584,-0.58,-0.5755,-0.5616,-0.5511,-0.546,-0.5498,-0.5552,-0.5569,-0.5511,0.0,0.0,0.0,0.0,0.0,0.0,-0.5715,-0.581,0.0,0.0,0.0,0.0,0.0,0.0,-0.6115,-0.621,0.0,-0.6338,-0.6338,-0.6441,-0.6722,-0.7246,-0.7744,-0.8213,-0.8364,-0.8635,-0.9013,-0.8902,-0.898,-0.9185,-0.9039,-0.8991,-0.8918,-0.8902,-0.868,-0.8402,-0.8396,-0.8233,-0.8038,-1.8008,-1.8008,0.0,0.0,-1.8008,0.0,-1.5587,-1.373,-1.2512,-1.2445,-1.2358,-1.2352,-1.2298,-1.2285,-1.2051,-1.1503,0.0,0.0,0.0,-1.1309,-1.1456,-1.1456,-1.1476,-1.1463,-1.1423,-1.1182,-1.1182,-1.1456,-1.171,-1.1997,-1.2305,-1.2305,-1.2305,-1.2305,-1.2305,-1.2305,-1.2305,-1.2305,-1.2305,-1.2305,-1.2305,-1.2305,-1.2298,-1.2258,-1.2071,-1.183,-1.179,-1.1603,-1.1363,-1.1363,-1.1363,-1.1369,-1.139,-1.1597,-1.1897,-1.2184,-1.1694,-1.0977,-1.0634,-0.9902,-0.8969,-0.7539,-0.7085,-0.6761,-0.5797,-0.5698,-0.58,-0.58,-0.5793,-0.5745,-0.5613,-0.5583,-0.5528,-0.5452,-0.5481,-0.5525,-0.5449,0.0,0.0,0.0,0.0,0.0,0.0,-0.5871,-0.6037,0.0,0.0,0.0,0.0,0.0,-0.6122,-0.6257,-0.6349,-0.6271,-0.6338,-0.6281,-0.6593,-0.713,-0.7782,-0.8284,-0.8737,-0.8721,-0.9088,-0.9762,-0.9469,-0.9384,-0.9422,-0.9382,-0.936,-0.9292,-0.8962,-0.8726,-0.8726,-0.8432,-0.8237,-0.8038,0.0,0.0,-1.8008,-1.8008,-1.8008,-1.7579,-1.6428,-1.5852,-1.5076,-1.3528,-1.3179,-1.2835,-1.2352,-1.2104,-1.1917,-1.1777,-1.1557,-1.149,-1.165,-1.1724,-1.1764,-1.1764,-1.1977,-1.1884,-1.1436,-1.1583,-1.1697,-1.1764,-1.1603,-1.1797,-1.2305,-1.2305,-1.2305,-1.2305,-1.2305,-1.2305,-1.2305,-1.2305,-1.2305,-1.2305,-1.2305,-1.2305,-1.2251,-1.1804,-1.159,-1.147,-1.1029,-1.0893,-1.0768,-1.0768,-1.0768,-1.0808,-1.1022,-1.1296,-1.159,-1.1884,-1.1455,-1.0662,-0.9818,-0.8807,-0.7668,-0.663,-0.6272,-0.6001,-0.5682,-0.5698,-0.58,-0.58,-0.5715,-0.563,-0.5596,-0.5494,-0.5403,-0.5432,-0.5459,-0.5403,-0.5432,-0.5494,0.0,0.0,-0.5796,-0.5918,-0.5766,-0.6027,-0.6108,0.0,0.0,0.0,0.0,-0.6264,-0.6335,-0.6342,-0.6366,-0.6369,-0.6264,-0.6485,-0.6854,-0.73,-0.7652,-0.8098,-0.856,-0.8633,-0.8969,-0.9473,-0.9524,-0.9531,-0.9591,-0.9393,-0.9239,-0.8871,-0.8612,-0.8333,-0.8134,-0.8137,-0.8038,-0.8038,-1.8008,-1.8008,-1.8008,-1.8008,-1.8008,-1.7647,-1.6706,-1.6498,-1.5728,-1.3954,-1.3237,-1.2697,-1.2358,-1.2164,-1.2064,-1.2064,-1.1917,-1.1837,-1.187,-1.1991,-1.2064,-1.2064,-1.2218,-1.2151,-1.1837,-1.1928,-1.2013,-1.2013,-1.1915,-1.1991,-1.2305,-1.2305,-1.2305,-1.2305,-1.2305,-1.2305,-1.2305,-1.2305,-1.2305,-1.2291,-1.2158,-1.2184,-1.2238,-1.165,-1.151,-1.155,-1.0969,-1.0755,-1.0735,-1.0665,-1.0624,-1.0651,-1.0742,-1.0995,-1.1283,-1.1583,-1.1,-1.0121,-0.9371,-0.8093,-0.673,-0.6012,-0.5827,-0.5783,-0.5705,-0.5745,-0.58,-0.58,-0.5688,-0.5589,-0.5589,-0.5464,-0.5428,-0.5428,-0.5428,-0.5428,-0.5428,-0.5494,0.0,-0.5589,-0.585,-0.5996,-0.5915,-0.6122,-0.6193,-0.6023,-0.6227,0.0,-0.6237,-0.6451,-0.6508,-0.6363,-0.6502,-0.6539,-0.6464,-0.6756,-0.7028,-0.7201,-0.7576,-0.7944,-0.8333,-0.8585,-0.8995,-0.9474,-0.9573,-0.9546,-0.962,-0.9221,-0.8943,-0.8627,-0.8333,-0.8137,-0.8038,-0.8038,-0.8038,-0.8038,-1.8008,-1.8008,-1.8008,-1.8008,-1.8008,-1.7725,-1.6922,-1.6576,-1.5877,-1.4314,-1.3266,-1.2611,-1.2512,-1.2338,-1.2258,-1.2298,-1.2305,-1.2198,-1.1951,-1.2164,-1.2305,-1.2305,-1.2305,-1.2305,-1.2305,-1.2233,-1.2226,-1.2226,-1.2263,-1.2258,-1.2305,-1.2305,-1.2305,-1.2305,-1.2305,-1.2305,-1.2305,-1.2305,-1.2305,-1.2278,-1.1984,-1.2017,-1.2171,-1.1583,-1.1543,-1.1724,-1.1136,-1.0982,-1.1009,-1.0675,-1.0678,-1.0681,-1.0641,-1.0855,-1.1176,-1.1423,-1.0673,-0.9652,-0.9232,-0.7692,-0.611,-0.5762,-0.5711,-0.58,-0.58,-0.58,-0.581,-0.583,-0.5722,-0.563,-0.565,-0.5515,-0.5396,-0.5396,-0.5442,-0.5428,-0.5428,0.0,-0.5623,-0.5623,-0.5884,-0.6064,-0.6064,-0.6183,-0.6271,-0.6291,-0.6403,-0.6481,-0.6505,-0.6651,-0.6675,-0.6546,-0.6668,-0.6756,-0.68,-0.7027,-0.7163,-0.7214,-0.7617,-0.7911,-0.8215,-0.8656,-0.9027,-0.9529,-0.9628,-0.9628,-0.9529,-0.9027,-0.863,-0.8333,-0.8137,-0.8038,-0.8038,-0.8038,-0.8038,-0.8038,-1.8008,-1.8008,-1.8008,-1.8008,-1.8008,-1.794,-1.7794,-1.7725,-1.7364,-1.6289,-1.5099,-1.412,-1.3571,-1.2583,-1.2037,-1.2278,-1.2305,-1.2285,-1.2238,-1.2278,-1.2305,-1.2305,-1.2305,-1.2378,-1.2526,-1.2312,-1.2226,-1.2226,-1.206,-1.2058,-1.2305,-1.2305,-1.2305,-1.2305,-1.2305,-1.2305,-1.2305,-1.2305,-1.2305,-1.2278,-1.1984,-1.1897,-1.187,-1.1283,-1.1243,-1.1423,-1.0835,-1.0942,-1.1276,-1.0742,-1.0882,-1.1249,-1.1002,-1.1296,-1.1744,-1.179,-1.1249,-1.0401,-0.9491,-0.7749,-0.6133,-0.6061,-0.5933,-0.58,-0.58,-0.58,-0.5837,-0.5969,-0.5874,-0.581,-0.5939,-0.5739,-0.5555,-0.5555,-0.5447,-0.5428,-0.5428,0.0,-0.5769,-0.5769,-0.6037,-0.6224,-0.6224,-0.6247,-0.6312,-0.643,-0.6461,-0.6529,-0.6658,-0.681,-0.6881,-0.6858,-0.6881,-0.7014,-0.7265,-0.7183,-0.7272,-0.7529,-0.7723,-0.7911,-0.8215,-0.8656,-0.8928,-0.9335,-0.9723,-0.9727,-0.9236,-0.9133,-0.8832,-0.8333,-0.8137,-0.8038,-0.8038,-0.8038,-0.8038,-0.8038,-1.8008,-1.7256,-1.6611,-1.6611,-1.7383,-1.8008,-1.8008,-1.8008,-1.7647,-1.6706,-1.606,-1.5384,-1.4577,-1.3682,-1.3158,-1.3084,-1.2586,-1.2305,-1.2305,-1.2305,-1.2305,-1.2305,-1.2378,-1.2599,-1.29,-1.2615,-1.2466,-1.2618,-1.2249,-1.2171,-1.2305,-1.2305,-1.2305,-1.2305,-1.2378,-1.2452,-1.2452,-1.2452,-1.2452,-1.2412,-1.1881,-1.1817,-1.2017,-1.1276,-1.1369,-1.1804,-1.1062,-1.1169,-1.1577,-1.0989,-1.1076,-1.1403,-1.1269,-1.1416,-1.1663,-1.1824,-1.1066,-0.988,-0.8739,-0.7505,-0.6511,-0.6291,-0.6279,-0.6414,-0.6414,-0.6414,-0.636,-0.6363,-0.6176,-0.6089,-0.6017,-0.585,-0.5705,-0.5705,-0.5644,0.0,0.0,-0.5786,-0.5925,-0.5925,-0.6122,-0.6338,-0.649,-0.6407,-0.6482,-0.6631,-0.6709,-0.6749,-0.682,-0.6963,-0.7082,-0.7163,-0.7166,-0.7193,-0.7248,-0.7417,-0.7533,-0.7604,-0.7828,-0.7936,-0.814,-0.84,-0.873,-0.9031,-0.9225,-0.9225,-0.8928,-0.8832,-0.8535,-0.8137,-0.8038,-0.8038,-0.8038,-0.8038,-0.8038,-0.8038,-1.8008,-1.6611,-1.5537,-1.5937,-1.6787,-1.7539,-1.7949,-1.8008,-1.7725,-1.7001,-1.6706,-1.6358,-1.5587,-1.4673,-1.4034,-1.3818,-1.2959,-1.2378,-1.2305,-1.2378,-1.2378,-1.2378,-1.2599,-1.29,-1.3193,-1.29,-1.2826,-1.29,-1.2526,-1.2378,-1.2378,-1.2298,-1.2378,-1.2452,-1.2526,-1.2599,-1.2673,-1.2599,-1.2599,-1.2551,-1.1807,-1.1797,-1.2124,-1.1376,-1.1557,-1.2104,-1.1363,-1.147,-1.1877,-1.1289,-1.1329,-1.1617,-1.155,-1.1577,-1.1677,-1.1904,-1.1021,-0.9656,-0.8413,-0.7642,-0.7049,-0.66,-0.6695,-0.6865,-0.6865,-0.6865,-0.6865,-0.6641,-0.6464,-0.6303,-0.6081,-0.5959,-0.5854,-0.5854,0.0,0.0,0.0,-0.5932,-0.6044,-0.6078,-0.6217,-0.6478,-0.6667,-0.6697,-0.6701,-0.6909,-0.6965,-0.6956,-0.7027,-0.7136,-0.7265,-0.7417,-0.7424,-0.7366,-0.7248,-0.7621,-0.7773,-0.7706,-0.7933,-0.8038,-0.8038,-0.8233,-0.8531,-0.8726,-0.8726,-0.8748,-0.8785,-0.8589,-0.8289,-0.8092,-0.8092,-0.8072,-0.8038,-0.8038,-0.8038,-0.8038,-1.8008,-1.6611,-1.5918,-1.7539,-1.6592,-1.6143,-1.7764,-1.8008,-1.8008,-1.794,-1.7139,-1.6576,-1.6524,-1.5037,-1.4042,-1.4178,-1.3258,-1.2606,-1.2305,-1.2532,-1.2606,-1.2599,-1.2973,-1.3193,-1.32,-1.3193,-1.3046,-1.29,-1.2673,-1.2599,-1.2599,-1.2378,-1.2526,-1.2826,-1.2673,-1.2673,-1.29,-1.2673,-1.2599,-1.2572,-1.2036,-1.1864,-1.1864,-1.1523,-1.1603,-1.1857,-1.1516,-1.177,-1.2184,-1.159,-1.177,-1.2191,-1.1924,-1.2017,-1.2238,-1.2265,-1.1675,-1.0724,-0.9656,-0.8728,-0.7833,-0.731,-0.7015,-0.6865,-0.6865,-0.6865,-0.6865,-0.6641,-0.6553,-0.6546,-0.6321,-0.6118,-0.6013,-0.6013,0.0,0.0,-0.58,-0.5932,-0.6084,-0.6227,-0.6369,-0.6673,-0.7058,-0.7083,-0.7072,-0.7222,-0.7254,-0.7306,-0.7322,-0.735,-0.7424,-0.758,-0.7584,-0.7577,-0.7567,-0.7729,-0.7879,-0.8007,-0.8028,-0.8038,-0.8038,-0.8233,-0.8432,-0.8432,-0.8726,-0.8814,-0.8656,-0.8656,-0.8558,-0.8252,-0.8252,-0.8167,-0.8038,-0.8038,-0.8038,-0.8038,-1.7109,-1.624,-1.5957,-1.7705,-1.7461,-1.7246,-1.791,-1.8008,-1.8008,-1.8008,-1.7716,-1.7442,-1.7442,-1.6569,-1.5875,-1.5694,-1.3665,-1.2746,-1.3317,-1.3266,-1.3127,-1.2973,-1.3119,-1.3273,-1.3346,-1.3273,-1.3119,-1.29,-1.2673,-1.2599,-1.2599,-1.2526,-1.2599,-1.29,-1.2973,-1.3046,-1.3046,-1.29,-1.2826,-1.2725,-1.2134,-1.1977,-1.2104,-1.181,-1.1884,-1.2098,-1.1804,-1.1957,-1.2238,-1.1837,-1.1971,-1.2285,-1.2171,-1.2211,-1.2305,-1.2305,-1.2077,-1.1533,-1.0159,-0.9155,-0.8241,-0.7411,-0.7253,-0.7249,-0.7249,-0.7176,-0.7022,-0.6865,-0.6714,-0.6563,-0.6338,-0.6213,-0.6173,-0.6173,0.0,-0.6118,-0.6207,-0.6268,-0.6359,-0.6515,-0.658,-0.6836,-0.7323,-0.735,-0.7476,-0.7816,-0.7739,-0.7756,-0.7784,-0.7882,-0.7918,-0.7879,-0.7873,-0.7784,-0.76,-0.7834,-0.7933,-0.7899,-0.7994,-0.8038,-0.8038,-0.8137,-0.8137,-0.8137,-0.8237,-0.8272,-0.8227,-0.8227,-0.8227,-0.8126,-0.8126,-0.8092,-0.8038,-0.8038,-0.8038,-0.8038,-1.667,-1.6455,-1.6602,-1.7803,-1.8008,-1.8008,-1.8008,-1.8008,-1.8008,-1.8008,-1.8008,-1.8008,-1.8008,-1.7436,-1.694,-1.6791,-1.4577,-1.3324,-1.384,-1.363,-1.3419,-1.32,-1.3273,-1.3346,-1.3492,-1.3346,-1.32,-1.2973,-1.2893,-1.2826,-1.2826,-1.2746,-1.2826,-1.3119,-1.3193,-1.32,-1.3193,-1.2973,-1.2893,-1.2732,-1.2229,-1.2124,-1.2278,-1.2084,-1.2131,-1.2278,-1.2078,-1.2131,-1.2271,-1.2071,-1.2138,-1.2305,-1.2305,-1.2305,-1.2305,-1.2305,-1.2305,-1.2003,-1.0651,-0.9674,-0.877,-0.7561,-0.7407,-0.7484,-0.7484,-0.7334,-0.718,-0.6942,-0.6714,-0.6563,-0.6338,-0.6338,-0.6338,-0.6338,-0.6298,-0.6441,-0.6541,-0.6676,-0.6763,-0.6836,-0.6937,-0.7183,-0.7559,-0.7775,-0.7915,-0.7982,-0.8095,-0.8085,-0.7942,-0.8097,-0.8132,-0.8027,-0.8031,-0.7943,-0.774,-0.794,-0.7987,-0.7885,-0.7987,-0.8038,-0.8038,-0.8038,-0.8038,-0.8038,-0.8038,-0.8069,-0.8113,-0.8113,-0.8113,-0.8113,-0.8113,-0.8082,-0.8038,-0.8038,-0.8038,-0.8038,-1.6904,-1.7422,-1.7998,-1.7998,-1.8008,-1.8008,-1.8008,-1.8008,-1.8008,-1.8008,-1.8008,-1.8008,-1.8008,-1.7364,-1.6992,-1.7122,-1.5799,-1.4553,-1.3564,-1.3499,-1.3419,-1.32,-1.3419,-1.3492,-1.3492,-1.3492,-1.3419,-1.32,-1.32,-1.32,-1.32,-1.2973,-1.3119,-1.3492,-1.3273,-1.32,-1.3193,-1.2973,-1.2746,-1.2599,-1.2378,-1.2305,-1.2305,-1.2305,-1.2305,-1.2305,-1.2305,-1.2305,-1.2305,-1.2305,-1.2305,-1.2305,-1.2305,-1.2305,-1.2305,-1.2305,-1.2305,-1.215,-1.1335,-1.0501,-0.9518,-0.7936,-0.7484,-0.7484,-0.7484,-0.7334,-0.7103,-0.6942,-0.6714,-0.6567,-0.6338,-0.6342,-0.6342,-0.6342,-0.6383,-0.6555,-0.6805,-0.7015,-0.7174,-0.725,-0.7521,-0.7646,-0.7702,-0.8193,-0.8356,-0.7959,-0.8157,-0.8128,-0.7804,-0.7957,-0.8038,-0.8038,-0.8038,-0.8038,-0.8038,-0.8038,-0.8038,-0.8038,-0.8038,-0.8038,-0.8038,-0.8038,-0.8038,-0.8038,-0.8038,-0.8126,-0.8269,-0.8269,-0.8269,-0.8269,-0.8269,-0.8174,-0.8038,-0.8038,-0.8038,-0.8038,-1.6992,-1.707,-1.7119,-1.7119,-1.7607,-1.7871,-1.7461,-1.7744,-1.8008,-1.8008,-1.8008,-1.8008,-1.8008,-1.7436,-1.7216,-1.7658,-1.6204,-1.4746,-1.3578,-1.3985,-1.3977,-1.3419,-1.3492,-1.3492,-1.3492,-1.3492,-1.3419,-1.32,-1.32,-1.32,-1.32,-1.3119,-1.3273,-1.3492,-1.3419,-1.3346,-1.3193,-1.2973,-1.2746,-1.2599,-1.2378,-1.2305,-1.2305,-1.2305,-1.2305,-1.2305,-1.2305,-1.2305,-1.2305,-1.2305,-1.2305,-1.2305,-1.2305,-1.2305,-1.2305,-1.2305,-1.2305,-1.215,-1.1335,-1.0501,-0.9669,-0.8623,-0.794,-0.7484,-0.7484,-0.7249,-0.6942,-0.6942,-0.6723,-0.6569,-0.6651,-0.6579,-0.6651,-0.681,-0.6767,-0.6754,-0.7111,-0.7165,-0.7382,-0.7834,-0.7771,-0.7894,-0.8596,-0.8445,-0.8324,-0.8474,-0.8387,-0.8314,-0.8262,-0.8209,-0.8233,-0.8233,-0.8137,-0.8038,-0.8038,-0.8038,-0.8038,-0.8038,-0.8038,-0.8038,-0.8038,-0.8038,-0.8038,-0.8038,-0.8038,-0.8065,-0.8109,-0.8109,-0.8109,-0.8109,-0.8109,-0.8079,-0.8038,-0.8038,-0.8038,-0.8038,-1.6904,-1.7119,-1.7236,-1.7236,-1.71,-1.71,-1.7432,-1.7783,-1.8008,-1.8008,-1.8008,-1.8008,-1.8008,-1.7695,-1.7627,-1.7978,-1.7051,-1.5826,-1.4426,-1.4617,-1.441,-1.3564,-1.3492,-1.3492,-1.3492,-1.3492,-1.3419,-1.3346,-1.3346,-1.3346,-1.3346,-1.3346,-1.3346,-1.3492,-1.3492,-1.3346,-1.3046,-1.2973,-1.2746,-1.2452,-1.2378,-1.2305,-1.2305,-1.2305,-1.2305,-1.2305,-1.2305,-1.2305,-1.2305,-1.2305,-1.2305,-1.2305,-1.2305,-1.2305,-1.2305,-1.2305,-1.2305,-1.2157,-1.1706,-1.0726,-0.982,-0.9296,-0.8318,-0.7484,-0.7407,-0.7227,-0.7036,-0.6962,-0.6936,-0.6891,-0.7057,-0.6973,-0.7033,-0.7112,-0.6996,-0.7073,-0.7336,-0.7458,-0.7609,-0.808,-0.7971,-0.8106,-0.8464,-0.8494,-0.8657,-0.8916,-0.8535,-0.8333,-0.8432,-0.8336,-0.8237,-0.8237,-0.8038,-0.8038,-0.8038,-0.8038,-0.8038,-0.8038,-0.8038,-0.8038,-0.8038,-0.8038,-0.8038,-0.8038,-0.8038,-0.8038,-0.8038,-0.8038,-0.8038,-0.8038,-0.8038,-0.8038,-0.8038,-0.8038,-0.8038,-0.8038,-1.6694,-1.7441,-1.7988,-1.7939,-1.666,-1.6172,-1.7715,-1.7988,-1.8008,-1.8008,-1.8008,-1.8008,-1.8008,-1.8008,-1.8008,-1.8008,-1.8008,-1.7373,-1.6026,-1.5471,-1.4705,-1.363,-1.3564,-1.3564,-1.3492,-1.3492,-1.3492,-1.3492,-1.3492,-1.3492,-1.3492,-1.3492,-1.3492,-1.3492,-1.3492,-1.3273,-1.29,-1.29,-1.2673,-1.2305,-1.2305,-1.2305,-1.2305,-1.2305,-1.2305,-1.2305,-1.2305,-1.2305,-1.2305,-1.2305,-1.2305,-1.2305,-1.2305,-1.2305,-1.2305,-1.2305,-1.2305,-1.2305,-1.2305,-1.1099,-0.99,-0.9922,-0.8718,-0.7508,-0.7281,-0.7321,-0.7354,-0.7213,-0.7271,-0.739,-0.7473,-0.7484,-0.7409,-0.7235,-0.7289,-0.739,-0.7539,-0.7638,-0.7843,-0.8124,-0.8266,-0.8142,-0.7914,-0.8508,-0.8964,-0.9126,-0.8439,-0.8137,-0.8333,-0.8137,-0.8038,-0.8038,-0.8038,-0.8038,-0.8038,-0.8038,-0.8038,-0.8038,-0.8038,-0.8038,-0.8038,-0.8038,-0.8038,-0.8038,-0.8038,-0.8038,-0.8038,-0.8038,-0.8038,-0.8038,-0.8038,-0.8038,-0.8038,-0.8038,-0.8038,-0.8038,-1.6934,-1.7568,-1.7861,-1.7402,-1.7393,-1.7461,-1.751,-1.7803,-1.8008,-1.8008,-1.8008,-1.8008,-1.8008,-1.8008,-1.8008,-1.8008,-1.8008,-1.7872,-1.751,-1.6872,-1.5877,-1.4394,-1.4322,-1.4122,-1.3492,-1.3492,-1.3492,-1.3492,-1.3492,-1.3492,-1.3492,-1.3492,-1.3492,-1.3492,-1.3492,-1.3273,-1.29,-1.29,-1.2673,-1.2305,-1.2305,-1.2305,-1.2305,-1.2305,-1.2305,-1.2305,-1.2305,-1.2305,-1.2305,-1.2305,-1.2305,-1.2305,-1.2305,-1.2305,-1.2305,-1.2305,-1.2305,-1.2305,-1.2305,-1.1099,-0.9862,-0.9823,-0.8788,-0.7699,-0.7703,-0.741,-0.7228,-0.7527,-0.7602,-0.7639,-0.7816,-0.7838,-0.7748,-0.7748,-0.7705,-0.7585,-0.7559,-0.772,-0.7916,-0.8195,-0.8248,-0.8311,-0.8561,-0.8576,-0.8495,-0.8237,-0.8137,-0.8038,-0.8038,-0.8038,-0.8038,-0.8038,-0.8038,-0.8038,-0.8038,-0.8038,-0.8038,-0.8038,-0.8038,-0.8038,-0.8038,-0.8038,-0.8038,-0.8038,-0.8038,-0.8038,-0.8038,-0.8038,-0.8038,-0.8038,-0.8038,-0.8038,-0.8038,-0.8038,-0.8038,-0.8038,-1.6826,-1.7519,-1.791,-1.7607,-1.7803,-1.7939,-1.7715,-1.7871,-1.8008,-1.8008,-1.8008,-1.8008,-1.8008,-1.8008,-1.8008,-1.8008,-1.8008,-1.8008,-1.8008,-1.7295,-1.6507,-1.5525,-1.5242,-1.4752,-1.4049,-1.4049,-1.384,-1.3492,-1.3492,-1.3492,-1.3492,-1.3492,-1.3492,-1.3492,-1.3492,-1.3273,-1.29,-1.29,-1.2673,-1.2305,-1.2305,-1.2305,-1.2305,-1.2305,-1.2305,-1.2305,-1.2305,-1.2305,-1.2305,-1.2305,-1.2305,-1.2305,-1.2305,-1.2305,-1.2305,-1.2305,-1.2305,-1.2305,-1.2305,-1.1115,-0.9869,-0.9995,-0.8768,-0.7647,-0.7647,-0.7624,-0.7725,-0.7897,-0.8068,-0.8216,-0.8484,-0.8485,-0.8363,-0.8178,-0.8063,-0.7905,-0.7738,-0.7743,-0.7984,-0.8175,-0.8125,-0.8248,-0.8619,-0.8333,-0.8237,-0.8333,-0.8137,-0.8038,-0.8137,-0.8038,-0.8038,-0.8038,-0.8038,-0.8038,-0.8038,-0.8038,-0.8038,-0.8038,-0.8038,-0.8038,-0.8038,-0.8038,-0.8038,-0.8038,-0.8038,-0.8038,-0.8038,-0.8038,-0.8038,-0.8038,-0.8038,-0.8038,-0.8038,-0.8038,-0.8038,-0.8038,-1.6631,-1.7305,-1.7832,-1.7988,-1.8008,-1.8008,-1.8008,-1.8008,-1.8008,-1.8008,-1.8008,-1.8008,-1.8008,-1.8008,-1.8008,-1.8008,-1.8008,-1.8008,-1.8008,-1.7432,-1.6941,-1.6585,-1.6167,-1.5525,-1.4816,-1.4816,-1.433,-1.3492,-1.3492,-1.3492,-1.3492,-1.3492,-1.3492,-1.3492,-1.3492,-1.3273,-1.29,-1.29,-1.2673,-1.2305,-1.2305,-1.2305,-1.2305,-1.2305,-1.2305,-1.2305,-1.2305,-1.2305,-1.2305,-1.2305,-1.2305,-1.2305,-1.2305,-1.2305,-1.2305,-1.2305,-1.2305,-1.2305,-1.2305,-1.1141,-0.9954,-1.0152,-0.8896,-0.7583,-0.753,-0.787,-0.8255,-0.8253,-0.8516,-0.8869,-0.9019,-0.9076,-0.8905,-0.8434,-0.8363,-0.8276,-0.7879,-0.7839,-0.7938,-0.8115,-0.8048,-0.8038,-0.8333,-0.8137,-0.8137,-0.8627,-0.8237,-0.8137,-0.8333,-0.8137,-0.8038,-0.8038,-0.8038,-0.8038,-0.8038,-0.8038,-0.8038,-0.8038,-0.8038,-0.8038,-0.8038,-0.8038,-0.8038,-0.8038,-0.8038,-0.8038,-0.8038,-0.8038,-0.8038,-0.8038,-0.8038,-0.8038,-0.8038,-0.8038,-0.8038,-0.8038,-1.6572,-1.6763,-1.7139,-1.7881,-1.8008,-1.8008,-1.8008,-1.8008,-1.8008,-1.8008,-1.8008,-1.8008,-1.8008,-1.8008,-1.8008,-1.8008,-1.8008,-1.8008,-1.8008,-1.794,-1.7579,-1.6862,-1.6793,-1.6376,-1.5604,-1.5534,-1.4903,-1.3492,-1.3492,-1.3492,-1.3492,-1.3492,-1.3492,-1.3492,-1.3492,-1.3273,-1.29,-1.29,-1.2673,-1.2305,-1.2305,-1.2305,-1.2305,-1.2305,-1.2305,-1.2305,-1.2305,-1.2305,-1.2305,-1.2305,-1.2305,-1.2305,-1.2305,-1.2305,-1.2305,-1.2305,-1.2305,-1.2305,-1.2305,-1.1223,-1.0147,-1.0103,-0.9101,-0.8126,-0.8099,-0.8041,-0.8177,-0.844,-0.8702,-0.8828,-0.8852,-0.8991,-0.8905,-0.8434,-0.8649,-0.86,-0.7806,-0.8028,-0.8252,-0.7925,-0.7946,-0.8041,-0.8038,-0.8038,-0.8038,-0.8137,-0.8038,-0.8041,-0.8038,-0.8041,-0.8038,-0.8038,-0.8038,-0.8038,-0.8038,-0.8038,-0.8038,-0.8038,-0.8038,-0.8038,-0.8038,-0.8038,-0.8038,-0.8038,-0.8038,-0.8038,-0.8038,-0.8038,-0.8038,-0.8038,-0.8038,-0.8038,-0.8038,-0.8038,-0.8038,-0.8038,-1.6562,-1.6533,-1.6709,-1.7812,-1.7812,-1.7734,-1.7978,-1.8008,-1.8008,-1.8008,-1.8008,-1.8008,-1.8008,-1.8008,-1.8008,-1.8008,-1.8008,-1.8008,-1.8008,-1.8008,-1.7872,-1.751,-1.751,-1.7157,-1.6376,-1.6376,-1.5807,-1.476,-1.433,-1.3912,-1.3492,-1.3492,-1.3492,-1.3492,-1.3492,-1.3273,-1.29,-1.29,-1.2673,-1.2305,-1.2305,-1.2305,-1.2305,-1.2305,-1.2305,-1.2305,-1.2305,-1.2305,-1.2305,-1.2305,-1.2305,-1.2305,-1.2305,-1.2305,-1.2305,-1.2305,-1.2305,-1.2338,-1.2505,-1.1361,-1.0188,-1.0505,-0.9395,-0.8285,-0.8364,-0.8416,-0.844,-0.8808,-0.8922,-0.9035,-0.9234,-0.934,-0.9296,-0.891,-0.8972,-0.8897,-0.8337,-0.8441,-0.8502,-0.814,-0.8192,-0.8137,-0.8041,-0.8038,-0.8038,-0.8038,-0.8038,-0.8038,-0.8038,-0.8038,-0.8038,-0.8038,-0.8038,-0.8038,-0.8038,-0.8038,-0.8038,-0.8038,-0.8137,-0.8137,-0.8038,-0.8038,-0.8038,-0.8038,-0.8038,-0.8038,-0.8038,-0.8038,-0.8038,-0.8038,-0.8038,-0.8038,-0.8038,-0.8038,-0.8038,-0.8038]},{"header":{"parameterUnit":"m.s-1","parameterCategory":1,"la1":30.6,"la2":28.766,"lo1":-90.7593,"lo2":-88.6598,"dy":0.0162,"dx":0.0183,"nx":116,"ny":114,"refTime":"2023-07-22T12:00:00:Z","depth":0,"parameterNumber":3,"parameterNumberName":"V-component_of_WINDS"},"data":[0.0,0.0,0.0,0.0,0.0,0.0,0.0,0.0,0.0,0.0,0.0,0.0,0.0,0.0,0.0,0.0,0.0,0.0,0.0,0.0,0.0,0.0,0.0,0.0,0.0,0.0,0.0,0.0,0.0,0.0,0.0,0.0,0.0,0.0,0.0,0.0,0.0,0.0,0.0,0.0,0.0,0.0,0.0,0.0,0.0,0.0,0.0,0.0,0.0,0.0,0.0,0.0,0.0,0.0,0.0,0.0,0.0,0.0,0.0,0.0,0.0,0.0,0.0,0.0,0.0,0.0,0.0,0.0,0.0,0.0,0.0,0.0,0.0,0.0,0.0,0.0,0.0,0.0,0.0,0.0,0.0,0.0,0.0,0.0,0.0,0.0,0.0,0.0,0.0,0.0,0.0,0.0,0.0,0.0,0.0,0.0,0.0,0.0,0.0,0.0,0.0,0.0,0.0,0.0,0.0,0.0,0.0,0.0,0.0,0.0,0.0,0.0,0.0,0.0,0.0,0.0,0.0,0.0,0.0,0.0,0.0,0.0,0.0,0.0,0.0,0.0,0.0,0.0,0.0,0.0,0.0,0.0,0.0,0.0,0.0,0.0,0.0,0.0,0.0,0.0,0.0,0.0,0.0,0.0,0.0,0.0,0.0,0.0,0.0,0.0,0.0,0.0,0.0,0.0,0.0,0.0,0.0,0.0,0.0,0.0,0.0,0.0,0.0,0.0,0.0,0.0,0.0,0.0,0.0,0.0,0.0,0.0,0.0,0.0,0.0,0.0,0.0,0.0,0.0,0.0,0.0,0.0,0.0,0.0,0.0,0.0,0.0,0.0,0.0,0.0,0.0,0.0,0.0,0.0,0.0,0.0,0.0,0.0,0.0,0.0,0.0,0.0,0.0,0.0,0.0,0.0,0.0,0.0,0.0,0.0,0.0,0.0,0.0,0.0,0.0,0.0,0.0,0.0,0.0,0.0,0.0,0.0,0.0,0.0,0.0,0.0,0.0,0.0,0.0,0.0,0.0,0.0,0.0,0.0,0.0,0.0,0.0,0.0,0.0,0.0,0.0,0.0,0.0,0.0,0.0,0.0,0.0,0.0,0.0,0.0,0.0,0.0,0.0,0.0,0.0,0.0,0.0,0.0,0.0,0.0,0.0,0.0,0.0,0.0,0.0,0.0,0.0,0.0,0.0,0.0,0.0,0.0,0.0,0.0,0.0,0.0,0.0,0.0,0.0,0.0,0.0,0.0,0.0,0.0,0.0,0.0,0.0,0.0,0.0,0.0,0.0,0.0,0.0,0.0,0.0,0.0,0.0,0.0,0.0,0.0,0.0,0.0,0.0,0.0,0.0,0.0,0.0,0.0,0.0,0.0,0.0,0.0,0.0,0.0,0.0,0.0,0.0,0.0,0.0,0.0,0.0,0.0,0.0,0.0,0.0,0.0,0.0,0.0,0.0,0.0,0.0,0.0,0.0,0.0,0.0,0.0,0.0,0.0,0.0,0.0,0.0,0.0,0.0,0.0,0.0,0.0,0.0,0.0,0.0,0.0,0.0,0.0,0.0,0.0,0.0,0.0,0.0,0.0,0.0,0.0,0.0,0.0,0.0,0.0,0.0,0.0,0.0,0.0,0.0,0.0,0.0,0.0,0.0,0.0,0.0,0.0,0.0,0.0,0.0,0.0,0.0,0.0,0.0,0.0,0.0,0.0,0.0,0.0,0.0,0.0,0.0,0.0,0.0,0.0,0.0,0.0,0.0,0.0,0.0,0.0,0.0,0.0,0.0,0.0,0.0,0.0,0.0,0.0,0.0,0.0,0.0,0.0,0.0,0.0,0.0,0.0,0.0,0.0,0.0,0.0,0.0,0.0,0.0,0.0,0.0,0.0,0.0,0.0,0.0,0.0,0.0,0.0,0.0,0.0,0.0,0.0,0.0,0.0,0.0,0.0,0.0,0.0,0.0,0.0,0.0,0.0,0.0,0.0,0.0,0.0,0.0,0.0,0.0,0.0,0.0,0.0,0.0,0.0,0.0,0.0,0.0,0.0,0.0,0.0,0.0,0.0,0.0,0.0,0.0,0.0,0.0,0.0,0.0,0.0,0.0,0.0,0.0,0.0,0.0,0.0,0.0,0.0,0.0,0.0,0.0,0.0,0.0,0.0,0.0,0.0,0.0,0.0,0.0,0.0,0.0,0.0,0.0,0.0,0.0,0.0,0.0,0.0,0.0,0.0,0.0,0.0,0.0,0.0,0.0,0.0,0.0,0.0,0.0,0.0,0.0,0.0,0.0,0.0,0.0,0.0,0.0,0.0,0.0,0.0,0.0,0.0,0.0,0.0,0.0,0.0,0.0,0.0,0.0,0.0,0.0,0.0,0.0,0.0,0.0,0.0,0.0,0.0,0.0,0.0,0.0,0.0,0.0,0.0,0.0,0.0,0.0,0.0,0.0,0.0,0.0,0.0,0.0,0.0,0.0,0.0,0.0,0.0,0.0,0.0,0.0,0.0,0.0,0.0,0.0,0.0,0.0,0.0,0.0,0.0,0.0,0.0,0.0,0.0,0.0,0.0,0.0,0.0,0.0,0.0,0.0,0.0,0.0,0.0,0.0,0.0,0.0,0.0,0.0,0.0,0.0,0.0,0.0,0.0,0.0,0.0,0.0,0.0,0.0,0.0,0.0,0.0,0.0,0.0,0.0,0.0,0.0,0.0,0.0,0.0,0.0,0.0,0.0,0.0,0.0,0.0,0.0,0.0,0.0,0.0,0.0,0.0,0.0,0.0,0.0,0.0,0.0,0.0,0.0,0.0,0.0,0.0,0.0,0.0,0.0,0.0,0.0,0.0,0.0,0.0,0.0,0.0,0.0,0.0,0.0,0.0,0.0,0.0,0.0,0.0,0.0,0.0,0.0,0.0,0.0,0.0,0.0,0.0,0.0,0.0,0.0,0.0,0.0,0.0,0.0,0.0,0.0,0.0,0.0,0.0,0.0,0.0,0.0,0.0,0.0,0.0,0.0,0.0,0.0,0.0,0.0,0.0,0.0,0.0,0.0,0.0,0.0,0.0,0.0,0.0,0.0,0.0,0.0,0.0,0.0,0.0,0.0,0.0,0.0,0.0,0.0,0.0,0.0,0.0,0.0,0.0,0.0,0.0,0.0,0.0,0.0,0.0,0.0,0.0,0.0,0.0,0.0,0.0,0.0,0.0,0.0,0.0,0.0,0.0,0.0,0.0,0.0,0.0,0.0,0.0,0.0,0.0,0.0,0.0,0.0,0.0,0.0,0.0,0.0,0.0,0.0,0.0,0.0,0.0,0.0,0.0,0.0,0.0,0.0,0.0,0.0,0.0,0.0,0.0,0.0,0.0,0.0,0.0,0.0,0.0,0.0,0.0,0.0,0.0,0.0,0.0,0.0,0.0,0.0,0.0,0.0,0.0,0.0,0.0,0.0,0.0,0.0,0.0,0.0,0.0,0.0,0.0,0.0,0.0,0.0,0.0,0.0,0.0,0.0,0.0,0.0,0.0,0.0,0.0,0.0,0.0,0.0,0.0,0.0,0.0,0.0,0.0,0.0,0.0,0.0,0.0,0.0,0.0,0.0,0.0,0.0,0.0,0.0,0.0,0.0,0.0,0.0,0.0,0.0,0.0,0.0,0.0,0.0,0.0,0.0,0.0,0.0,0.0,0.0,0.0,0.0,0.0,0.0,0.0,0.0,0.0,0.0,0.0,0.0,0.0,0.0,0.0,0.0,0.0,0.0,0.0,0.0,0.0,0.0,0.0,0.0,0.0,0.0,0.0,0.0,0.0,0.0,0.0,0.0,0.0,0.0,0.0,0.0,0.0,0.0,0.0,0.0,0.0,0.0,0.0,0.0,0.0,0.0,0.0,0.0,0.0,0.0,0.0,0.0,0.0,0.0,0.0,0.0,0.0,0.0,0.0,0.0,0.0,0.0,0.0,0.0,0.0,0.0,0.0,0.0,0.0,0.0,0.0,0.0,0.0,0.0,0.0,0.0,0.0,0.0,0.0,0.0,0.0,0.0,0.0,0.0,0.0,0.0,0.0,0.0,0.0,0.0,0.0,0.0,0.0,0.0,0.0,0.0,0.0,0.0,0.0,0.0,0.0,0.0,0.0,0.0,0.0,0.0,0.0,0.0,0.0,0.0,0.0,0.0,0.0,0.0,0.0,0.0,0.0,0.0,0.0,0.0,0.0,0.0,0.0,0.0,0.0,0.0,0.0,0.0,0.0,0.0,0.0,0.0,0.0,0.0,0.0,0.0,0.0,0.0,0.0,0.0,0.0,0.0,0.0,0.0,0.0,0.0,0.0,0.0,0.0,0.0,0.0,0.0,0.0,0.0,0.0,0.0,0.0,0.0,0.0,0.0,0.0,0.0,0.0,0.0,0.0,0.0,0.0,0.0,0.0,0.0,0.0,0.0,0.0,0.0,0.0,0.0,0.0,0.0,0.0,0.0,0.0,0.0,0.0,0.0,0.0,0.0,0.0,0.0,0.0,0.0,0.0,0.0,0.0,0.0,0.0,0.0,0.0,0.0,0.0,0.0,0.0,0.0,0.0,0.0,0.0,0.0,0.0,0.0,0.0,0.0,0.0,0.0,0.0,0.0,0.0,0.0,0.0,0.0,0.0,0.0,0.0,0.0,0.0,0.0,0.0,0.0,0.0,0.0,0.0,0.0,0.0,0.0,0.0,0.0,0.0,0.0,0.0,0.0,0.0,0.0,0.0,0.0,0.0,0.0,0.0,0.0,0.0,0.0,0.0,0.0,0.0,0.0,0.0,0.0,0.0,0.0,0.0,0.0,0.0,0.0,0.0,0.0,0.0,0.0,0.0,0.0,0.0,0.0,0.0,0.0,0.0,0.0,0.0,0.0,0.0,0.0,0.0,0.0,0.0,0.0,0.0,0.0,0.0,0.0,0.0,0.0,0.0,0.0,0.0,0.0,0.0,0.0,0.0,0.0,0.0,0.0,0.0,0.0,0.0,0.0,0.0,0.0,0.0,0.0,0.0,0.0,0.0,0.0,0.0,0.0,0.0,0.0,0.0,0.0,0.0,0.0,0.0,0.0,0.0,0.0,0.0,0.0,0.0,0.0,0.0,0.0,0.0,0.0,0.0,0.0,0.0,0.0,0.0,0.0,0.0,0.0,0.0,0.0,0.0,0.0,0.0,0.0,0.0,0.0,0.0,0.0,0.0,0.0,0.0,0.0,0.0,0.0,0.0,0.0,0.0,0.0,0.0,0.0,0.0,0.0,0.0,0.0,0.0,0.0,0.0,0.0,0.0,0.0,0.0,0.0,0.0,0.0,0.0,0.0,0.0,0.0,0.0,0.0,0.0,0.0,0.0,0.0,0.0,0.0,0.0,0.0,0.0,0.0,0.0,0.0,0.0,0.0,0.0,0.0,0.0,0.0,0.0,0.0,0.0,0.0,0.0,0.0,0.0,0.0,0.0,0.0,0.0,0.0,0.0,0.0,0.0,0.0,0.0,0.0,0.0,0.0,0.0,0.0,0.0,0.0,0.0,0.0,0.0,0.0,0.0,0.0,0.0,0.0,0.0,0.0,0.0,0.0,0.0,0.0,0.0,0.0,0.0,0.0,0.0,0.0,0.0,0.0,0.0,0.0,0.0,0.0,0.0,0.0,0.0,0.0,0.0,0.0,0.0,0.0,0.0,0.0,0.0,0.0,0.0,0.0,0.0,0.0,0.0,0.0,0.0,0.0,0.0,0.0,0.0,0.0,0.0,0.0,0.0,0.0,0.0,0.0,0.0,0.0,0.0,0.0,0.0,0.0,0.0,0.0,0.0,0.0,0.0,0.0,0.0,0.0,0.0,0.0,0.0,0.0,0.0,0.0,0.0,0.0,0.0,0.0,0.0,0.0,0.0,0.0,0.0,0.0,0.0,0.0,0.0,0.0,0.0,0.0,0.0,0.0,0.0,0.0,0.0,0.0,0.0,0.0,0.0,0.0,0.0,0.0,0.0,0.0,0.0,0.0,0.0,0.0,0.0,0.0,0.0,0.0,0.0,0.0,0.0,0.0,0.0,0.0,0.0,0.0,0.0,0.0,0.0,0.0,0.0,0.0,0.0,-2.219,0.0,0.0,0.0,0.0,0.0,0.0,0.0,0.0,0.0,0.0,0.0,0.0,0.0,0.0,0.0,0.0,0.0,0.0,0.0,0.0,0.0,0.0,0.0,0.0,0.0,0.0,0.0,0.0,0.0,0.0,0.0,0.0,0.0,0.0,0.0,0.0,0.0,0.0,0.0,0.0,0.0,0.0,0.0,0.0,0.0,0.0,0.0,0.0,0.0,0.0,0.0,0.0,0.0,0.0,0.0,0.0,0.0,0.0,0.0,0.0,0.0,0.0,0.0,0.0,0.0,0.0,0.0,0.0,0.0,0.0,0.0,0.0,0.0,0.0,0.0,0.0,0.0,0.0,0.0,0.0,0.0,0.0,0.0,0.0,0.0,0.0,0.0,0.0,0.0,0.0,0.0,0.0,0.0,0.0,0.0,0.0,0.0,0.0,0.0,0.0,0.0,0.0,0.0,0.0,0.0,0.0,0.0,0.0,0.0,0.0,0.0,0.0,0.0,0.0,0.0,0.0,-2.2312,0.0,0.0,0.0,0.0,0.0,0.0,0.0,0.0,0.0,0.0,0.0,0.0,0.0,0.0,0.0,0.0,0.0,0.0,0.0,0.0,0.0,0.0,0.0,0.0,0.0,0.0,0.0,0.0,0.0,0.0,0.0,0.0,0.0,0.0,0.0,0.0,0.0,0.0,0.0,0.0,0.0,0.0,0.0,0.0,0.0,0.0,0.0,0.0,0.0,0.0,0.0,0.0,0.0,0.0,0.0,0.0,0.0,0.0,0.0,0.0,0.0,0.0,0.0,0.0,0.0,0.0,0.0,0.0,0.0,0.0,0.0,0.0,0.0,0.0,0.0,0.0,0.0,0.0,0.0,0.0,0.0,0.0,0.0,0.0,0.0,0.0,0.0,0.0,0.0,0.0,0.0,0.0,0.0,0.0,0.0,0.0,0.0,0.0,0.0,0.0,0.0,0.0,0.0,0.0,0.0,0.0,0.0,0.0,-2.5357,-2.5371,-2.5382,-2.5587,-2.5574,-2.534,-2.4723,-2.2886,-2.0562,0.0,0.0,0.0,0.0,0.0,0.0,0.0,0.0,0.0,0.0,0.0,0.0,0.0,0.0,0.0,0.0,0.0,0.0,0.0,0.0,0.0,0.0,0.0,0.0,0.0,0.0,0.0,0.0,0.0,0.0,0.0,0.0,0.0,0.0,0.0,0.0,0.0,0.0,0.0,0.4464,0.4579,0.4599,0.4471,0.3105,0.0,0.0,0.0,0.0,0.0,0.0,0.0,0.0,0.0,0.0,0.0,0.0,0.0,0.0,0.0,0.0,0.0,0.0,0.0,0.0,0.0,0.0,0.0,0.0,0.0,0.0,0.0,0.0,0.0,0.0,0.0,0.0,0.0,0.0,0.0,0.0,0.0,0.0,0.0,0.0,0.0,0.0,0.0,-1.3317,-1.6082,0.0,0.0,0.0,0.0,0.0,0.0,0.0,0.0,0.0,0.0,0.0,0.0,0.0,-2.4903,-2.5027,-2.4299,-2.4402,-2.5293,-2.5539,-2.5657,-2.5657,-2.5683,-2.5673,-2.564,-2.5548,0.0,-2.0573,-2.4177,0.0,0.0,0.0,0.0,0.0,0.0,0.0,0.0,0.0,0.0,0.0,0.0,0.0,0.0,0.0,0.0,0.0,0.0,0.0,0.0,0.0,0.0,0.0,0.0,0.0,0.0,0.0,0.0,0.0,0.0,0.0,0.0,0.0,0.0,0.0,0.0,0.4401,0.4498,0.4257,0.4668,0.475,0.4565,0.4007,0.2677,0.0994,0.102,0.0,0.0,0.0,0.0,0.0,0.0,0.0,0.0,0.0,0.0,0.0,0.0,0.0,0.0,0.0,0.0,0.0,0.0,0.0,0.0,0.0,0.0,0.0,0.0,0.0,0.0,0.0,0.0,0.0,0.0,0.0,0.0,0.0,0.0,0.0,0.0,0.0,0.0,0.0,-1.5684,-1.7056,-1.9313,-2.0177,-2.0824,0.0,0.0,0.0,0.0,0.0,0.0,0.0,0.0,0.0,-2.5503,-2.741,-2.7439,-2.5332,-2.7082,-2.9096,-3.1285,-2.9485,-2.8613,-2.8613,-2.8613,-2.8623,-2.8621,-2.8621,-2.7714,-2.6227,-2.5855,-2.5703,-2.5703,0.0,0.0,0.0,0.0,-2.5703,-2.5703,0.0,0.0,0.0,0.0,0.0,0.0,0.0,0.0,0.0,0.0,0.0,0.0,0.0,0.0,0.0,0.4782,0.0,0.0,0.0,0.0,0.0,0.0,0.0,0.0,0.0,0.0,0.0,0.0,0.4365,0.447,0.3961,0.4686,0.4993,0.4792,0.4665,0.3351,0.1275,0.1339,0.1198,0.0,0.0,0.0,0.0,0.0,0.0,0.0,0.0,0.0,0.0,0.0,0.0,0.0,0.0,0.0,0.0,0.0,0.0,0.0,0.0,0.0,0.0,0.0,0.0,0.0,0.0,0.0,0.0,0.0,0.0,0.0,0.0,0.0,0.0,0.0,0.0,0.0,0.0,-1.7986,-2.0686,-2.1614,-2.1985,-2.2391,0.0,0.0,0.0,0.0,0.0,0.0,-2.6993,-2.837,-2.8736,-2.7884,-3.0682,-3.086,-2.8066,-3.0819,-3.3476,-3.5976,-3.3418,-3.2207,-3.2207,-3.2207,-3.1738,-3.0898,-3.0898,-3.0898,-3.0625,-2.7148,-2.5703,-2.5683,-2.5611,-2.5598,-2.5603,-2.5662,-2.5703,-2.5703,0.0,0.0,0.0,0.0,0.0,0.0,0.0,0.0,0.0,0.0,0.0,0.0,0.0,0.0,0.4182,0.447,0.5014,0.549,0.0,0.0,0.0,0.0,0.0,0.0,0.0,0.0,0.0,0.2936,0.3921,0.4105,0.3469,0.4655,0.5206,0.5135,0.4118,0.4007,0.4475,0.1381,0.1387,0.3238,0.0,0.0,0.0,0.0,0.0,0.0,0.0,0.0,0.0,0.0,0.0,0.0,0.0,0.0,0.0,0.0,0.0,0.0,0.0,0.0,0.0,0.0,0.0,0.0,0.0,0.0,0.0,0.0,0.0,0.0,0.0,0.0,0.0,0.0,0.0,0.0,0.0,0.0,0.0,-2.0836,-2.2297,0.0,0.0,0.0,0.0,-2.6369,-2.7923,-2.8994,-2.9332,-3.0142,-3.0618,-3.0682,-3.3984,-3.5644,-3.5468,-3.5644,-3.582,-3.5996,-3.582,-3.5742,-3.5742,-3.5742,-3.3965,-3.0898,-3.0898,-3.0898,-3.0625,-2.7148,-2.5703,-2.5662,-2.5408,-2.5322,-2.5346,-2.5603,-2.5703,-2.5703,0.0,0.0,0.0,0.0,0.0,0.0,0.0,0.0,0.0,0.0,0.0,0.0,0.0,0.3391,0.4545,0.4627,0.4882,0.5197,0.5604,0.0,0.0,0.0,0.0,0.0,0.0,0.0,0.2958,0.2324,0.3439,0.371,0.3338,0.3964,0.4133,0.3977,0.2931,0.241,0.2216,0.1395,0.1183,0.1266,0.1204,0.0695,0.0,0.0,0.0,0.0,0.0,0.0,0.0,0.0,0.0,0.0,0.0,0.0,0.0,0.0,0.0,0.0,0.0,0.0,0.0,0.0,0.0,0.0,0.0,0.0,0.0,0.0,0.0,0.0,0.0,0.0,0.0,0.0,0.0,0.0,0.0,0.0,0.0,-2.4474,-2.5565,0.0,-2.7737,-2.8626,-2.9398,-3.0057,-3.0722,-3.1581,-3.2713,-3.3583,-3.357,-3.2539,-3.4785,-3.5893,-3.5668,-3.5893,-3.7129,-3.9316,-3.707,-3.5996,-3.5996,-3.5996,-3.5332,-3.4062,-3.1855,-3.0898,-3.0976,-3.1934,-3.1035,-2.9043,-2.894,-2.8902,-2.8928,-2.9001,-2.9043,-2.9043,0.0,0.0,0.0,0.0,0.0,0.0,0.0,0.0,0.0,0.0,0.0,-0.035,-0.0263,0.2137,0.3577,0.3413,0.4287,0.476,0.4641,0.0,0.0,0.0,0.0,0.0,0.0,0.3211,0.2404,0.1891,0.2572,0.271,0.2294,0.2807,0.295,0.2786,0.1749,0.099,0.0638,0.065,0.0266,-0.0249,0.0791,0.0719,-0.017,0.0,0.0,0.0,0.0,0.0,0.0,0.0,0.0,0.0,0.0,0.0,0.0,0.0,0.0,0.0,0.0,0.0,0.0,0.0,0.0,0.0,0.0,0.0,0.0,0.0,0.0,0.0,0.0,0.0,0.0,0.0,0.0,0.0,0.0,0.0,-2.5571,-2.8091,-2.8826,-2.9709,-3.1111,-3.2014,-3.2633,-3.292,-3.3632,-3.4329,-3.4962,-3.6092,-3.597,-3.4325,-3.54,-3.6459,-3.7404,-3.763,-3.832,-3.9414,-3.7109,-3.5948,-3.5836,-3.5836,-3.5836,-3.5719,-3.3448,-3.245,-3.2547,-3.3657,-3.2783,-3.0735,-3.0856,-3.0898,-3.1035,-3.2207,-3.1894,-3.0898,0.0,0.0,0.0,0.0,0.0,0.0,0.0,0.0,0.0,0.0,-0.2769,-0.1989,-0.1622,0.0168,0.1196,0.0824,0.3092,0.4107,0.3005,0.3716,0.0,0.0,0.0,0.0,0.4312,0.2915,0.1968,0.1482,0.1459,0.1072,0.0314,0.1315,0.1763,0.168,0.0589,0.0084,0.0,-0.0964,-0.1323,-0.1167,-0.0376,-0.0,-0.0176,0.0,0.0,0.0,0.0,0.0,0.0,0.0,0.0,0.0,0.0,0.0,0.0,0.0,0.0,0.0,0.0,0.0,0.0,0.0,0.0,0.0,0.0,0.0,0.0,0.0,0.0,0.0,0.0,0.0,0.0,0.0,0.0,0.0,-2.6776,-2.7346,-2.8695,-3.1278,-3.184,-3.2392,-3.3393,-3.5049,-3.572,-3.4903,-3.6715,-3.7304,-3.6073,-3.755,-3.774,-3.6182,-3.6137,-3.7753,-4.1152,-4.1074,-3.9335,-3.5976,-3.5976,-3.5802,-3.5493,-3.5493,-3.5493,-3.5493,-3.5493,-3.5493,-3.5224,-3.1917,-3.0552,-3.0601,-3.0918,-3.0976,-3.1289,-3.4609,-3.373,-3.0898,0.0,0.0,0.0,0.0,0.0,0.0,0.0,0.0,0.0,0.0,-0.4837,-0.4196,-0.3743,-0.2655,-0.1462,-0.0255,0.1209,0.2638,0.3932,0.0,0.0,0.0,0.0,0.0,0.2332,0.1187,0.0275,-0.0528,0.023,0.0393,0.0,0.0252,0.026,0.0,-0.0881,-0.1761,-0.2545,-0.2646,-0.3058,-0.3459,-0.1563,-0.0492,-0.0181,0.0,0.0,0.0,0.0,0.0,0.0,0.0,0.0,0.0,0.0,0.0,0.0,0.0,0.0,0.0,0.0,0.0,0.0,0.0,0.0,0.0,0.0,0.0,0.0,0.0,0.0,0.0,0.0,0.0,0.0,0.0,0.0,-2.7376,-2.7386,-2.9257,-3.1383,-3.3372,-3.5411,-3.7003,-3.7868,-3.902,-3.9881,-4.0235,-4.0743,-4.097,-4.0804,-4.1094,-4.0668,-3.9304,-3.9251,-3.9727,-4.0668,-3.8276,-3.659,-3.565,-3.565,-3.5585,-3.5493,-3.5493,-3.5493,-3.5493,-3.5493,-3.5493,-3.543,-3.4474,-3.409,-3.4116,-3.4193,-3.2725,-3.0651,-3.159,-3.1338,-3.0576,0.0,0.0,0.0,0.0,0.0,0.0,0.0,0.0,0.0,0.0,-0.6117,-0.579,-0.5333,-0.4535,-0.3602,-0.2453,-0.0594,0.0986,0.2244,0.0,0.0,0.0,0.0,0.1828,0.1585,0.0575,-0.0448,-0.1452,-0.0734,-0.0824,-0.1502,-0.1656,-0.1878,-0.2173,-0.3196,-0.4032,-0.4574,-0.4389,-0.4495,-0.476,-0.3556,-0.2345,-0.1439,-0.3695,-0.5115,-0.5918,-0.5961,-0.6194,-0.6539,-0.6309,0.0,0.0,0.0,0.0,0.0,0.0,0.0,0.0,0.0,0.0,0.0,0.0,0.0,0.0,0.0,0.0,0.0,0.0,0.0,0.0,0.0,0.0,0.0,0.0,-3.0139,-3.1254,-3.1545,-3.2664,-3.4388,-3.6871,-3.8904,-4.0424,-4.1291,-4.222,-4.2715,-4.2539,-4.3372,-4.3588,-4.2887,-4.3429,-4.3412,-4.2662,-4.1239,-4.0489,-4.0489,-3.718,-3.5493,-3.5493,-3.5493,-3.5493,-3.5493,-3.5493,-3.5493,0.0,-3.5493,-3.5493,-3.5493,-3.5493,-3.5493,0.0,0.0,0.0,0.0,0.0,-3.1628,-3.0436,0.0,0.0,0.0,0.0,0.0,0.0,0.0,0.0,0.0,0.0,0.0,-0.708,-0.6595,-0.5851,-0.53,-0.4958,-0.2477,-0.0744,0.0,0.0,0.0,-0.0686,0.0066,0.0635,0.1065,0.0078,-0.0969,-0.2014,-0.1898,-0.2529,-0.3826,-0.407,-0.4332,-0.453,-0.5808,-0.6318,-0.6324,-0.6305,-0.6091,-0.5866,-0.6326,-0.5165,-0.3526,-0.6683,-0.7901,-0.7902,-0.8127,-0.8125,-0.7949,-0.7875,0.0,0.0,0.0,0.0,0.0,0.0,0.0,0.0,0.0,0.0,0.0,0.0,0.0,0.0,0.0,0.0,0.0,0.0,0.0,0.0,0.0,0.0,0.0,0.0,-3.3796,-3.6376,-3.7521,-3.7111,-3.7783,-4.0797,-4.2005,-4.2914,-4.3769,-4.4608,-4.4548,-4.3181,-4.4944,-4.5295,-4.3489,0.0,0.0,0.0,0.0,-4.0489,-4.0489,-3.718,-3.5699,-3.6065,-3.6065,-3.6065,-3.6065,-3.6065,-3.6065,-3.6065,-3.6065,-3.6065,-3.6026,-3.5661,-3.5718,-3.6026,-3.5661,-3.5493,-3.5493,-3.5493,-3.357,-3.0975,0.0,0.0,0.0,0.0,0.0,0.0,0.0,0.0,0.0,-0.9347,-0.9564,-0.9296,-0.7548,-0.7468,-0.6875,-0.5198,-0.4355,-0.288,0.0,0.0,-0.1112,-0.1227,-0.2228,-0.2752,-0.2706,-0.3692,-0.4257,-0.4379,-0.4814,-0.5225,-0.5502,-0.5817,-0.6026,-0.6301,-0.6319,-0.7346,-0.9023,-0.889,-0.9156,-0.9566,-1.0585,-0.8532,-0.5214,-0.769,-0.8524,-0.8473,-0.9361,-1.0602,-1.1744,-1.142,-1.2244,-1.3243,-1.2382,0.0,0.0,0.0,0.0,0.0,0.0,0.0,0.0,0.0,0.0,0.0,0.0,0.0,0.0,0.0,0.0,0.0,0.0,0.0,0.0,-3.4301,-3.6066,-3.8007,-4.0889,-4.1744,-4.2075,-4.2044,-4.3395,-4.4433,-4.4719,-4.5343,-4.565,-4.5455,-4.5692,-4.5699,-4.5315,-4.547,0.0,-4.5586,-4.2277,-4.0489,-4.0489,-3.718,-3.6873,-3.9527,0.0,0.0,-3.9527,-3.9527,-3.9527,-3.9527,-3.9527,-3.9527,-3.9315,-3.6622,-3.7084,-3.9258,-3.6565,-3.5493,-3.5493,-3.5493,-3.507,-3.4513,0.0,0.0,0.0,0.0,0.0,0.0,0.0,0.0,0.0,0.0,-1.1437,-1.1005,-0.9376,-0.8835,-0.8138,-0.7051,-0.5393,0.0,0.0,-0.0888,-0.1655,-0.2487,-0.4004,-0.5071,-0.5416,-0.648,-0.7078,-0.7186,-0.6879,-0.6796,-0.6864,-0.7182,-0.7781,-0.8753,-0.9317,-1.0473,-1.1966,-1.1994,-1.1881,-1.1833,-1.2275,-1.1297,-0.9665,-1.0216,-1.0478,-1.068,-1.1745,-1.2833,-1.377,-1.3996,-1.4678,-1.5366,-1.4854,-1.4841,-1.5171,0.0,0.0,0.0,0.0,0.0,0.0,0.0,0.0,0.0,0.0,0.0,0.0,0.0,0.0,-2.9893,0.0,0.0,-3.4863,-3.796,-3.9574,-4.1171,-4.3221,-4.4222,-4.4434,-4.3592,-4.4598,-4.5389,-4.5442,-4.5706,-4.5919,-4.5945,-4.5854,-4.5776,-4.5699,-4.5624,-4.5336,-4.4759,-4.3085,-4.1643,-4.0508,-3.8834,-3.8834,-4.0489,-4.0489,-4.0489,-4.0489,-4.0489,-4.0489,-4.0489,-4.0489,-4.0489,-4.0239,-3.6892,-3.6488,-3.7834,-3.6161,-3.5493,-3.5493,-3.5493,-3.5493,-3.5493,0.0,0.0,0.0,0.0,0.0,0.0,0.0,0.0,0.0,0.0,0.0,-1.2295,-1.1204,-0.9961,-0.9004,0.0,0.0,0.0,0.0,-0.1519,-0.2483,-0.3821,-0.5705,-0.7062,-0.7789,-0.9675,-1.0671,-1.0662,-1.006,-0.9736,-0.9614,-1.0103,-1.0895,-1.2102,-1.3407,-1.4438,-1.512,-1.5249,-1.4701,-1.387,-1.4141,-1.4268,-1.4282,-1.3798,-1.3497,-1.3385,-1.4452,-1.5046,-1.5379,-1.593,-1.645,-1.677,-1.6477,-1.688,-1.7478,-1.7485,-1.7518,0.0,0.0,0.0,0.0,0.0,0.0,0.0,0.0,0.0,-2.8465,-3.0402,-3.1891,-3.3511,-3.5747,-3.7142,-3.871,-4.1127,-4.2789,-4.4071,-4.4808,-4.5481,-4.5565,-4.4722,-4.5375,-4.5879,-4.5896,-4.5866,-4.5835,-4.5806,-4.5774,-4.5719,-4.5605,-4.5586,-4.5182,-4.4259,-4.3912,-4.3008,-4.1508,-4.0816,-4.0662,-4.1008,-4.1335,-4.1219,-4.0739,-4.0566,-4.0489,-4.0489,-4.0489,-4.0489,-4.0277,-3.7584,-3.6469,-3.6469,-3.6469,-3.6469,-3.6392,-3.5738,-3.5493,-3.5493,0.0,0.0,0.0,0.0,0.0,0.0,0.0,0.0,0.0,0.0,0.0,0.0,0.0,0.0,0.0,0.0,0.0,0.0,-0.3021,-0.3498,-0.4117,-0.487,-0.777,-0.9669,-1.0382,-1.4527,-1.6372,-1.5734,-1.707,-1.7272,-1.6181,-1.735,-1.7588,-1.6847,-1.8026,-1.8521,-1.8507,-1.8789,-1.7895,-1.6667,-1.8748,-1.8321,-1.6629,-1.876,-1.7825,-1.5532,-1.7001,-1.764,-1.7639,-1.7247,-1.7721,-1.825,-1.7122,-1.702,-1.739,-1.7739,0.0,-1.885,-2.0223,-2.142,-2.2911,-2.5419,-2.6133,-2.6925,0.0,0.0,-3.3176,-3.3559,-3.5725,-3.7666,-3.8102,-3.9488,-4.1185,-4.2996,-4.4032,-4.4836,-4.5558,-4.5736,-4.5447,-4.446,-4.5208,-4.5831,-4.5886,-4.575,-4.5684,-4.5791,-4.5687,-4.5605,-4.5586,-4.5586,-4.5528,-4.5413,-4.397,-4.3778,-4.5009,-4.2008,-4.1277,-4.2835,-4.4316,-4.3835,-4.1643,-4.0854,-4.0489,-4.0489,-4.0489,-4.0489,-4.0469,-4.0085,-3.9931,-3.9931,-3.9931,-3.9931,-3.9585,-3.6603,-3.5493,-3.5493,0.0,0.0,0.0,0.0,0.0,0.0,0.0,0.0,0.0,0.0,0.0,0.0,0.0,0.0,0.0,0.0,0.0,0.0,-0.591,-0.6294,-0.7532,-0.9952,-1.2719,-1.5886,-1.9557,-2.2571,-2.3688,-2.2913,-2.3615,-2.308,-2.1322,-2.1937,-2.2661,-2.3403,-2.3399,-2.3805,-2.4336,-2.3525,-2.2646,-2.1909,-2.2806,-2.2633,-2.1977,-2.3141,-2.2265,-2.0488,-1.9973,-1.9485,0.0,0.0,-1.9925,-2.0253,-1.9643,-1.9389,-1.9375,-1.9941,-2.0309,0.0,-2.2389,-2.3819,-2.5306,0.0,-2.8334,-2.9869,-3.2775,-3.4506,-3.5956,-3.7709,-3.9381,-4.0859,-4.1964,-4.2704,-4.3523,0.0,-4.5143,-4.5413,-4.5643,-4.524,-4.4586,-4.3701,-4.3807,-4.4209,-4.4909,-4.4903,-4.5081,-4.5645,-4.5637,-4.5586,-4.5586,-4.5586,-4.5355,-4.4855,-4.4008,-4.3566,-4.3605,-4.1546,-4.0873,-4.1623,-4.4297,-4.5028,-4.3932,-4.1566,-4.0995,-4.1829,-4.0915,-4.046,-4.0379,-4.0476,-4.0489,-4.0489,-4.0489,-4.0489,-4.0335,-3.884,-3.8293,-3.8005,0.0,0.0,0.0,0.0,0.0,0.0,0.0,0.0,0.0,0.0,0.0,0.0,0.0,0.0,0.0,0.0,0.0,0.0,0.0,-0.9397,-1.0739,-1.322,-1.6649,-2.056,-2.5093,-2.8186,-2.9496,-2.8965,-2.9618,-2.9021,-2.7326,-2.7576,-2.8397,-2.9686,-2.9439,-2.9583,-2.9886,-2.8418,-2.7409,-2.6807,-2.676,-2.6504,-2.6158,-2.6512,-2.5673,-2.4154,-2.223,-2.0938,0.0,0.0,-2.1152,-2.1406,-2.137,-2.1247,-2.128,-2.2066,-2.2508,-2.3061,-2.4526,0.0,0.0,-2.9418,-3.1367,-3.3551,-3.6131,-3.7613,-3.9099,-4.1466,-4.2416,-4.3212,-4.4538,-4.4697,-4.4814,-4.5346,-4.5622,-4.5719,-4.5605,-4.4589,-4.3651,-4.3038,-4.2068,-4.1969,-4.3235,-4.3655,-4.419,-4.5072,-4.5111,-4.5207,-4.5457,-4.555,-4.5297,-4.4682,-4.447,-4.397,-4.3143,-4.2316,-4.1912,-4.1931,-4.4412,-4.5586,-4.549,-4.253,-4.204,-4.3503,-4.233,-4.1241,-4.031,-4.0396,-4.0444,-4.0444,-4.0444,-4.0444,-4.0427,-4.0346,-4.031,-3.9947,0.0,0.0,0.0,0.0,0.0,0.0,0.0,0.0,0.0,0.0,0.0,0.0,0.0,0.0,0.0,0.0,0.0,0.0,0.0,-1.2725,-1.3027,-1.2759,-1.8326,-2.2013,-2.3146,-2.9235,-3.2475,-3.2655,-3.5197,-3.5881,-3.4896,-3.5908,-3.586,-3.4894,-3.6025,-3.5743,-3.4407,-3.3141,-3.1767,-3.0446,-3.0787,-2.9547,-2.764,-2.8614,-2.7374,-2.4862,-2.3382,0.0,0.0,0.0,-2.0776,-2.1199,-2.1197,-2.1649,0.0,-2.3441,-2.4259,-2.5055,0.0,0.0,-3.0095,-3.301,-3.5675,-3.8112,-4.0077,-4.1855,-4.3381,-4.4388,-4.4609,-4.463,-4.4694,-4.4598,-4.4504,-4.4542,-4.5141,-4.5586,-4.5586,-4.3943,-4.2717,-4.262,-4.0262,-3.9255,0.0,-4.1998,-4.3002,-4.3901,-4.3897,-4.4219,-4.508,-4.5419,-4.5586,-4.5547,-4.5547,-4.5528,-4.549,-4.5451,-4.5451,-4.5451,-4.5547,-4.5586,-4.5528,-4.3654,-4.3714,-4.5201,-4.5184,-4.331,-4.031,-4.0291,-4.031,-4.031,-4.031,-4.031,-4.031,-4.031,-4.031,-4.0291,0.0,0.0,0.0,0.0,0.0,0.0,0.0,0.0,0.0,0.0,0.0,0.0,0.0,0.0,0.0,0.0,0.0,0.0,0.0,-1.4825,-1.5293,-1.6609,-1.957,-2.3028,-2.6939,-3.0781,-3.3765,-3.5794,-3.7296,-3.785,-3.7503,-3.7368,-3.738,-3.7598,-3.6939,-3.6544,-3.6243,-3.461,-3.4347,-3.4838,-3.2671,-3.2052,-3.2171,-2.9655,-2.7885,-2.6563,0.0,0.0,0.0,0.0,-2.2063,-2.2255,-2.1959,0.0,-2.2954,-2.4482,-2.6088,-2.7661,-2.9101,0.0,-3.393,-3.6659,-3.855,-4.0365,-4.2791,-4.3811,-4.4146,-4.3882,-4.3339,-4.2554,-4.1403,-4.1559,-4.1975,-4.2317,-4.3502,-4.4512,-4.489,-4.3881,-4.2673,-4.1533,-4.0384,0.0,0.0,0.0,0.0,-4.336,-4.3493,-4.3848,-4.4719,-4.4872,-4.4943,-4.4943,-4.5077,-4.5283,-4.5586,-4.5586,-4.5586,-4.5586,-4.5458,-4.54,-4.538,-4.4786,-4.4804,-4.5321,-4.4575,-4.348,-4.2303,-4.3369,-4.243,-4.031,-4.031,-4.031,-4.031,-4.031,-4.031,-4.0138,0.0,0.0,0.0,0.0,0.0,0.0,0.0,0.0,0.0,0.0,0.0,0.0,0.0,0.0,0.0,0.0,0.0,0.0,0.0,0.0,-1.6953,-1.7818,-2.0051,-2.2989,-2.664,-3.0037,-3.2923,-3.5254,-3.643,-3.703,-3.7042,-3.6528,-3.6651,-3.7287,-3.6293,-3.6021,-3.6255,-3.4624,-3.442,-3.5028,-3.278,-3.2056,-3.2043,-2.948,-2.7906,0.0,0.0,0.0,0.0,-2.3458,0.0,-2.3513,-2.322,-2.3548,-2.4395,-2.6149,-2.8051,-3.0092,-3.2439,-3.5069,-3.7685,-4.0049,-4.1596,-4.2986,-4.4725,-4.4645,-4.3863,-4.2685,-4.1471,-4.0057,-3.8208,-3.8274,-3.8884,-3.9698,-4.1009,-4.2332,-4.3536,-4.2855,-4.2081,-4.1567,-4.0458,-3.9544,0.0,0.0,0.0,-4.2145,-4.2795,-4.3378,-4.395,-4.4223,-4.4392,-4.4392,-4.4738,-4.5014,-4.5243,-4.5495,-4.555,-4.5495,-4.536,-4.5297,-4.5297,-4.5297,-4.5317,-4.5301,-4.4372,-4.3418,-4.264,-4.3838,-4.298,-4.091,-4.0883,-4.0883,-4.0826,-4.0444,-4.054,-4.0654,0.0,0.0,0.0,0.0,0.0,0.0,0.0,0.0,0.0,0.0,0.0,0.0,0.0,0.0,0.0,0.0,0.0,0.0,0.0,0.0,0.0,-1.6435,-1.9805,-2.1975,-2.2532,-2.7139,-3.0162,-3.1458,-3.3016,-3.3834,-3.3895,-3.3858,-3.399,-3.4262,-3.4222,-3.4337,-3.4462,-3.3259,-3.2277,-3.1552,-3.1371,-2.9917,-2.7926,-2.8206,0.0,0.0,0.0,0.0,0.0,0.0,0.0,0.0,0.0,-2.5605,-2.6742,-2.8498,-3.0271,-3.2432,-3.6007,-3.8848,-4.1234,-4.3081,-4.4662,-4.5801,-4.578,-4.4413,-4.2669,-4.0875,-3.9124,-3.7296,0.0,0.0,-3.5562,-3.6933,-3.7972,-3.9444,-4.1882,-4.1282,-4.1129,0.0,0.0,0.0,0.0,0.0,0.0,-4.0393,0.0,-4.2802,-4.2843,-4.3558,-4.3986,-4.3986,-4.4542,-4.4738,-4.4553,-4.5182,-4.54,-4.5213,-4.5213,-4.5213,-4.5235,-4.5256,-4.5275,-4.5235,-4.4631,-4.3276,-4.1472,-4.1738,-4.1893,-4.1945,-4.1884,-4.1876,-4.1743,-4.075,-4.1036,-4.18,0.0,0.0,0.0,0.0,0.0,0.0,0.0,0.0,0.0,0.0,0.0,0.0,0.0,0.0,0.0,0.0,0.0,0.0,0.0,0.0,0.0,0.0,0.0,0.0,0.0,0.0,0.0,0.0,0.0,-3.1004,-3.1389,-3.0807,-3.077,-3.1205,-3.0602,-3.0633,-3.1116,-3.075,-3.1226,-3.2024,0.0,-2.921,-3.0127,0.0,0.0,0.0,0.0,0.0,0.0,0.0,0.0,0.0,0.0,-2.8519,-3.0569,-3.1677,-3.4109,-3.6899,-3.8983,-4.141,-4.3645,-4.4883,-4.5499,-4.5499,-4.4307,-4.266,-4.0696,-3.835,-3.583,-3.367,0.0,0.0,0.0,-3.6451,-3.8502,0.0,-4.3643,-4.3254,0.0,-4.3262,0.0,-4.1313,-4.113,-4.146,0.0,0.0,-4.1862,-4.2691,-4.3281,-4.3502,-4.3631,-4.3631,-4.3791,-4.3836,-4.3791,-4.3943,-4.4004,-4.398,-4.398,-4.4114,-4.4402,-4.4714,-4.4789,-4.4682,-4.4288,-4.3478,-4.2305,-4.0595,-4.0408,-4.1191,-4.1439,-4.1522,-4.151,-4.1283,-4.1781,-4.2584,0.0,0.0,0.0,0.0,0.0,0.0,0.0,0.0,0.0,0.0,0.0,0.0,0.0,0.0,0.0,0.0,0.0,0.0,0.0,0.0,0.0,0.0,0.0,0.0,0.0,0.0,0.0,0.0,0.0,0.0,0.0,-2.6676,-2.6734,-2.7287,-2.6903,-2.7101,-2.7662,0.0,0.0,0.0,0.0,0.0,0.0,0.0,0.0,0.0,0.0,0.0,0.0,0.0,0.0,-2.9012,-2.9783,-3.1601,-3.3787,-3.5435,0.0,-3.9781,-4.1799,-4.3642,-4.5145,-4.5706,-4.5246,-4.4342,-4.3062,-4.0446,-3.7559,-3.5004,-3.2546,0.0,0.0,0.0,0.0,0.0,0.0,0.0,-4.2117,-4.2818,-4.3094,0.0,-4.3094,0.0,-4.2194,-4.2561,-4.2635,0.0,-4.2561,-4.2873,-4.2965,-4.3296,-4.3497,-4.3497,-4.3497,-4.3497,-4.3497,-4.3497,-4.3497,-4.3479,-4.3697,-4.398,-4.4374,-4.461,-4.4669,-4.4606,0.0,-4.3544,-4.2646,-4.1287,-4.0905,-4.1139,-4.1111,-4.1305,-4.1574,-4.1272,-4.2012,-4.3145,0.0,0.0,0.0,0.0,0.0,0.0,0.0,0.0,0.0,0.0,0.0,0.0,0.0,0.0,0.0,0.0,0.0,0.0,0.0,0.0,0.0,0.0,0.0,0.0,0.0,0.0,0.0,0.0,0.0,0.0,0.0,0.0,0.0,0.0,0.0,0.0,0.0,0.0,0.0,0.0,0.0,0.0,0.0,0.0,0.0,0.0,0.0,0.0,0.0,0.0,-2.95,-3.1055,-3.2881,-3.4834,-3.6918,-3.9285,-4.061,-4.1833,-4.432,-4.5413,-4.5892,-4.6007,-4.4506,-4.2752,-4.1659,-3.7936,-3.4022,-3.1665,0.0,-2.7966,-2.7214,-2.7028,-2.8287,-3.2125,0.0,-3.533,-3.9753,-4.1405,-4.2525,-4.3534,-4.3552,-4.3497,-4.3497,-4.3497,-4.3497,-4.3497,-4.3497,-4.3185,-4.2506,-4.3112,-4.3497,-4.3497,-4.3497,-4.3497,-4.3497,-4.3497,-4.3497,-4.3479,-4.3841,-4.4202,-4.4538,-4.4584,-4.4617,-4.4624,0.0,0.0,-4.2656,-4.2686,-4.2203,-4.1423,-4.1089,-4.1383,-4.1927,-4.1304,-4.2215,-4.3644,0.0,0.0,0.0,0.0,0.0,0.0,0.0,0.0,0.0,0.0,0.0,0.0,0.0,0.0,0.0,0.0,0.0,0.0,0.0,0.0,0.0,0.0,0.0,0.0,0.0,0.0,0.0,0.0,0.0,0.0,0.0,0.0,0.0,0.0,0.0,0.0,0.0,0.0,0.0,0.0,0.0,0.0,0.0,0.0,0.0,0.0,0.0,0.0,0.0,0.0,-3.0299,-3.2933,-3.511,-3.815,-4.1123,-4.2245,-4.3181,-4.4263,-4.603,-4.6086,-4.5817,-4.6547,-4.4374,-4.1399,-3.8999,-3.5124,0.0,0.0,-2.8007,-2.6561,-2.768,-2.7763,-2.8956,-3.2926,0.0,0.0,0.0,0.0,-4.2103,0.0,0.0,0.0,0.0,0.0,0.0,0.0,0.0,-4.3424,-4.3296,-4.3406,-4.3497,-4.3497,-4.3497,-4.3497,-4.3497,-4.3497,-4.3497,-4.3497,-4.3582,-4.3631,-4.373,-4.4017,-4.3968,-4.3744,-4.4173,0.0,-4.24,-4.2613,-4.2088,-4.1259,-4.2043,-4.2422,-4.2592,-4.297,-4.3729,-4.4502,0.0,0.0,0.0,0.0,0.0,0.0,0.0,0.0,0.0,0.0,-2.2389,0.0,0.0,0.0,0.0,0.0,0.0,0.0,0.0,0.0,0.0,0.0,0.0,0.0,0.0,0.0,0.0,0.0,0.0,0.0,0.0,0.0,0.0,0.0,0.0,0.0,0.0,0.0,0.0,0.0,0.0,0.0,0.0,0.0,0.0,0.0,0.0,0.0,0.0,0.0,-2.9456,-3.1675,-3.5108,-3.8594,-4.1589,-4.2387,-4.3654,-4.5034,-4.6031,-4.6156,-4.5915,-4.5748,-4.2543,-3.8937,-3.7167,0.0,0.0,0.0,-2.7121,-2.591,-2.7095,0.0,0.0,0.0,0.0,0.0,0.0,0.0,0.0,0.0,0.0,0.0,0.0,0.0,0.0,0.0,0.0,-4.3497,-4.3497,-4.3497,-4.3497,-4.3497,-4.3497,-4.3497,-4.3497,-4.3497,-4.3497,-4.3497,-4.3497,-4.3582,-4.3781,-4.3942,-4.391,-4.3781,-4.406,0.0,-4.2907,-4.2613,-4.2193,-4.1699,-4.1525,-4.1791,-4.2266,-4.2292,-4.3359,-4.4713,0.0,0.0,0.0,0.0,0.0,0.0,0.0,-2.2788,-2.2609,-2.1938,-2.1351,-2.137,-2.2383,-2.2422,0.0,0.0,0.0,0.0,0.0,0.0,0.0,0.0,0.0,0.0,0.0,0.0,0.0,0.0,0.0,0.0,0.0,0.0,0.0,0.0,0.0,0.0,0.0,0.0,0.0,0.0,0.0,0.0,0.0,0.0,0.0,0.0,0.0,0.0,0.0,0.0,-2.7708,-2.915,-3.2866,-3.6795,-4.0212,-4.1184,-4.289,-4.4642,-4.5564,-4.588,-4.5722,-4.4833,-4.074,-3.6642,-3.556,-3.1354,0.0,0.0,-2.6242,-2.5383,-2.619,0.0,-2.5915,0.0,0.0,0.0,0.0,0.0,0.0,0.0,0.0,0.0,0.0,0.0,0.0,0.0,0.0,0.0,-4.3497,-4.3497,-4.3497,-4.3497,-4.3497,-4.3497,-4.3497,-4.3497,-4.3497,-4.3497,-4.3497,-4.3649,-4.391,-4.391,-4.391,-4.391,-4.391,0.0,0.0,-4.2708,-4.2415,-4.2121,-4.1313,-4.1497,-4.2209,-4.1899,-4.3003,-4.4643,0.0,0.0,0.0,0.0,0.0,0.0,0.0,-2.1505,-2.1595,-2.1181,-2.1054,-2.1022,-2.1164,-2.0911,0.0,0.0,0.0,0.0,0.0,0.0,0.0,0.0,0.0,0.0,0.0,0.0,0.0,0.0,0.0,0.0,0.0,0.0,0.0,0.0,0.0,0.0,0.0,0.0,0.0,0.0,0.0,0.0,0.0,0.0,0.0,0.0,0.0,0.0,0.0,0.0,0.0,-2.6144,-2.7294,-3.201,-3.7468,-3.9024,0.0,0.0,-4.5172,-4.5285,-4.4726,-4.4631,-4.0268,-3.556,-3.3848,0.0,0.0,-2.5704,-2.4925,-2.4557,-2.5366,-2.485,-2.5089,0.0,0.0,0.0,0.0,0.0,0.0,0.0,0.0,0.0,0.0,0.0,0.0,0.0,0.0,0.0,-4.3497,-4.3497,-4.3497,-4.3497,-4.3497,-4.3497,-4.3497,-4.3497,-4.3497,-4.3497,-4.3497,-4.3532,-4.3566,-4.3566,-4.3566,-4.3566,-4.3566,0.0,0.0,-4.3002,-4.28,-4.2011,-4.2855,-4.3259,-4.3416,-4.3908,-4.4243,-4.4511,0.0,0.0,0.0,0.0,0.0,0.0,0.0,-2.1134,-2.1086,-2.0649,-2.0829,-2.0894,-2.0616,-2.0938,0.0,0.0,0.0,0.0,0.0,0.0,0.0,0.0,0.0,0.0,0.0,0.0,0.0,0.0,0.0,0.0,0.0,0.0,0.0,0.0,0.0,0.0,0.0,0.0,0.0,0.0,0.0,0.0,0.0,0.0,0.0,0.0,0.0,0.0,0.0,0.0,0.0,0.0,-2.4234,-2.6869,0.0,0.0,-3.7572,-4.057,-4.2686,-4.4123,-4.4597,-4.2906,-3.8906,-3.4785,-3.2617,0.0,0.0,-2.6137,-2.5474,-2.5035,-2.5348,-2.474,-2.4502,0.0,0.0,0.0,0.0,0.0,0.0,0.0,0.0,0.0,0.0,0.0,0.0,0.0,0.0,0.0,-4.3497,-4.3497,-4.3497,-4.3497,-4.3497,-4.3497,-4.3497,-4.3497,-4.3497,-4.3497,-4.3497,-4.3497,-4.3497,-4.3497,-4.3497,-4.3497,-4.3497,0.0,0.0,-4.3314,-4.324,-4.2892,-4.3314,-4.3497,-4.3597,-4.4591,-4.4789,-4.4643,0.0,0.0,0.0,0.0,0.0,0.0,-2.0616,-2.0731,-2.0616,-2.0193,-2.0632,-2.0862,-2.0532,-2.115,-2.1446,-2.1134,0.0,0.0,0.0,0.0,0.0,0.0,0.0,0.0,0.0,0.0,0.0,0.0,0.0,0.0,0.0,0.0,0.0,0.0,0.0,0.0,0.0,0.0,0.0,0.0,0.0,0.0,0.0,0.0,0.0,0.0,0.0,0.0,0.0,0.0,0.0,0.0,0.0,0.0,0.0,0.0,-3.3954,-3.7387,-3.9171,-4.1382,-4.2562,-4.0093,-3.6673,-3.3385,0.0,0.0,0.0,-2.5897,-2.5438,-2.5054,-2.5054,-2.4575,-2.419,0.0,0.0,-2.5162,0.0,0.0,0.0,0.0,0.0,0.0,0.0,0.0,0.0,0.0,0.0,0.0,0.0,-4.2782,-4.2892,-4.313,-4.3149,-4.3149,-4.3149,-4.291,-4.302,-4.3497,-4.3259,-4.3259,-4.3497,-4.3497,-4.3497,-4.3497,0.0,0.0,0.0,-4.3497,-4.3497,-4.3513,-4.3697,-4.3712,-4.3777,-4.4695,-4.4953,-4.4905,0.0,0.0,0.0,0.0,0.0,0.0,0.0,-2.0054,-2.0158,-1.9747,-2.0481,-2.0975,-2.0893,-2.1276,-2.1462,-2.1417,0.0,0.0,0.0,0.0,0.0,0.0,0.0,0.0,0.0,0.0,0.0,0.0,0.0,0.0,0.0,0.0,0.0,0.0,0.0,0.0,0.0,0.0,0.0,0.0,0.0,0.0,0.0,0.0,0.0,0.0,0.0,0.0,0.0,0.0,0.0,0.0,0.0,0.0,0.0,0.0,-3.0066,-3.3105,-3.4722,-3.6604,-3.7688,-3.6063,-3.3512,-3.0999,0.0,0.0,-2.4226,-2.4226,-2.4226,-2.4208,-2.4208,-2.4208,-2.419,-2.419,0.0,0.0,0.0,0.0,0.0,0.0,0.0,0.0,0.0,0.0,0.0,0.0,0.0,0.0,0.0,-4.113,-4.1497,-4.2286,-4.2304,-4.2304,-4.2304,-4.1534,-4.1919,-4.3479,-4.269,-4.2727,-4.3497,-4.3497,-4.3497,0.0,0.0,0.0,0.0,-4.3497,-4.3497,-4.3548,-4.4173,-4.426,-4.4132,-4.4346,-4.4789,-4.5297,0.0,0.0,0.0,0.0,0.0,0.0,0.0,-1.9818,-1.9839,-1.9711,-2.0481,-2.1007,-2.0975,-2.1615,-2.1915,-2.1584,0.0,0.0,0.0,0.0,0.0,0.0,0.0,0.0,0.0,0.0,0.0,0.0,0.0,0.0,0.0,0.0,0.0,0.0,0.0,0.0,0.0,0.0,0.0,0.0,0.0,0.0,0.0,0.0,0.0,0.0,0.0,0.0,0.0,0.0,0.0,0.0,0.0,0.0,0.0,0.0,0.0,0.0,-3.1064,-3.2948,-3.4128,-3.2534,-3.1173,-2.9664,-2.7513,0.0,-2.485,-2.43,-2.419,-2.419,-2.419,-2.419,-2.419,-2.419,-2.4649,0.0,0.0,0.0,0.0,0.0,0.0,0.0,0.0,0.0,0.0,0.0,0.0,0.0,0.0,-4.1111,-4.124,-4.1479,-4.1497,-4.1497,-4.1497,-4.124,-4.1552,-4.2378,-4.2139,-4.2525,-4.3497,-4.3497,0.0,0.0,0.0,0.0,0.0,-4.3497,-4.3497,-4.3548,-4.4011,-4.4162,-4.4162,-4.4519,-4.4795,-4.4981,0.0,0.0,0.0,0.0,0.0,0.0,0.0,-1.969,-1.9747,-1.9909,-2.0565,-2.1055,-2.1166,-2.1827,-2.2106,-2.1777,0.0,0.0,0.0,0.0,0.0,0.0,0.0,0.0,0.0,0.0,0.0,0.0,0.0,0.0,0.0,0.0,0.0,0.0,0.0,0.0,0.0,0.0,0.0,0.0,0.0,0.0,-2.2061,0.0,0.0,0.0,0.0,0.0,0.0,0.0,0.0,0.0,0.0,0.0,0.0,0.0,-2.387,0.0,0.0,-2.9271,-3.0508,-2.9207,-2.8513,0.0,0.0,0.0,-2.4457,-2.4087,-2.4016,-2.4054,-2.417,-2.419,-2.419,-2.419,-2.4612,0.0,0.0,0.0,0.0,0.0,0.0,0.0,0.0,0.0,0.0,0.0,0.0,0.0,0.0,-4.0377,-4.0194,-4.0194,-4.0506,-4.0653,-4.0653,-4.0359,-4.0671,-4.1589,-4.1589,-4.2103,-4.3057,-4.3351,0.0,0.0,0.0,0.0,0.0,-4.3497,-4.3582,-4.3697,-4.4072,-4.4289,-4.4411,-4.4819,-4.5,-4.5023,0.0,0.0,0.0,0.0,0.0,0.0,0.0,0.0,0.0,0.0,-2.0748,-2.115,-2.1477,-2.1932,-2.2152,0.0,0.0,0.0,0.0,0.0,0.0,0.0,0.0,0.0,0.0,0.0,0.0,-2.3135,-2.3135,-2.33,-2.3584,0.0,0.0,0.0,0.0,0.0,0.0,0.0,0.0,0.0,0.0,0.0,0.0,0.0,0.0,0.0,0.0,0.0,0.0,0.0,0.0,0.0,0.0,0.0,0.0,0.0,0.0,0.0,0.0,-2.5647,0.0,0.0,0.0,0.0,0.0,0.0,0.0,-2.3649,-2.3714,-2.3816,-2.4151,-2.419,-2.419,-2.419,-2.4337,0.0,0.0,0.0,0.0,0.0,0.0,0.0,0.0,0.0,0.0,0.0,0.0,0.0,0.0,-3.9111,-3.8707,-3.8707,-3.9423,-3.9808,-3.9808,-3.9074,-3.9496,-4.1056,-4.1056,-4.1515,-4.2415,-4.3149,0.0,0.0,0.0,0.0,0.0,-4.3497,-4.3682,-4.4036,-4.4308,-4.4572,-4.4843,-4.5173,-4.5297,-4.5297,0.0,0.0,0.0,0.0,0.0,0.0,0.0,0.0,0.0,0.0,0.0,-2.1491,-2.1568,-2.202,0.0,0.0,0.0,0.0,0.0,0.0,0.0,0.0,0.0,0.0,0.0,0.0,0.0,-2.2508,-2.2508,-2.2561,-2.2624,-2.2405,0.0,0.0,0.0,0.0,0.0,0.0,0.0,0.0,0.0,0.0,0.0,0.0,0.0,0.0,-2.2135,-2.231,0.0,0.0,0.0,0.0,0.0,0.0,0.0,0.0,-2.231,-2.2395,-2.2733,0.0,-2.3448,-2.3249,-2.3315,-2.3336,0.0,0.0,-2.3588,-2.3692,0.0,-2.4094,-2.419,-2.419,-2.419,-2.419,0.0,0.0,0.0,0.0,0.0,0.0,0.0,0.0,0.0,0.0,0.0,0.0,0.0,0.0,0.0,-3.8799,-3.8707,-3.8707,-3.8891,-3.8982,-3.8982,-3.8799,-3.9313,-4.0506,-4.0506,-4.146,-4.3222,-4.3406,0.0,0.0,0.0,0.0,-4.3497,-4.3497,-4.3682,-4.4036,-4.4308,-4.4572,-4.4843,-4.5173,-4.5297,-4.5297,0.0,0.0,0.0,0.0,0.0,0.0,0.0,0.0,0.0,0.0,0.0,0.0,0.0,0.0,0.0,0.0,0.0,0.0,0.0,0.0,0.0,0.0,0.0,0.0,0.0,0.0,0.0,0.0,0.0,-2.2473,0.0,0.0,0.0,0.0,0.0,0.0,0.0,0.0,0.0,0.0,-2.1086,0.0,0.0,0.0,0.0,0.0,-2.184,-2.2106,0.0,-2.231,-2.231,-2.231,0.0,0.0,0.0,0.0,-2.231,-2.231,-2.231,-2.231,-2.231,-2.231,-2.2398,-2.2527,-2.2527,0.0,0.0,0.0,0.0,0.0,0.0,0.0,0.0,0.0,0.0,0.0,0.0,0.0,0.0,0.0,0.0,0.0,0.0,0.0,0.0,0.0,0.0,0.0,0.0,-3.834,-3.8138,-3.8138,-3.8138,-3.8291,-3.8609,-3.8658,-3.9153,-4.0075,-4.0474,-4.1479,-4.2947,-4.3314,-4.3497,0.0,0.0,0.0,-4.3497,-4.3497,-4.3763,-4.4192,-4.4346,-4.4669,-4.5045,-4.5235,-4.5297,-4.5297,0.0,0.0,0.0,0.0,0.0,0.0,0.0,0.0,0.0,0.0,0.0,0.0,0.0,0.0,0.0,0.0,0.0,0.0,0.0,0.0,0.0,0.0,0.0,0.0,0.0,0.0,0.0,0.0,0.0,0.0,0.0,0.0,-2.231,0.0,0.0,0.0,0.0,0.0,0.0,0.0,-2.0829,0.0,0.0,0.0,0.0,0.0,0.0,0.0,0.0,-2.218,-2.2237,-2.231,-2.231,0.0,0.0,0.0,0.0,0.0,-2.231,-2.231,-2.231,-2.231,-2.231,-2.231,-2.231,0.0,0.0,0.0,0.0,0.0,0.0,0.0,0.0,0.0,0.0,0.0,0.0,0.0,0.0,0.0,0.0,0.0,0.0,0.0,0.0,0.0,0.0,0.0,0.0,-3.8028,-3.7661,-3.7631,-3.7631,-3.7912,-3.846,-3.8737,-3.9232,-3.9959,-4.0811,-4.165,-4.2472,-4.3151,-4.3497,0.0,0.0,0.0,-4.3497,-4.3497,-4.3855,-4.4383,-4.4383,-4.4764,-4.5297,-4.5297,-4.5297,-4.5297,0.0,0.0,0.0,0.0,0.0,0.0,0.0,0.0,0.0,0.0,0.0,0.0,0.0,0.0,0.0,0.0,0.0,0.0,0.0,0.0,0.0,0.0,0.0,0.0,0.0,0.0,0.0,0.0,0.0,0.0,-2.236,-2.2338,-2.231,-2.2282,0.0,-2.1658,-2.1552,-2.0797,-2.0483,-2.0382,-2.005,0.0,0.0,0.0,0.0,0.0,0.0,0.0,0.0,-2.1718,-2.1957,-2.231,-2.231,0.0,0.0,0.0,0.0,0.0,-2.231,-2.231,-2.231,-2.231,-2.231,-2.231,-2.231,0.0,0.0,0.0,0.0,0.0,0.0,0.0,0.0,0.0,0.0,0.0,0.0,0.0,0.0,0.0,0.0,0.0,0.0,0.0,0.0,0.0,0.0,0.0,0.0,-3.8431,-3.8327,-3.8264,-3.8264,-3.8273,-3.8322,-3.914,-3.9922,-4.0643,-4.1464,-4.2283,-4.3068,-4.3321,-4.3429,0.0,0.0,-4.3497,-4.3497,-4.3497,-4.3855,-4.4383,-4.4383,-4.4764,-4.5297,-4.5297,-4.5297,-4.5297,0.0,0.0,0.0,0.0,0.0,0.0,0.0,0.0,0.0,0.0,0.0,0.0,0.0,0.0,0.0,0.0,0.0,0.0,0.0,0.0,0.0,0.0,0.0,0.0,0.0,0.0,0.0,0.0,0.0,-2.231,-2.231,-2.231,-2.231,-2.2282,0.0,-2.1705,-2.1244,-2.0846,-2.0398,-1.9965,0.0,0.0,0.0,0.0,0.0,0.0,0.0,0.0,0.0,0.0,-2.1899,-2.231,-2.231,0.0,0.0,0.0,0.0,0.0,-2.231,-2.2415,-2.2527,-2.2527,-2.2415,-2.2412,-2.2801,0.0,0.0,0.0,0.0,0.0,0.0,0.0,0.0,0.0,0.0,0.0,0.0,0.0,0.0,0.0,0.0,0.0,0.0,0.0,0.0,0.0,0.0,0.0,0.0,0.0,-3.7838,-3.7807,-3.7776,-3.7931,-3.8307,-3.9155,-3.999,-4.0757,-4.1156,-4.2011,-4.3214,-4.3251,-4.334,-4.3394,0.0,-4.3463,-4.3497,-4.3497,-4.3763,-4.4192,-4.4346,-4.4669,-4.5045,-4.5235,-4.5297,-4.5297,0.0,0.0,0.0,0.0,0.0,0.0,0.0,0.0,0.0,0.0,0.0,0.0,0.0,0.0,0.0,0.0,0.0,0.0,0.0,0.0,0.0,0.0,0.0,0.0,0.0,0.0,-2.2395,-2.2564,-2.2395,-2.231,-2.231,-2.231,-2.231,0.0,0.0,-2.1705,-2.0991,-2.0894,-2.0413,-1.969,0.0,0.0,0.0,0.0,0.0,0.0,0.0,0.0,0.0,0.0,0.0,0.0,0.0,0.0,0.0,-2.231,-2.231,-2.2293,-2.2388,-2.25,-2.2634,-2.2772,0.0,-2.2747,-2.3699,0.0,0.0,0.0,0.0,0.0,0.0,0.0,0.0,0.0,0.0,0.0,0.0,0.0,0.0,0.0,0.0,0.0,0.0,0.0,0.0,0.0,0.0,0.0,0.0,0.0,-3.718,-3.7533,-3.7307,-3.7535,-3.8274,-3.8891,-3.969,-4.0652,-4.0904,-4.1758,-4.3123,-4.3178,-4.3233,-4.334,-4.3394,-4.3446,-4.3497,-4.3497,-4.373,-4.4121,-4.4318,-4.4599,-4.4957,-4.5213,-4.5297,-4.5297,0.0,0.0,0.0,0.0,0.0,0.0,0.0,0.0,0.0,0.0,0.0,0.0,0.0,0.0,0.0,0.0,0.0,0.0,0.0,0.0,0.0,0.0,0.0,0.0,0.0,-2.2649,-2.2649,-2.3325,-2.2649,-2.231,-2.231,-2.231,-2.231,-2.2282,0.0,-2.1399,-2.0959,-2.055,-2.0089,-1.969,-1.969,0.0,0.0,0.0,0.0,0.0,0.0,0.0,0.0,0.0,0.0,0.0,0.0,0.0,-2.231,-2.231,-2.231,-2.2332,-2.2599,-2.25,-2.2453,-2.3014,-2.3141,0.0,-2.5083,-2.6047,0.0,0.0,0.0,0.0,0.0,0.0,0.0,0.0,0.0,0.0,0.0,0.0,0.0,0.0,0.0,0.0,0.0,0.0,0.0,0.0,0.0,0.0,0.0,0.0,0.0,-3.8194,-3.7489,-3.7457,-3.8207,-3.828,-3.9025,-4.0528,-4.127,-4.2085,-4.2938,-4.3049,-4.316,-4.3214,-4.334,-4.3446,-4.3497,-4.3497,-4.3823,-4.4374,-4.4383,-4.4745,-4.5256,-4.5297,-4.5297,-4.5297,0.0,0.0,0.0,0.0,0.0,0.0,0.0,0.0,0.0,0.0,0.0,0.0,0.0,0.0,0.0,0.0,0.0,0.0,0.0,0.0,0.0,0.0,0.0,-2.2337,-2.3376,-2.2682,-2.2446,-2.2733,-2.2446,-2.231,-2.231,-2.231,0.0,0.0,0.0,-2.1811,-2.1368,-2.1197,-2.0715,-2.0054,-2.0054,-1.9909,0.0,0.0,0.0,0.0,0.0,0.0,0.0,0.0,-2.1781,-2.231,0.0,0.0,-2.231,-2.231,-2.2426,-2.2563,-2.2669,-2.294,-2.3224,-2.3455,0.0,0.0,0.0,0.0,0.0,0.0,0.0,0.0,0.0,0.0,0.0,0.0,0.0,0.0,0.0,0.0,0.0,0.0,0.0,0.0,0.0,0.0,0.0,0.0,0.0,0.0,0.0,0.0,0.0,-3.7648,-3.7317,-3.7489,-3.8274,-3.8225,-3.8735,-3.9822,-4.06,-4.1651,-4.2882,-4.2938,-4.3031,-4.316,-4.3233,-4.334,-4.3446,-4.3716,-4.3955,-4.4162,-4.4519,-4.491,-4.5297,-4.5297,-4.5297,-4.5297,0.0,0.0,0.0,0.0,0.0,0.0,0.0,0.0,0.0,0.0,0.0,0.0,0.0,0.0,0.0,0.0,0.0,0.0,0.0,0.0,0.0,0.0,0.0,-2.2191,-2.3038,-2.2564,-2.2412,-2.2649,-2.2412,-2.231,-2.231,0.0,0.0,0.0,0.0,0.0,0.0,-2.1582,-2.1165,-2.0516,-2.0348,-2.0124,0.0,0.0,0.0,0.0,0.0,0.0,0.0,0.0,-2.1899,0.0,0.0,0.0,0.0,0.0,-2.2517,-2.2652,-2.2923,-2.3189,-2.3459,0.0,0.0,0.0,0.0,0.0,0.0,0.0,0.0,0.0,0.0,0.0,0.0,0.0,0.0,0.0,0.0,0.0,0.0,0.0,0.0,0.0,0.0,0.0,0.0,0.0,0.0,0.0,0.0,0.0,0.0,0.0,-3.6814,-3.7153,-3.7907,-3.8114,-3.8624,-3.9405,-3.9912,-4.0981,-4.252,-4.2774,-4.2994,-4.3104,-4.3178,-4.3305,-4.3411,-4.3814,-4.4109,-4.4308,-4.477,-4.5109,-4.5297,-4.5297,-4.5297,-4.5297,0.0,0.0,0.0,0.0,0.0,0.0,0.0,0.0,0.0,0.0,0.0,0.0,0.0,0.0,0.0,0.0,0.0,0.0,0.0,0.0,0.0,0.0,0.0,-2.231,-2.231,-2.231,-2.2665,-2.3376,-2.2665,-2.231,-2.231,-2.231,0.0,0.0,0.0,0.0,0.0,-2.1628,-2.1368,-2.0959,-2.0483,-2.0299,-2.0246,0.0,0.0,0.0,0.0,0.0,0.0,0.0,-2.1928,0.0,0.0,0.0,0.0,0.0,-2.2561,-2.2525,-2.345,-2.3212,-2.2972,0.0,0.0,0.0,0.0,0.0,0.0,0.0,0.0,0.0,0.0,0.0,0.0,0.0,0.0,0.0,0.0,0.0,0.0,0.0,0.0,0.0,0.0,0.0,0.0,0.0,0.0,0.0,0.0,0.0,0.0,0.0,-3.6095,-3.6407,-3.7071,-3.7889,-3.8655,-3.9369,-3.9387,-4.0202,-4.1741,-4.252,-4.2975,-4.3104,-4.3178,-4.3286,-4.3446,-4.3846,-4.4336,-4.4843,-4.5173,-4.5297,-4.5297,-4.5297,-4.5297,-4.5297,0.0,0.0,0.0,0.0,0.0,0.0,0.0,0.0,0.0,0.0,0.0,0.0,0.0,0.0,0.0,0.0,0.0,0.0,0.0,0.0,0.0,0.0,0.0,0.0,0.0,0.0,-2.2412,-2.2632,-2.2412,-2.231,0.0,0.0,0.0,-2.2327,0.0,0.0,0.0,-2.2106,-2.184,-2.1399,-2.0943,-2.0583,-2.028,0.0,0.0,0.0,0.0,0.0,0.0,0.0,0.0,0.0,0.0,0.0,0.0,-2.2643,-2.2832,-2.3056,-2.3544,-2.3714,0.0,0.0,0.0,0.0,0.0,0.0,0.0,0.0,0.0,0.0,0.0,0.0,0.0,0.0,0.0,0.0,0.0,0.0,0.0,0.0,0.0,0.0,0.0,0.0,0.0,0.0,0.0,0.0,0.0,0.0,0.0,0.0,-3.5214,-3.5526,-3.6235,-3.6989,-3.75,-3.7721,-3.8844,-3.9912,-4.089,-4.1705,-4.225,-4.258,-4.3254,-4.3726,-4.4072,-4.443,-4.4814,-4.5173,-4.5256,-4.5297,-4.5297,-4.5297,-4.5297,-4.5297,0.0,0.0,0.0,0.0,0.0,0.0,0.0,0.0,0.0,0.0,0.0,0.0,0.0,0.0,0.0,0.0,0.0,0.0,0.0,0.0,0.0,0.0,0.0,0.0,0.0,-2.231,-2.231,0.0,0.0,0.0,0.0,0.0,0.0,-2.2327,0.0,-2.2733,0.0,0.0,-2.2135,-2.184,-2.126,-2.0926,-2.0765,0.0,0.0,0.0,0.0,0.0,0.0,0.0,0.0,0.0,0.0,0.0,0.0,-2.2789,-2.2947,-2.3141,-2.3753,0.0,0.0,0.0,0.0,0.0,0.0,0.0,0.0,0.0,0.0,0.0,0.0,0.0,0.0,0.0,0.0,0.0,0.0,0.0,0.0,0.0,0.0,0.0,0.0,0.0,0.0,0.0,0.0,0.0,0.0,0.0,0.0,0.0,-3.4684,-3.4998,-3.5478,-3.6186,-3.654,-3.6544,-3.783,-3.8681,-3.9152,-4.0741,-4.165,-4.2038,-4.2965,-4.3826,-4.4519,-4.4701,-4.5,-4.5297,-4.5297,-4.5297,-4.5297,-4.5297,-4.5297,-4.5297,0.0,0.0,0.0,0.0,0.0,0.0,0.0,0.0,0.0,0.0,0.0,0.0,0.0,0.0,0.0,0.0,0.0,0.0,0.0,0.0,0.0,0.0,0.0,0.0,0.0,0.0,0.0,0.0,0.0,0.0,0.0,0.0,-2.2378,-2.231,0.0,-2.2361,0.0,-2.231,-2.231,-2.2225,-2.1385,-2.1275,-2.1521,-2.0699,0.0,0.0,0.0,0.0,0.0,0.0,0.0,0.0,-2.231,0.0,-2.247,-2.3038,-2.3021,-2.2996,0.0,0.0,0.0,0.0,0.0,0.0,0.0,0.0,0.0,0.0,0.0,0.0,0.0,0.0,0.0,0.0,0.0,0.0,0.0,0.0,0.0,0.0,0.0,0.0,0.0,0.0,0.0,0.0,0.0,0.0,0.0,0.0,0.0,-3.3652,-3.4274,-3.4608,-3.467,-3.5412,-3.5768,0.0,-3.6508,-3.6939,-3.7148,-3.9781,-4.1231,-4.1706,-4.2614,-4.3721,-4.4843,-4.4843,-4.5023,-4.5297,-4.5297,-4.5297,-4.5297,-4.5297,-4.5297,-4.5297,0.0,0.0,0.0,0.0,0.0,0.0,0.0,0.0,0.0,0.0,0.0,0.0,0.0,0.0,0.0,0.0,0.0,0.0,0.0,0.0,0.0,0.0,0.0,0.0,0.0,0.0,0.0,0.0,0.0,0.0,0.0,0.0,0.0,-2.2344,0.0,-2.2852,-2.231,-2.231,-2.231,-2.2237,-2.1705,-2.1521,-2.1582,-2.1383,-2.1399,0.0,0.0,0.0,0.0,0.0,0.0,0.0,-2.231,-2.2436,-2.2686,-2.3069,-2.3346,-2.3588,0.0,0.0,0.0,0.0,0.0,0.0,0.0,0.0,0.0,0.0,0.0,0.0,0.0,0.0,0.0,0.0,0.0,0.0,0.0,0.0,0.0,0.0,0.0,0.0,0.0,0.0,0.0,0.0,0.0,0.0,0.0,0.0,0.0,-3.2666,-3.2876,-3.3222,-3.3706,-3.4534,-3.4903,0.0,-3.5675,-3.6534,-3.747,-3.9301,-4.1181,-4.3026,-4.354,-4.4306,-4.5194,-4.5194,-4.5235,-4.5297,-4.5297,-4.5297,-4.5297,-4.5297,-4.5297,-4.5297,0.0,0.0,0.0,0.0,0.0,0.0,0.0,0.0,0.0,0.0,0.0,0.0,0.0,0.0,0.0,0.0,0.0,0.0,0.0,0.0,0.0,0.0,0.0,0.0,0.0,0.0,0.0,0.0,0.0,0.0,0.0,0.0,0.0,-2.2327,0.0,-2.2665,-2.231,-2.231,-2.231,-2.2254,-2.1794,-2.1718,-2.1899,-2.1688,-2.1718,-2.1974,-2.2209,0.0,0.0,0.0,0.0,0.0,0.0,0.0,-2.259,-2.3045,-2.3305,-2.3566,0.0,0.0,0.0,0.0,0.0,0.0,0.0,0.0,0.0,0.0,0.0,0.0,0.0,0.0,0.0,0.0,0.0,0.0,0.0,0.0,0.0,0.0,0.0,0.0,0.0,0.0,0.0,0.0,0.0,0.0,0.0,-3.0885,-3.1031,-3.18,-3.2174,-3.2538,-3.2928,-3.3728,-3.4098,-3.4087,-3.4903,-3.6131,-3.7792,-3.9165,-4.0785,-4.2506,-4.3132,-4.3881,-4.4704,-4.5125,-4.5297,-4.5297,-4.5297,-4.5297,-4.5297,-4.5297,-4.5297,-4.5297,0.0,0.0,0.0,0.0,0.0,0.0,0.0,0.0,0.0,0.0,0.0,0.0,0.0,0.0,0.0,0.0,0.0,0.0,0.0,0.0,0.0,0.0,0.0,0.0,0.0,0.0,0.0,0.0,0.0,0.0,0.0,0.0,0.0,-2.231,0.0,-2.231,-2.231,-2.231,-2.231,-2.2282,-2.1899,-2.1957,-2.2254,-2.1869,-2.1957,-2.231,-2.231,-2.231,-2.231,-2.231,0.0,0.0,0.0,0.0,-2.248,-2.3038,-2.3236,-2.3414,0.0,0.0,0.0,0.0,0.0,0.0,0.0,0.0,0.0,0.0,0.0,0.0,0.0,0.0,0.0,0.0,0.0,0.0,0.0,0.0,0.0,0.0,0.0,0.0,0.0,0.0,0.0,0.0,0.0,0.0,-3.075,-3.0108,-3.0108,-3.0943,-3.1529,-3.1947,-3.2156,-3.2774,-3.3164,-3.331,-3.4313,-3.5846,-3.786,-3.8983,-4.0239,-4.1533,-4.22,-4.3059,-4.4074,-4.4781,-4.5163,-4.5297,-4.5297,-4.5297,-4.5297,-4.5297,-4.5297,-4.5297,0.0,0.0,0.0,0.0,0.0,0.0,0.0,0.0,0.0,0.0,0.0,0.0,0.0,0.0,0.0,0.0,0.0,0.0,-2.0959,0.0,0.0,-2.2209,-2.2282,0.0,0.0,0.0,0.0,0.0,0.0,0.0,0.0,0.0,0.0,-2.231,0.0,0.0,0.0,-2.231,-2.231,-2.2282,-2.2237,-2.2237,-2.2282,-2.2237,-2.2254,-2.231,-2.231,-2.231,-2.231,-2.231,-2.231,0.0,0.0,0.0,-2.2712,-2.3093,-2.3414,-2.3714,0.0,0.0,0.0,0.0,0.0,0.0,0.0,0.0,0.0,0.0,0.0,0.0,0.0,0.0,0.0,0.0,0.0,0.0,0.0,0.0,0.0,0.0,0.0,0.0,0.0,0.0,0.0,0.0,0.0,0.0,-2.912,-2.9004,-2.9289,-3.0039,-3.0275,-3.0651,-3.1175,-3.1392,-3.1819,-3.2474,-3.4275,-3.5818,-3.7071,-3.8162,-3.969,-4.1514,-4.1609,-4.2565,-4.4017,-4.4131,-4.4628,-4.5297,-4.5297,-4.5297,-4.5297,-4.5297,-4.5297,-4.5297,0.0,0.0,0.0,0.0,0.0,0.0,0.0,0.0,0.0,0.0,0.0,0.0,0.0,0.0,0.0,-1.969,-2.007,-2.0601,-2.1275,-2.1945,-2.231,-2.231,-2.231,-2.231,-2.231,0.0,0.0,0.0,0.0,0.0,0.0,-2.4199,-2.3663,0.0,0.0,0.0,0.0,0.0,-2.231,-2.231,-2.231,-2.231,-2.231,-2.231,-2.231,-2.231,-2.231,-2.231,-2.231,-2.231,-2.2415,-2.251,-2.251,0.0,0.0,0.0,-2.3437,0.0,0.0,0.0,0.0,0.0,0.0,0.0,0.0,0.0,0.0,0.0,0.0,0.0,0.0,0.0,0.0,0.0,0.0,0.0,0.0,0.0,0.0,0.0,0.0,0.0,0.0,0.0,0.0,0.0,0.0,-2.8359,-2.8767,-2.8737,-2.8876,-2.9271,-2.9733,-3.0159,-3.048,-3.0979,-3.1678,-3.2577,-3.3605,-3.5142,-3.7144,-3.7772,-3.9071,-4.0845,-4.1304,-4.2202,-4.3367,-4.3825,-4.4513,-4.5297,-4.5297,-4.5297,-4.5297,-4.5297,-4.5297,-4.5297,0.0,0.0,0.0,0.0,0.0,0.0,0.0,0.0,0.0,0.0,0.0,0.0,0.0,0.0,0.0,0.0,-2.0124,-2.0667,-2.1552,-2.2032,-2.231,-2.231,-2.231,-2.231,-2.231,0.0,0.0,0.0,0.0,0.0,-2.5207,-2.459,-2.4275,0.0,-2.3619,0.0,0.0,0.0,0.0,0.0,0.0,0.0,0.0,0.0,0.0,-2.2398,-2.2398,-2.2453,-2.2535,-2.2535,-2.2669,-2.2822,-2.2822,-2.2822,0.0,0.0,0.0,0.0,0.0,0.0,0.0,0.0,0.0,0.0,0.0,0.0,0.0,0.0,0.0,0.0,0.0,0.0,0.0,0.0,0.0,0.0,0.0,0.0,0.0,0.0,0.0,0.0,0.0,0.0,0.0,0.0,0.0,-2.7684,-2.8463,-2.8403,-2.8488,-2.8785,-2.9344,-2.971,-2.9837,-3.0668,-3.1581,-3.259,-3.3069,-3.4597,-3.701,-3.7279,-3.8343,-4.0024,-4.0845,-4.1686,-4.2526,-4.3367,-4.4208,-4.4991,-4.5201,-4.5297,-4.5297,-4.5297,-4.5297,-4.5297,0.0,0.0,0.0,0.0,0.0,0.0,0.0,0.0,0.0,0.0,0.0,0.0,0.0,-1.969,-1.9839,-2.0261,-2.028,-2.0667,-2.1552,-2.2032,-2.231,-2.231,-2.231,0.0,-2.231,0.0,0.0,0.0,0.0,0.0,-2.4453,-2.4367,-2.4497,-2.482,-2.3691,-2.3194,-2.3141,0.0,0.0,0.0,0.0,0.0,0.0,0.0,0.0,0.0,0.0,-2.2873,-2.3141,-2.3141,-2.3165,-2.3165,-2.3165,-2.3165,-2.3236,0.0,0.0,0.0,0.0,0.0,0.0,0.0,0.0,0.0,0.0,0.0,0.0,0.0,0.0,0.0,0.0,0.0,0.0,0.0,0.0,0.0,0.0,0.0,0.0,0.0,0.0,0.0,0.0,0.0,0.0,0.0,0.0,-2.6911,-2.7712,-2.7702,-2.7984,-2.8767,-2.8894,-2.9012,-2.916,-3.0193,-3.1177,-3.2042,-3.3091,-3.4491,-3.6159,-3.6441,-3.7483,-3.9126,-3.9986,-4.0826,-4.1628,-4.2507,-4.3348,-4.415,-4.4972,-4.5297,-4.5297,-4.5297,-4.5297,-4.5297,0.0,0.0,0.0,0.0,0.0,0.0,0.0,0.0,0.0,0.0,0.0,0.0,0.0,-2.0089,-2.0261,-2.0731,-2.0975,-2.1259,-2.1582,-2.2032,-2.231,-2.231,-2.231,-2.231,-2.231,0.0,0.0,0.0,0.0,-2.3383,-2.4687,-2.3958,-2.418,-2.5181,-2.429,-2.3642,-2.3189,-2.3189,0.0,0.0,0.0,0.0,0.0,0.0,0.0,0.0,0.0,0.0,0.0,-2.3189,-2.3346,-2.3522,-2.3522,-2.3522,-2.3544,-2.3671,-2.3937,0.0,0.0,0.0,0.0,0.0,0.0,0.0,0.0,0.0,0.0,0.0,0.0,0.0,0.0,0.0,0.0,0.0,0.0,0.0,0.0,0.0,0.0,0.0,0.0,0.0,0.0,0.0,0.0,0.0,0.0,0.0,-2.7706,-2.8145,-2.8542,-2.8905,-2.8905,-2.9003,-2.9148,-2.9715,-3.0471,-3.1431,-3.239,-3.3786,-3.5547,-3.6207,-3.712,-3.8209,-3.9088,-4.0234,-4.1514,-4.1839,-4.2469,-4.331,-4.415,-4.4475,-4.4532,-4.5086,-4.5297,-4.5297,0.0,0.0,0.0,0.0,0.0,0.0,0.0,0.0,0.0,0.0,0.0,0.0,0.0,0.0,-2.0715,-2.115,-2.1598,-2.1823,-2.1823,-2.2135,-2.231,-2.231,-2.231,-2.231,-2.231,0.0,0.0,0.0,0.0,0.0,0.0,-2.3389,-2.3677,-2.4801,-2.42,-2.378,0.0,0.0,0.0,-2.3369,0.0,0.0,-2.3189,0.0,0.0,0.0,0.0,0.0,0.0,0.0,0.0,0.0,-2.4184,-2.4094,-2.3876,-2.3876,-2.4016,0.0,0.0,0.0,0.0,0.0,0.0,0.0,0.0,0.0,0.0,0.0,0.0,0.0,0.0,0.0,0.0,0.0,0.0,0.0,0.0,0.0,0.0,0.0,0.0,0.0,0.0,0.0,0.0,0.0,0.0,0.0,-2.7822,-2.8327,-2.8754,-2.9185,-2.9209,-2.9295,-2.9437,-2.968,-3.0438,-3.1673,-3.2224,-3.3451,-3.5245,-3.5802,-3.6509,-3.733,-3.7922,-3.9107,-4.0692,-4.1266,-4.1839,-4.245,-4.3251,-4.3748,-4.4053,-4.4626,-4.5048,-4.5297,0.0,0.0,0.0,0.0,0.0,0.0,0.0,0.0,0.0,0.0,0.0,0.0,0.0,0.0,0.0,-2.1582,-2.2032,-2.231,-2.231,-2.231,-2.231,-2.231,-2.231,-2.231,-2.231,0.0,0.0,0.0,0.0,0.0,0.0,0.0,-2.3045,0.0,-2.3346,-2.3544,-2.417,0.0,-2.3996,-2.3714,0.0,-2.3522,-2.3212,0.0,0.0,0.0,-2.3714,-2.3917,0.0,-2.5146,0.0,0.0,0.0,0.0,-2.419,-2.419,0.0,0.0,0.0,0.0,0.0,0.0,0.0,0.0,0.0,0.0,0.0,0.0,0.0,0.0,0.0,0.0,0.0,0.0,0.0,0.0,0.0,0.0,0.0,0.0,0.0,0.0,0.0,0.0,0.0,0.0,0.0,-2.6221,-2.7993,-2.8124,-2.8595,-2.957,-2.9805,-2.9902,-2.9912,-3.009,-3.1049,-3.2713,-3.2679,-3.3563,-3.5216,-3.5187,-3.5649,-3.647,-3.6489,-3.7426,-3.9049,-4.0711,-4.1418,-4.1533,-4.2334,-4.3155,-4.392,-4.3878,-4.4433,-4.522,0.0,0.0,0.0,0.0,0.0,0.0,0.0,0.0,0.0,0.0,0.0,0.0,0.0,0.0,-2.1991,-2.2106,-2.2225,-2.231,-2.231,-2.231,-2.231,-2.231,-2.231,-2.231,-2.231,0.0,0.0,0.0,0.0,0.0,0.0,0.0,0.0,0.0,-2.2996,-2.3069,-2.3482,-2.3753,0.0,0.0,-2.4074,-2.3996,0.0,0.0,0.0,0.0,0.0,-2.4113,-2.4318,0.0,-2.4869,-2.4245,0.0,0.0,0.0,0.0,0.0,0.0,-2.419,0.0,0.0,0.0,0.0,0.0,0.0,0.0,0.0,0.0,0.0,0.0,0.0,0.0,0.0,0.0,0.0,0.0,0.0,0.0,0.0,0.0,0.0,0.0,0.0,0.0,0.0,0.0,-2.6077,-2.6951,-2.803,-2.8802,-2.9308,-2.9589,-2.9834,-2.9946,-2.9912,-3.0147,-3.0483,-3.0929,-3.1527,-3.2407,-3.3508,-3.4094,-3.4805,-3.5662,-3.6241,-3.6776,-3.7273,-3.8323,-3.9489,-4.0654,-4.0883,-4.1456,-4.2278,-4.2869,-4.3231,-4.3517,0.0,0.0,0.0,0.0,0.0,0.0,0.0,0.0,0.0,0.0,0.0,0.0,0.0,0.0,0.0,-2.2767,-2.3038,-2.3088,-2.2784,-2.2767,-2.2632,-2.2327,-2.231,-2.231,0.0,0.0,0.0,0.0,0.0,0.0,0.0,0.0,0.0,0.0,0.0,0.0,0.0,0.0,0.0,0.0,-2.4151,0.0,0.0,-2.419,-2.419,0.0,0.0,0.0,-2.4869,-2.6027,-2.608,0.0,0.0,0.0,0.0,0.0,0.0,0.0,0.0,0.0,0.0,0.0,0.0,0.0,-2.419,-2.419,0.0,0.0,0.0,0.0,0.0,0.0,0.0,0.0,0.0,0.0,0.0,0.0,0.0,0.0,0.0,0.0,0.0,0.0,0.0,-2.586,-2.6757,-2.7653,-2.855,-2.9307,-2.9729,-2.9732,-2.9996,-3.0114,-3.0061,-3.0188,-3.0439,-3.0778,-3.1268,-3.1962,-3.2838,-3.3666,-3.4301,-3.4802,-3.5643,-3.62,-3.6547,-3.7005,-3.8209,-3.9794,-4.0139,-4.0769,-4.1552,-4.2048,-4.2428,-4.2751,0.0,0.0,0.0,0.0,0.0,0.0,0.0,0.0,0.0,0.0,0.0,0.0,0.0,0.0,0.0,0.0,-2.4066,-2.412,-2.3562,-2.3444,-2.3139,-2.2581,-2.2547,-2.2513,-2.2429,0.0,0.0,0.0,0.0,0.0,0.0,0.0,0.0,0.0,0.0,0.0,0.0,0.0,0.0,-2.3714,-2.4074,-2.4245,0.0,0.0,-2.419,0.0,-2.5127,-2.5403,-2.5642,-2.7145,-2.7732,0.0,0.0,0.0,0.0,0.0,-2.4905,0.0,0.0,0.0,0.0,0.0,0.0,0.0,-2.419,-2.419,-2.419,0.0,0.0,0.0,0.0,0.0,0.0,0.0,0.0,0.0,0.0,0.0,0.0,0.0,0.0,0.0,0.0,-2.5586,-2.6544,-2.6636,-2.7509,-2.8429,-2.9359,-2.9746,-2.9943,-2.9943,-3.0174,-3.0318,-3.0304,-3.0337,-3.0778,-3.1604,-3.1539,-3.1957,-3.2833,-3.3614,-3.3968,-3.406,-3.4932,-3.5701,-3.6375,-3.6566,-3.7578,-3.9069,-3.9776,-4.0597,-4.1361,-4.1301,-4.1738,-4.2406,-2.1538,0.0,0.0,0.0,0.0,0.0,0.0,0.0,0.0,0.0,0.0,0.0,0.0,0.0,0.0,0.0,-2.3866,-2.3799,-2.4269,-2.3714,-2.3596,-2.4036,-2.4052,-2.3782,-2.319,0.0,0.0,0.0,0.0,0.0,0.0,0.0,0.0,0.0,0.0,0.0,0.0,0.0,0.0,-2.3714,-2.4074,0.0,-2.5109,-2.4447,-2.419,-2.43,-2.5127,-2.5403,-2.555,0.0,-2.7255,-2.7622,0.0,0.0,0.0,0.0,0.0,0.0,0.0,0.0,0.0,0.0,0.0,0.0,-2.419,-2.419,-2.419,0.0,0.0,0.0,0.0,0.0,0.0,0.0,0.0,0.0,0.0,0.0,0.0,0.0,0.0,0.0,0.0,-2.5227,-2.6135,-2.6786,-2.8534,-2.9728,-3.0104,-3.0182,-3.0209,-3.0221,-3.0318,-3.0355,-3.0304,-3.1046,-3.1469,-3.1604,-3.1591,-3.2039,-3.287,-3.2986,-3.3432,-3.4131,-3.4878,-3.5305,-3.5572,-3.691,-3.8075,-3.903,-3.9165,-3.9757,-4.0521,-4.0444,-4.0499,-4.0687,-2.1957,0.0,0.0,0.0,0.0,0.0,0.0,0.0,0.0,0.0,0.0,0.0,0.0,0.0,0.0,0.0,0.0,0.0,0.0,0.0,-2.4492,-2.4506,-2.4506,-2.4337,-2.3951,-2.3934,0.0,0.0,0.0,0.0,0.0,0.0,0.0,0.0,0.0,0.0,0.0,0.0,-2.4411,-2.5087,-2.4443,0.0,-2.4759,-2.4355,-2.4447,-2.4887,-2.5713,-2.6502,-2.7255,-2.7658,-2.8062,0.0,0.0,-2.7475,-2.7658,0.0,-2.6594,-2.6431,0.0,0.0,0.0,-2.43,0.0,0.0,0.0,-2.419,-2.419,0.0,0.0,0.0,0.0,0.0,0.0,0.0,0.0,0.0,0.0,0.0,0.0,0.0,0.0,0.0,0.0,-2.5273,-2.6345,-2.7564,-2.9013,-2.988,-2.9996,-3.0095,-3.015,-3.0155,-3.0311,-3.0379,-3.0348,-3.079,-3.0982,-3.095,-3.095,-3.1156,-3.1577,-3.2459,-3.3044,-3.3474,-3.4706,-3.5226,-3.5324,-3.7005,-3.796,-3.8438,-3.9317,-3.9928,-4.0291,-4.0215,-4.0157,-4.0153,-2.2225,0.0,0.0,0.0,0.0,0.0,0.0,0.0,0.0,0.0,0.0,0.0,0.0,0.0,0.0,0.0,0.0,0.0,0.0,0.0,0.0,-2.4712,-2.4862,-2.4811,-2.4523,-2.472,-2.4475,0.0,0.0,0.0,0.0,0.0,0.0,0.0,0.0,0.0,0.0,0.0,0.0,-2.6062,0.0,-2.474,-2.485,-2.4538,-2.4924,-2.5731,-2.6539,-2.7769,-2.8994,-2.8994,0.0,-2.8906,-2.8246,-2.8484,0.0,0.0,0.0,0.0,0.0,0.0,0.0,0.0,0.0,-2.419,0.0,0.0,0.0,0.0,0.0,0.0,0.0,0.0,0.0,0.0,0.0,0.0,0.0,0.0,0.0,0.0,0.0,0.0,0.0,-2.5434,-2.6666,-2.8187,-2.9112,-2.9585,-2.9585,-2.9893,-3.0075,-3.0075,-3.0299,-3.0398,-3.0398,-3.0521,-3.0566,-3.0566,-3.0739,-3.0759,-3.077,-3.2377,-3.3072,-3.3047,-3.4626,-3.5277,-3.5359,-3.7041,-3.771,-3.7865,-3.9431,-4.0157,-4.0272,-4.0043,-4.0024,-4.0117,-2.2282,-2.2254,0.0,0.0,0.0,0.0,0.0,0.0,0.0,0.0,0.0,0.0,0.0,0.0,0.0,0.0,0.0,0.0,-2.6437,0.0,0.0,0.0,-2.6099,-2.5828,-2.454,-2.5472,-2.5646,0.0,0.0,0.0,0.0,0.0,0.0,0.0,-2.4239,0.0,0.0,0.0,-2.5162,0.0,-2.5841,-2.6759,0.0,-2.5825,-2.575,-2.6576,-2.7365,-2.8246,-2.8994,0.0,-2.8994,-2.8975,0.0,-2.892,-2.8957,0.0,0.0,0.0,0.0,0.0,0.0,0.0,-2.4722,0.0,0.0,0.0,0.0,0.0,0.0,0.0,0.0,0.0,0.0,0.0,0.0,0.0,0.0,0.0,0.0,0.0,0.0,0.0,0.0,0.0,-2.6734,-2.7873,-2.871,-2.9171,-2.9171,-2.9932,-3.0355,-3.0355,-3.0379,-3.0398,-3.0398,-3.1148,-3.1532,-3.1552,-3.2256,-3.2596,-3.2615,-3.3527,-3.3954,-3.3978,-3.4906,-3.5312,-3.5411,-3.7094,-3.7747,-3.7789,-3.8763,-3.9623,-4.0196,-3.9357,-3.9528,-4.0176,-2.231,-2.231,0.0,0.0,0.0,0.0,0.0,0.0,0.0,0.0,0.0,0.0,0.0,0.0,0.0,0.0,0.0,-2.5611,0.0,0.0,0.0,0.0,0.0,0.0,-2.6124,-2.637,-2.6258,-2.5739,-2.6071,0.0,0.0,0.0,0.0,0.0,-2.4494,0.0,-2.4051,0.0,0.0,0.0,0.0,0.0,0.0,-2.6704,-2.6594,-2.7402,-2.8209,-2.8723,-2.8994,0.0,-2.8994,0.0,0.0,0.0,0.0,0.0,0.0,0.0,0.0,0.0,0.0,0.0,0.0,0.0,-2.43,0.0,-2.419,0.0,0.0,0.0,0.0,0.0,0.0,0.0,0.0,0.0,0.0,0.0,0.0,0.0,0.0,0.0,0.0,0.0,0.0,0.0,0.0,-2.9102,-2.9102,-2.9929,-3.0398,-3.0398,-3.0398,-3.0398,-3.0398,-3.1256,-3.1698,-3.1718,-3.2526,-3.2885,-3.2856,-3.3714,-3.4084,-3.4098,-3.4929,-3.5312,-3.5388,-3.6561,-3.7309,-3.7693,-3.7597,-3.8686,-4.0196,-3.9299,-3.949,-4.0196,-2.231,0.0,0.0,0.0,0.0,0.0,0.0,0.0,0.0,0.0,0.0,0.0,-2.86,-2.8035,0.0,0.0,-2.6578,-2.5807,0.0,0.0,-2.6121,0.0,0.0,0.0,0.0,-2.703,-2.7039,-2.6795,-2.7174,0.0,0.0,0.0,0.0,0.0,0.0,-2.4554,-2.4476,0.0,0.0,-2.6374,-2.764,-2.8484,-2.8865,-2.7714,-2.7475,-2.7897,-2.8723,-2.8994,-2.8994,-2.8994,-2.8994,0.0,-2.8994,0.0,0.0,0.0,0.0,0.0,-2.8282,0.0,0.0,0.0,0.0,0.0,0.0,0.0,0.0,0.0,0.0,0.0,0.0,0.0,0.0,0.0,0.0,0.0,0.0,0.0,0.0,0.0,0.0,0.0,0.0,0.0,0.0,-2.6165,-2.7772,-2.8775,-2.8775,-2.9813,-3.0398,-3.0398,-3.0629,-3.0756,-3.0756,-3.1602,-3.2025,-3.2045,-3.284,-3.3198,-3.3182,-3.404,-3.441,-3.4389,-3.504,-3.5426,-3.5694,-3.6523,-3.733,-3.7999,-3.7406,-3.8476,-4.0177,-3.9049,-3.9318,-4.0253,-2.231,-2.231,0.0,0.0,0.0,0.0,0.0,0.0,0.0,0.0,0.0,0.0,0.0,0.0,0.0,0.0,0.0,-2.3943,-2.5403,0.0,-2.5173,0.0,0.0,-2.7144,0.0,0.0,-2.835,-2.8314,-2.8737,-2.8934,0.0,0.0,0.0,0.0,0.0,-2.5421,-2.5055,-2.7748,-2.7548,-2.5642,-2.8007,-2.8975,-2.8975,0.0,-2.8466,-2.7897,-2.8723,0.0,0.0,-2.8994,-2.8994,0.0,0.0,0.0,0.0,0.0,0.0,0.0,0.0,0.0,0.0,-2.7732,0.0,0.0,0.0,0.0,-2.608,0.0,0.0,0.0,0.0,0.0,0.0,0.0,0.0,0.0,0.0,0.0,0.0,0.0,0.0,0.0,0.0,0.0,0.0,-2.5049,-2.6845,-2.7928,-2.7928,-2.9506,-3.0398,-3.0398,-3.1218,-3.166,-3.166,-3.2468,-3.2852,-3.2872,-3.3692,-3.4049,-3.4087,-3.4889,-3.5258,-3.5262,-3.5281,-3.5745,-3.6517,-3.7398,-3.8225,-3.8954,-3.8935,-3.9489,-4.01,-3.8362,-3.8839,-4.0406,0.0,0.0,0.0,0.0,0.0,0.0,0.0,-2.5846,0.0,0.0,0.0,0.0,0.0,-2.8742,-2.836,0.0,0.0,-2.6126,-2.5864,-2.633,0.0,0.0,0.0,-2.802,0.0,0.0,-2.8434,-2.9178,-2.8793,-2.859,0.0,0.0,0.0,0.0,0.0,-2.5928,0.0,0.0,0.0,0.0,0.0,-2.9305,-2.9751,0.0,0.0,-2.8631,-2.8883,-2.8994,0.0,-2.8994,-2.8994,-2.8994,-2.8994,-2.8994,-2.9021,-2.9203,-2.9525,0.0,0.0,0.0,-2.92,-2.8446,0.0,0.0,0.0,0.0,0.0,0.0,0.0,0.0,0.0,0.0,0.0,0.0,0.0,0.0,0.0,0.0,0.0,0.0,0.0,0.0,0.0,0.0,0.0,-2.5203,-2.6888,-2.789,0.0,-2.9486,-3.0398,-3.0398,-3.1256,-3.1698,-3.1698,-3.3064,-3.3743,-3.3698,-3.4595,-3.4985,-3.4889,-3.523,-3.533,-3.532,-3.586,-3.6246,-3.6556,-3.7383,-3.8226,-3.8935,-3.8362,-3.903,-4.0157,-3.8992,-3.9298,-4.0348,-2.2649,0.0,0.0,0.0,0.0,0.0,0.0,0.0,0.0,0.0,-2.8344,0.0,-2.974,0.0,-2.8994,0.0,-2.8007,-2.7039,-2.625,-2.6981,0.0,-2.6993,-2.781,0.0,0.0,0.0,0.0,-2.9377,-2.8869,-2.8615,0.0,0.0,0.0,0.0,0.0,0.0,0.0,0.0,-2.7603,0.0,0.0,-2.9494,0.0,0.0,-2.9439,-2.9439,0.0,-2.9232,-2.903,-2.9347,-2.9232,-2.8994,-2.8994,-2.8994,-2.9021,-2.9222,-2.9573,-2.9869,-2.9663,-2.9808,0.0,-2.9097,-2.8798,0.0,-2.7151,0.0,0.0,0.0,0.0,0.0,0.0,0.0,0.0,0.0,0.0,0.0,0.0,-2.4936,0.0,0.0,0.0,0.0,0.0,0.0,-2.5318,-2.5633,-2.705,-2.8025,0.0,0.0,-3.0398,-3.0398,-3.1525,-3.2122,-3.2122,-3.3814,-3.4647,-3.4601,-3.5191,-3.5412,-3.535,-3.5364,-3.535,-3.5324,-3.5863,-3.6403,-3.6979,-3.75,-3.84,-3.9412,-3.8839,-3.9317,-4.0196,-3.9317,-3.9928,-4.1151,0.0,0.0,0.0,0.0,-2.4678,0.0,0.0,0.0,-2.7589,0.0,-2.9114,-2.9715,-3.0112,-2.9475,-2.8994,-2.8994,-2.7581,0.0,-2.6667,-2.7402,0.0,0.0,-2.815,-2.8668,-2.7934,0.0,0.0,0.0,0.0,0.0,0.0,0.0,0.0,0.0,-2.8209,0.0,-2.6741,-2.8315,-2.8113,-2.6851,-2.837,-2.9494,-3.021,-3.021,-3.0228,-3.0265,-3.0265,-2.9732,-2.9104,-2.9934,-2.9677,-2.8994,-2.8994,-2.8994,-2.9017,-2.9017,-2.9218,-2.9448,-2.9433,-2.9589,-2.9734,-2.975,0.0,0.0,0.0,0.0,-2.9221,0.0,0.0,0.0,0.0,0.0,0.0,0.0,0.0,0.0,0.0,0.0,0.0,0.0,0.0,0.0,0.0,-2.4981,-2.5423,-2.6251,-2.7294,0.0,0.0,0.0,-3.0359,-3.0398,-3.2025,-3.2891,-3.2891,-3.4641,-3.5493,-3.5493,-3.5427,-3.5412,-3.5379,-3.533,-3.5304,-3.5312,-3.535,-3.6255,-3.7693,-3.775,-3.8763,-4.031,-4.031,-4.031,-4.0215,-3.9374,-4.0597,-4.2565,-2.4171,-2.4661,-2.505,0.0,-2.5355,-2.6126,0.0,0.0,0.0,0.0,-2.9228,-2.9198,-2.9305,-2.9104,-2.8994,-2.8994,-2.8608,0.0,0.0,0.0,0.0,-2.753,-2.8466,-2.9182,-2.9586,-2.9219,0.0,-2.9898,0.0,0.0,-2.8994,0.0,0.0,0.0,0.0,0.0,-2.7273,-2.848,-2.8755,-2.8407,-2.8828,-2.9494,0.0,0.0,-3.0577,-3.1091,-3.1091,-3.0191,-2.9104,-2.9934,-2.9677,-2.8994,-2.8994,-2.8994,-2.904,-2.9225,-2.9628,-2.9965,-2.9882,-3.0113,-3.0339,-3.0238,-3.008,-2.976,0.0,0.0,0.0,0.0,0.0,0.0,0.0,0.0,0.0,0.0,0.0,0.0,0.0,0.0,0.0,0.0,0.0,0.0,-2.5217,-2.5798,-2.628,-2.651,-2.7369,0.0,0.0,0.0,0.0,-3.0379,-3.2025,-3.2891,-3.2891,-3.4641,-3.546,-3.5427,-3.546,-3.5412,-3.533,-3.5315,-3.5304,-3.5331,-3.5914,-3.6757,-3.775,-3.84,-3.9317,-4.031,-4.031,-4.031,-4.0272,-4.0062,-4.0387,-4.0998,-2.4915,0.0,0.0,-2.6732,0.0,0.0,-2.8023,0.0,0.0,-2.9821,-2.9667,0.0,-2.9531,-2.9195,-2.8994,-2.8994,-2.8994,0.0,-2.8356,0.0,0.0,-2.8338,-2.8778,-2.9195,-2.9677,-2.9214,0.0,-2.9696,0.0,0.0,-2.8994,0.0,0.0,0.0,0.0,-2.8484,0.0,-2.8227,-2.8686,-2.9012,-2.936,0.0,0.0,-3.1127,-3.1531,-3.1971,-3.232,-3.1421,-3.0118,-3.0577,-3.0191,-2.9475,-2.9104,-2.9232,-2.9554,-2.9717,-3.0054,-3.0361,-3.0283,-3.0246,-3.0302,-3.0701,-3.039,-3.0037,-3.0201,-2.985,-2.95,0.0,0.0,0.0,0.0,0.0,0.0,0.0,0.0,0.0,0.0,0.0,0.0,0.0,-2.7178,0.0,-2.6486,-2.6544,-2.6601,-2.6601,0.0,0.0,0.0,0.0,0.0,-3.0359,-3.2025,-3.2891,-3.2891,-3.4641,-3.5493,-3.5427,-3.5474,-3.5446,-3.533,-3.5315,-3.5496,-3.5848,-3.6296,-3.7177,-3.8304,-3.8801,-3.9508,-4.031,-4.031,-4.031,-4.031,-4.031,-4.052,-4.0941,0.0,0.0,0.0,0.0,0.0,0.0,0.0,-2.9538,0.0,-3.0235,0.0,-3.0044,-3.0044,-2.9439,-2.8994,-2.8994,0.0,-2.8994,-2.8994,-2.8994,-2.8994,-2.8994,-2.8994,-2.8994,-2.8994,-2.8994,0.0,0.0,0.0,0.0,0.0,0.0,0.0,0.0,0.0,0.0,0.0,-2.7952,-2.8429,0.0,-2.9934,-3.0687,-3.1476,-3.2302,-3.2614,-3.2724,-3.3513,-3.2687,-3.1256,-3.1347,-3.0797,-2.9953,-2.9347,-2.9641,-3.021,-3.021,-3.0434,-3.0689,-3.0621,-3.03,-3.0204,-3.1178,-3.086,-3.0577,-3.1584,-3.1251,-3.0737,-3.0737,-3.0458,-3.0214,0.0,0.0,0.0,0.0,0.0,0.0,0.0,0.0,0.0,0.0,0.0,0.0,0.0,-2.7313,-2.6928,0.0,0.0,0.0,0.0,0.0,0.0,-3.0544,-3.2083,-3.2949,-3.3064,0.0,-3.5493,-3.5493,-3.5493,-3.546,-3.5379,-3.533,-3.5687,-3.6345,-3.6334,-3.7292,-3.8839,-3.8839,-3.9412,-4.031,-4.031,-4.031,-4.031,-4.031,-4.0807,-4.1629,0.0,0.0,0.0,0.0,0.0,-3.0366,-2.944,-2.9043,-2.9181,-3.007,-2.9622,-2.9195,-2.9195,-2.9067,-2.8994,-2.8994,-2.8994,0.0,0.0,0.0,0.0,-2.8994,-2.8994,-2.8994,-2.8994,-2.8994,-2.8994,0.0,0.0,0.0,0.0,0.0,0.0,0.0,0.0,0.0,-2.8796,-2.8796,0.0,-3.0008,-3.0136,-3.0687,-3.1476,-3.2302,-3.2614,-3.2724,-3.3513,-3.2339,-3.0503,-3.1182,-3.0411,-2.931,-2.9824,-3.0099,-3.021,-3.021,-3.0717,-3.1162,-3.0705,-3.1017,-3.1512,-3.1864,-3.2005,-3.2095,-3.2313,-3.2407,-3.2468,-3.2468,-3.1904,-3.1322,-3.1111,0.0,0.0,0.0,0.0,0.0,0.0,0.0,0.0,0.0,0.0,0.0,0.0,0.0,0.0,0.0,0.0,0.0,0.0,0.0,0.0,0.0,-3.241,0.0,0.0,0.0,-3.5493,-3.5493,-3.5493,-3.5446,-3.5315,-3.5315,-3.5346,-3.5436,-3.5439,-3.6375,-3.7922,-3.7922,-3.8858,-4.031,-4.031,-4.031,-4.031,-4.031,-4.0826,-4.1704,0.0,0.0,0.0,0.0,0.0,0.0,0.0,-2.9362,0.0,-3.0075,-3.0228,-3.0099,-2.9677,-2.9622,-2.9457,-2.903,-2.8994,-2.8994,-2.8994,-2.8994,-2.8994,-2.8994,-2.8994,0.0,-2.8994,-2.8994,-2.9195,-2.9622,0.0,0.0,0.0,0.0,0.0,0.0,0.0,-2.8994,0.0,0.0,0.0,-3.0283,-3.1109,-3.1678,-3.2118,-3.2926,-3.322,-3.3275,-3.366,-3.2797,-3.1513,-3.1898,-3.1237,-3.032,-3.0705,-3.0815,-3.0889,-3.1329,-3.1733,-3.196,-3.1703,-3.1621,-3.1747,-3.239,-3.2449,-3.2496,-3.3051,-3.3025,-3.2891,-3.2891,-3.2256,-3.152,-3.0931,-3.0822,0.0,0.0,0.0,0.0,0.0,0.0,0.0,0.0,0.0,0.0,0.0,0.0,0.0,0.0,0.0,0.0,0.0,0.0,0.0,0.0,0.0,0.0,0.0,0.0,0.0,-3.5493,-3.5493,-3.5446,-3.5364,-3.5315,-3.5515,-3.5873,-3.5859,-3.6566,-3.7731,-3.819,-3.9145,-4.031,-4.031,-4.031,-4.0348,-4.0825,-4.1532,-4.2334,0.0,-2.944,0.0,0.0,-3.0243,0.0,-3.0718,-3.0217,-2.98,-2.9934,-3.0503,-3.0705,-3.0246,-3.021,-2.9953,-2.9329,-2.925,-2.9177,-2.8994,-2.8994,-2.8994,-2.8994,-2.8994,-2.8994,-2.8994,-2.8994,-2.9329,0.0,0.0,0.0,0.0,0.0,0.0,0.0,0.0,0.0,0.0,0.0,-3.0301,-3.0577,-3.2027,-3.2706,-3.2926,-3.3568,-3.3807,-3.3807,-3.3807,-3.3293,-3.2632,-3.2816,-3.221,-3.1421,-3.1586,-3.1659,-3.177,-3.2412,-3.2724,-3.2834,-3.2669,-3.2265,-3.2121,-3.2956,-3.2959,-3.2959,-3.3804,-3.357,-3.3237,-3.341,-3.266,-3.1641,-3.059,-3.0552,0.0,0.0,0.0,0.0,0.0,0.0,0.0,0.0,0.0,0.0,0.0,0.0,0.0,0.0,0.0,0.0,0.0,0.0,0.0,0.0,0.0,-3.3314,-3.418,0.0,-3.5493,-3.5493,-3.5493,-3.5556,-3.5681,-3.5426,-3.576,-3.6514,-3.6504,-3.708,-3.8054,-3.8916,-3.968,-4.031,-4.031,-4.0406,-4.0635,-4.1322,-4.2258,-4.3176,0.0,0.0,0.0,0.0,0.0,0.0,0.0,-3.1672,-3.1513,-2.9379,-2.9177,-2.9475,-3.0136,-3.021,-3.0173,-3.0099,-3.0099,-2.9787,-2.9049,-2.8994,-2.8994,-2.8994,-2.8994,-2.8994,-2.8994,-2.8994,-2.903,0.0,0.0,0.0,0.0,0.0,0.0,0.0,0.0,0.0,0.0,-2.9861,-3.0613,-3.1347,-3.2247,-3.3054,-3.3697,-3.377,-3.3807,-3.3807,-3.3807,-3.3293,-3.2724,-3.344,-3.2669,-3.1513,-3.2265,-3.2504,-3.2504,-3.2596,-3.3128,-3.3532,-3.2816,-3.3091,-3.3587,-3.3713,-3.4093,-3.4486,-3.4602,-3.4339,-3.4295,-3.5103,-3.3949,-3.2295,-3.0698,-3.1044,-3.1352,0.0,0.0,0.0,0.0,0.0,0.0,0.0,0.0,0.0,0.0,0.0,0.0,0.0,0.0,0.0,0.0,0.0,0.0,-3.1679,0.0,-3.3314,-3.418,-3.5064,-3.5493,-3.5493,-3.5493,-3.5883,-3.6546,-3.5744,-3.5825,-3.66,-3.6584,-3.7507,-3.9025,-3.9851,-4.0234,-4.031,-4.031,-4.075,-4.1418,-4.1551,-4.2641,-4.4077,0.0,0.0,0.0,0.0,0.0,0.0,0.0,-3.1369,-3.1255,-3.0534,-3.087,-3.1109,-3.0944,-3.0907,-3.0723,-3.0246,-2.9769,-2.9347,-2.9012,-2.8994,-2.8994,-2.8994,-2.8994,-2.9214,-2.9714,-2.9255,-2.9475,0.0,0.0,0.0,0.0,0.0,0.0,0.0,0.0,-3.0448,-3.0485,-3.1311,-3.1843,-3.2192,-3.2999,-3.3513,-3.3807,-3.3807,-3.3495,-3.3146,-3.3623,-3.3293,-3.2724,-3.3532,-3.2724,-3.1623,-3.2908,-3.2669,-3.2063,-3.3036,-3.322,-3.3109,-3.3293,-3.3568,-3.3842,-3.4012,-3.4375,-3.4734,-3.4908,-3.4553,-3.4449,-3.5334,-3.4122,-3.2545,-3.1391,-3.1044,-3.1141,0.0,0.0,0.0,0.0,0.0,0.0,0.0,0.0,0.0,0.0,0.0,0.0,0.0,0.0,0.0,0.0,0.0,0.0,-3.2391,0.0,-3.4103,-3.4968,-3.5334,-3.5493,-3.5526,-3.5988,-3.6383,-3.6699,-3.6834,-3.7053,-3.7319,-3.7283,-3.7936,-3.9066,-3.9393,-3.9833,-4.0348,-4.0826,-4.1227,-4.1686,-4.2756,-4.3617,-4.4344,-3.1089,0.0,-3.1591,0.0,-3.1394,-3.1679,-3.1384,-3.153,-3.1792,-3.2074,-3.2596,-3.2651,-3.1843,-3.1531,-3.1164,-3.0595,-2.9824,-2.9255,-2.9012,-2.8994,-2.8994,-2.8994,-2.8994,0.0,-2.9843,-2.9287,-2.9567,-3.0687,-3.0595,0.0,0.0,0.0,0.0,0.0,-3.1384,-3.1384,-3.1439,-3.2265,-3.2614,-3.2687,-3.3476,-3.3807,-3.3807,-3.3807,-3.3458,-3.3036,-3.3605,-3.3293,-3.2724,-3.3532,-3.2889,-3.199,-3.3366,-3.3018,-3.232,-3.3458,-3.3403,-3.3091,-3.3642,-3.3807,-3.385,-3.4123,-3.4258,-3.4452,-3.4977,-3.4423,-3.3987,-3.4622,-3.3968,-3.2968,-3.191,-3.1198,-3.1102,-3.2006,0.0,0.0,0.0,0.0,0.0,0.0,-3.0794,-3.0679,-3.0417,0.0,0.0,0.0,0.0,0.0,0.0,0.0,0.0,0.0,0.0,0.0,0.0,-3.5372,-3.5608,-3.5844,-3.6435,-3.6944,-3.7414,-3.799,-3.823,-3.8165,-3.8112,-3.8572,-3.9374,-3.9604,-4.0081,-4.0712,-4.1552,-4.2049,-4.247,-4.3733,-4.4402,-4.4744,-3.119,-3.1528,-3.1418,-3.0302,-3.1706,-3.2621,-3.1568,-3.2741,-3.377,-3.377,-3.377,-3.3476,-3.2687,-3.188,-3.1384,-3.1384,-3.065,-2.9861,-2.9049,-2.8994,-2.8994,0.0,0.0,-2.8994,-2.8994,-2.8994,-2.8994,-2.9012,0.0,0.0,-3.0228,0.0,-3.1384,-3.1384,-3.1384,-3.1384,-3.1439,-3.2265,-3.2614,-3.2687,-3.3476,-3.3807,-3.3807,-3.3807,-3.3788,-3.3788,-3.3807,-3.3293,-3.2724,-3.3532,-3.3256,-3.2742,-3.3532,-3.3788,-3.377,-3.3788,-3.3788,-3.3788,-3.3807,-3.3807,-3.385,-3.4123,-3.3805,-3.3714,-3.4843,-3.3963,-3.291,-3.2929,-3.3603,-3.368,-3.2006,-3.1698,-3.141,-3.0571,0.0,0.0,0.0,0.0,0.0,0.0,-3.1679,-3.1352,-3.0475,0.0,0.0,0.0,0.0,0.0,0.0,0.0,0.0,-3.2872,-3.3737,0.0,-3.4218,-3.5064,-3.5902,-3.668,-3.6699,-3.7529,-3.9073,-3.9073,-3.9042,-3.8992,-3.8973,-3.9451,-4.0253,-4.1036,-4.1378,-4.1473,-4.243,-4.3271,-4.3978,-4.4135,-4.4747,-4.5513,-3.119,-3.162,-3.1754,-3.0985,-3.1704,-3.2313,-3.2181,-3.2585,-3.3136,-3.3734,-3.3807,-3.3697,-3.3458,-3.221,-3.1384,0.0,-3.0173,-2.9512,0.0,-2.9824,-2.9824,-2.9824,-3.0338,-3.0375,-2.9843,-3.0356,-3.0375,-2.9824,0.0,0.0,0.0,-3.2908,-3.3036,-3.3036,-3.3036,-3.3036,-3.3054,-3.3311,-3.3421,-3.344,-3.3697,-3.3807,-3.3733,-3.3201,-3.2651,-3.2155,-3.2155,-3.1641,-3.1091,-3.188,-3.199,-3.1916,-3.2742,-3.2981,-3.3091,-3.3642,-3.3421,-3.3143,-3.387,-3.4068,-3.4195,-3.4676,-3.4244,-3.3968,-3.5113,-3.5023,-3.4353,-3.3141,-3.3122,-3.2987,-3.191,-3.1218,-3.0929,-3.1237,-3.1525,0.0,0.0,0.0,0.0,0.0,-3.1352,-3.1371,0.0,-3.1679,0.0,0.0,0.0,0.0,0.0,0.0,0.0,0.0,-3.4622,0.0,-3.5084,-3.5372,-3.5897,-3.6709,-3.7256,-3.8377,-3.9994,-3.994,-4.023,-4.073,-4.0157,-4.0692,-4.1953,-4.1609,-4.182,-4.2451,-4.333,-4.3905,-4.4269,-4.4863,-4.5302,-4.5568,-3.119,-3.1504,-3.162,-3.1269,-3.1487,-3.1932,-3.2417,-3.2777,-3.3196,-3.3734,-3.3807,-3.3807,-3.3807,-3.2889,0.0,-3.1439,-3.0485,-2.9989,-3.0191,-3.0485,-3.065,-3.065,-3.1127,-3.1146,-3.065,0.0,0.0,-3.065,-3.1971,-3.3018,-3.3807,-3.3807,-3.3807,-3.3807,-3.3807,-3.3807,-3.3807,-3.3807,-3.3807,-3.3807,-3.3807,-3.3807,-3.3752,-3.3238,-3.2559,-3.1843,-3.1843,-3.1329,-3.0723,-3.1219,-3.1384,-3.1476,-3.199,-3.2375,-3.2761,-3.3568,-3.3519,-3.3278,-3.3664,-3.3799,-3.3883,-3.4087,-3.3487,-3.3073,-3.389,-3.4314,-3.4218,-3.3122,-3.2891,-3.2641,-3.1852,-3.1256,-3.0968,-3.1179,-3.1487,-3.1583,-3.1256,0.0,0.0,0.0,0.0,0.0,0.0,-3.241,-3.2949,0.0,0.0,0.0,0.0,0.0,0.0,-3.468,-3.5218,0.0,-3.5493,-3.5493,-3.607,-3.7171,-3.8623,-3.984,-4.0823,-4.1111,-4.1514,-4.1953,-4.1437,-4.18,-4.2755,-4.2526,-4.2756,-4.335,-4.425,-4.4652,-4.4785,-4.5303,-4.5531,-4.5586,-3.119,-3.119,0.0,0.0,-3.119,0.0,-3.2316,-3.3148,-3.3689,-3.3734,-3.3725,-3.3707,-3.3788,-3.3752,-3.3109,-3.1604,0.0,0.0,0.0,-3.1072,-3.1476,-3.1476,-3.1531,-3.1494,-3.1384,-3.0723,-3.0723,-3.1476,-3.2173,-3.2963,-3.3807,-3.3807,-3.3807,-3.3807,-3.3807,-3.3807,-3.3807,-3.3807,-3.3807,-3.3807,-3.3807,-3.3807,-3.3788,-3.3678,-3.3164,-3.2504,-3.2394,-3.188,-3.1219,-3.1219,-3.1219,-3.1237,-3.1292,-3.1861,-3.2687,-3.3476,-3.3961,-3.4035,-3.3222,-3.3163,-3.3184,-3.2657,-3.1958,-3.1469,-3.1661,-3.2314,-3.2891,-3.2891,-3.2852,-3.2583,-3.1833,-3.166,-3.1352,-3.0533,-3.1083,-3.1333,-3.0513,0.0,0.0,0.0,0.0,0.0,0.0,-3.3295,-3.4237,0.0,0.0,0.0,0.0,0.0,-3.4718,-3.5488,-3.5551,-3.5565,-3.5493,-3.5622,-3.6459,-3.8009,-4.0509,-4.1645,-4.1552,-4.2393,-4.2756,-4.2707,-4.2713,-4.2772,-4.2943,-4.3671,-4.4036,-4.419,-4.5055,-4.5419,-4.5419,-4.5495,-4.555,-4.5586,0.0,0.0,-3.119,-3.119,-3.119,-3.1389,-3.1897,-3.2144,-3.2515,-3.3273,-3.2824,-3.2793,-3.3707,-3.3256,-3.2742,-3.2357,-3.1751,-3.1568,-3.2008,-3.221,-3.232,-3.232,-3.2908,-3.2651,-3.1421,-3.1825,-3.2137,-3.232,-3.188,-3.2412,-3.3807,-3.3807,-3.3807,-3.3807,-3.3807,-3.3807,-3.3807,-3.3807,-3.3807,-3.3807,-3.3807,-3.3807,-3.366,-3.243,-3.1843,-3.1513,-3.0301,-2.9727,-2.9586,-2.9586,-2.9586,-2.9696,-3.0283,-3.1035,-3.1843,-3.2651,-3.3506,-3.4074,-3.3412,-3.345,-3.3549,-3.2953,-3.2645,-3.2378,-3.1821,-3.2314,-3.2891,-3.2891,-3.241,-3.1929,-3.1737,-3.116,-3.0641,-3.0417,-3.0571,-3.0641,-3.0417,-3.116,0.0,0.0,-3.2872,-3.3564,-3.2699,-3.418,-3.4641,0.0,0.0,0.0,0.0,-3.5526,-3.593,-3.5512,-3.6103,-3.6122,-3.5526,-3.6776,-3.7901,-3.8911,-4.0792,-4.1662,-4.1609,-4.2431,-4.312,-4.3632,-4.2961,-4.3439,-4.4645,-4.4188,-4.442,-4.5112,-4.5361,-4.5513,-4.5549,-4.5568,-4.5586,-4.5586,-3.119,-3.119,-3.119,-3.119,-3.119,-3.1351,-3.1752,-3.1861,-3.2248,-3.3075,-3.2969,-3.3076,-3.3725,-3.3421,-3.3146,-3.3146,-3.2742,-3.2522,-3.2614,-3.2944,-3.3146,-3.3146,-3.3568,-3.3385,-3.2522,-3.2551,-3.2562,-3.2562,-3.2515,-3.2944,-3.3807,-3.3807,-3.3807,-3.3807,-3.3807,-3.3807,-3.3807,-3.3807,-3.3807,-3.377,-3.3403,-3.3476,-3.3623,-3.2008,-3.1623,-3.1733,-3.0136,-2.9549,-2.9494,-2.9104,-2.8994,-2.9067,-2.9512,-3.021,-3.0999,-3.1825,-3.2876,-3.3627,-3.2951,-3.2765,-3.2713,-3.2436,-3.2628,-3.2795,-3.2352,-3.2583,-3.2891,-3.2891,-3.2256,-3.1698,-3.1698,-3.0987,-3.0398,-3.0398,-3.0398,-3.0398,-3.0398,-3.116,0.0,-3.1698,-3.3179,-3.4007,-3.3545,-3.4718,-3.5122,-3.416,-3.5315,0.0,-3.5372,-3.6584,-3.6911,-3.6084,-3.6873,-3.7084,-3.6661,-3.8315,-3.9358,-3.9823,-4.1899,-4.2864,-4.2869,-4.3656,-4.4211,-4.4571,-4.409,-4.4435,-4.5258,-4.4823,-4.4959,-4.5438,-4.5513,-4.5568,-4.5586,-4.5586,-4.5586,-4.5586,-3.119,-3.119,-3.119,-3.119,-3.119,-3.1329,-3.166,-3.1842,-3.2196,-3.2921,-3.3252,-3.3506,-3.3689,-3.367,-3.3678,-3.3788,-3.3807,-3.3513,-3.2834,-3.3421,-3.3807,-3.3807,-3.3807,-3.3807,-3.3807,-3.2938,-3.2482,-3.2482,-3.324,-3.3678,-3.3807,-3.3807,-3.3807,-3.3807,-3.3807,-3.3807,-3.3807,-3.3807,-3.3807,-3.3733,-3.2926,-3.3018,-3.344,-3.1825,-3.1715,-3.221,-3.0595,-3.0173,-3.0246,-2.9329,-2.914,-2.9347,-2.9237,-2.9824,-3.0705,-3.1384,-3.2368,-3.3114,-3.2463,-3.2039,-3.1801,-3.1866,-3.2391,-3.2891,-3.2891,-3.2891,-3.2949,-3.3064,-3.2449,-3.1929,-3.2045,-3.1275,-3.0602,-3.0602,-3.0475,-3.0398,-3.0398,0.0,-3.1891,-3.1891,-3.3372,-3.4391,-3.4391,-3.5064,-3.5565,-3.568,-3.6315,-3.6757,-3.6892,-3.7719,-3.7853,-3.7123,-3.7815,-3.8315,-3.8565,-3.9854,-4.0623,-4.0912,-4.3201,-4.4299,-4.4323,-4.5055,-4.538,-4.5317,-4.5297,-4.5297,-4.5317,-4.538,-4.5457,-4.5513,-4.5568,-4.5586,-4.5586,-4.5586,-4.5586,-4.5586,-3.119,-3.119,-3.119,-3.119,-3.119,-3.123,-3.1291,-3.1329,-3.1487,-3.1968,-3.1835,-3.2089,-3.3171,-3.2995,-3.3073,-3.3733,-3.3807,-3.3752,-3.3623,-3.3733,-3.3807,-3.3807,-3.3807,-3.378,-3.3726,-3.293,-3.2482,-3.2482,-3.269,-3.3128,-3.3807,-3.3807,-3.3807,-3.3807,-3.3807,-3.3807,-3.3807,-3.3807,-3.3807,-3.3733,-3.2926,-3.2687,-3.2614,-3.0999,-3.0889,-3.1384,-2.9769,-3.0063,-3.098,-2.9512,-2.9898,-3.0907,-3.0228,-3.1035,-3.2265,-3.2394,-3.2668,-3.2989,-3.31,-3.2909,-3.2691,-3.2705,-3.2808,-3.2891,-3.2891,-3.2891,-3.3103,-3.3853,-3.3314,-3.2949,-3.368,-3.2545,-3.1506,-3.1506,-3.0891,-3.0398,-3.0398,0.0,-3.2718,-3.2718,-3.4237,-3.5295,-3.5295,-3.543,-3.5795,-3.6469,-3.6642,-3.7026,-3.7757,-3.8623,-3.9027,-3.8892,-3.9027,-3.9777,-4.12,-4.0739,-4.1239,-4.2701,-4.3797,-4.4299,-4.4323,-4.5055,-4.54,-4.5378,-4.5256,-4.5275,-4.5398,-4.5399,-4.5438,-4.5513,-4.5568,-4.5586,-4.5586,-4.5586,-4.5586,-4.5586,-3.119,-2.9888,-2.8772,-2.8772,-3.0108,-3.119,-3.119,-3.119,-3.1351,-3.1752,-3.169,-3.1894,-3.2741,-3.2829,-3.298,-3.3429,-3.3662,-3.3807,-3.3807,-3.3807,-3.3807,-3.3807,-3.378,-3.3698,-3.3605,-3.3296,-3.3122,-3.3086,-3.3203,-3.344,-3.3807,-3.3807,-3.3807,-3.3807,-3.378,-3.3753,-3.3753,-3.3753,-3.3753,-3.3643,-3.2423,-3.2467,-3.3018,-3.098,-3.1237,-3.243,-3.0393,-3.0687,-3.1806,-3.0191,-3.043,-3.1329,-3.0962,-3.1366,-3.2045,-3.2485,-3.2834,-3.3088,-3.2902,-3.3165,-3.3494,-3.3536,-3.3876,-3.4189,-3.4189,-3.4189,-3.4318,-3.4754,-3.4153,-3.3673,-3.4122,-3.3179,-3.2352,-3.2352,-3.2006,0.0,0.0,-3.2814,-3.3603,-3.3603,-3.4718,-3.5493,-3.5446,-3.5878,-3.6301,-3.6671,-3.757,-3.8277,-3.8681,-3.9488,-4.0162,-4.0623,-4.0642,-4.0796,-4.1104,-4.2066,-4.272,-4.3124,-4.4393,-4.5009,-4.5012,-4.5322,-4.5438,-4.54,-4.5341,-4.5341,-4.54,-4.5438,-4.5495,-4.5568,-4.5586,-4.5586,-4.5586,-4.5586,-4.5586,-4.5586,-3.119,-2.8772,-2.6911,-2.7604,-2.9076,-3.0378,-3.1089,-3.119,-3.1329,-3.164,-3.1752,-3.1933,-3.2316,-3.2763,-3.3063,-3.3154,-3.3541,-3.378,-3.3807,-3.378,-3.378,-3.378,-3.3698,-3.3605,-3.3491,-3.3605,-3.3633,-3.3605,-3.3726,-3.378,-3.378,-3.3788,-3.378,-3.3753,-3.3726,-3.3698,-3.3671,-3.3698,-3.3698,-3.357,-3.2221,-3.2412,-3.3311,-3.1256,-3.1751,-3.3256,-3.1219,-3.1513,-3.2632,-3.1017,-3.1127,-3.1916,-3.1733,-3.1806,-3.2082,-3.2706,-3.3178,-3.3398,-3.2826,-3.3435,-3.4263,-3.4352,-3.4851,-3.5315,-3.5315,-3.5315,-3.5315,-3.5398,-3.4875,-3.4428,-3.4487,-3.3795,-3.3199,-3.3199,0.0,0.0,0.0,-3.3641,-3.4276,-3.4468,-3.5257,-3.5825,-3.5969,-3.6579,-3.7055,-3.7275,-3.8516,-3.945,-3.9854,-4.0469,-4.12,-4.2066,-4.2104,-4.1777,-4.1104,-4.322,-4.4085,-4.3701,-4.4989,-4.5586,-4.5586,-4.5531,-4.5476,-4.5419,-4.5419,-4.5534,-4.5726,-4.5783,-4.5839,-4.5893,-4.5893,-4.5778,-4.5586,-4.5586,-4.5586,-4.5586,-3.119,-2.8772,-2.7571,-3.0378,-2.8738,-2.796,-3.0768,-3.119,-3.119,-3.123,-3.1565,-3.1842,-3.1913,-3.2619,-3.3081,-3.3001,-3.3444,-3.3716,-3.3807,-3.3744,-3.3716,-3.3698,-3.3577,-3.3491,-3.3509,-3.3491,-3.3549,-3.3605,-3.3671,-3.3698,-3.3698,-3.378,-3.3726,-3.3633,-3.3671,-3.3671,-3.3605,-3.3671,-3.3698,-3.3625,-3.2845,-3.2596,-3.2596,-3.1659,-3.188,-3.2577,-3.1641,-3.2339,-3.3476,-3.1843,-3.2339,-3.3495,-3.2761,-3.3018,-3.3623,-3.3697,-3.3906,-3.4013,-3.3398,-3.4055,-3.4973,-3.5146,-3.5266,-3.5315,-3.5315,-3.5315,-3.5315,-3.5398,-3.5355,-3.5316,-3.5397,-3.4699,-3.4103,-3.4103,0.0,0.0,-3.2891,-3.3641,-3.4507,-3.5315,-3.6122,-3.6901,-3.7625,-3.7759,-3.8159,-3.8965,-3.9138,-3.9903,-4.1527,-4.1681,-4.2104,-4.2989,-4.3008,-4.297,-4.2912,-4.3835,-4.4682,-4.5413,-4.5528,-4.5586,-4.5586,-4.5531,-4.5495,-4.5495,-4.5419,-4.588,-4.6704,-4.6704,-4.6742,-4.6797,-4.6797,-4.6317,-4.5586,-4.5586,-4.5586,-4.5586,-2.9634,-2.8129,-2.7638,-3.0666,-3.0243,-2.9871,-3.1021,-3.119,-3.119,-3.119,-3.1312,-3.1466,-3.1466,-3.1162,-3.1324,-3.2177,-3.3196,-3.3643,-3.3379,-3.3462,-3.3538,-3.3577,-3.352,-3.3481,-3.3452,-3.3481,-3.352,-3.3605,-3.3671,-3.3698,-3.3698,-3.3726,-3.3698,-3.3605,-3.3577,-3.3549,-3.3549,-3.3605,-3.3633,-3.3588,-3.2892,-3.2908,-3.3256,-3.2449,-3.2651,-3.3238,-3.243,-3.2852,-3.3623,-3.2522,-3.2889,-3.3752,-3.344,-3.355,-3.3807,-3.3807,-3.3868,-3.3975,-3.4023,-3.4469,-3.5,-3.5245,-3.5258,-3.5239,-3.5239,-3.5273,-3.5304,-3.5315,-3.5364,-3.5412,-3.5493,-3.5238,-3.5007,-3.5007,0.0,-3.4699,-3.5199,-3.5545,-3.6065,-3.6949,-3.7315,-3.7805,-3.8569,-3.918,-3.9852,-4.0682,-4.1253,-4.1846,-4.2516,-4.3054,-4.3246,-4.3035,-4.4088,-4.4143,-4.3104,-4.4432,-4.4989,-4.4797,-4.5336,-4.5586,-4.5586,-4.5568,-4.5568,-4.5568,-4.555,-4.5742,-4.6068,-4.6068,-4.6068,-4.6086,-4.6086,-4.5893,-4.5586,-4.5586,-4.5586,-4.5586,-2.8873,-2.8501,-2.8755,-3.0835,-3.119,-3.119,-3.119,-3.119,-3.119,-3.119,-3.119,-3.119,-3.119,-3.0662,-3.056,-3.1087,-3.2549,-3.3397,-3.3208,-3.3316,-3.3422,-3.3509,-3.3481,-3.3452,-3.3393,-3.3452,-3.3509,-3.3577,-3.3587,-3.3633,-3.3633,-3.3643,-3.3633,-3.352,-3.3491,-3.3509,-3.3491,-3.3577,-3.3587,-3.3606,-3.3148,-3.3311,-3.3733,-3.3201,-3.333,-3.3733,-3.3183,-3.333,-3.3715,-3.3164,-3.3348,-3.3807,-3.3807,-3.3807,-3.3807,-3.3807,-3.3807,-3.3895,-3.4302,-3.4591,-3.4851,-3.5193,-3.5226,-3.5209,-3.5209,-3.5261,-3.5293,-3.53,-3.5364,-3.5412,-3.5493,-3.5493,-3.5493,-3.5493,-3.5718,-3.607,-3.6628,-3.6921,-3.7401,-3.8281,-3.8362,-3.8754,-3.9816,-4.0471,-4.12,-4.2042,-4.2637,-4.3096,-4.338,-4.4226,-4.4418,-4.3841,-4.4972,-4.5047,-4.3893,-4.5028,-4.5297,-4.472,-4.5297,-4.5586,-4.5586,-4.5586,-4.5586,-4.5586,-4.5586,-4.5759,-4.6009,-4.6009,-4.6009,-4.6009,-4.6009,-4.5836,-4.5586,-4.5586,-4.5586,-4.5586,-2.9279,-3.0176,-3.1173,-3.1173,-3.119,-3.119,-3.119,-3.119,-3.119,-3.119,-3.119,-3.119,-3.119,-3.1487,-3.1133,-2.9807,-3.1515,-3.288,-3.3364,-3.3411,-3.3422,-3.3509,-3.3422,-3.3393,-3.3393,-3.3393,-3.3422,-3.3509,-3.3509,-3.3509,-3.3509,-3.3577,-3.352,-3.3393,-3.3481,-3.3509,-3.3491,-3.3577,-3.3643,-3.3698,-3.378,-3.3807,-3.3807,-3.3807,-3.3807,-3.3807,-3.3807,-3.3807,-3.3807,-3.3807,-3.3807,-3.3807,-3.3807,-3.3807,-3.3807,-3.3807,-3.3807,-3.3842,-3.4124,-3.4348,-3.4614,-3.507,-3.5209,-3.5209,-3.5209,-3.5261,-3.5308,-3.53,-3.5364,-3.5432,-3.5493,-3.5512,-3.5512,-3.5512,-3.6199,-3.6704,-3.6718,-3.7394,-3.8239,-3.9119,-3.9147,-3.9799,-4.1558,-4.1663,-4.2009,-4.294,-4.2963,-4.3326,-4.4259,-4.5124,-4.5586,-4.5586,-4.5586,-4.5586,-4.5586,-4.5586,-4.5586,-4.5586,-4.5586,-4.5586,-4.5586,-4.5586,-4.5586,-4.5586,-4.5586,-4.6086,-4.6894,-4.6894,-4.6894,-4.6894,-4.6894,-4.6355,-4.5586,-4.5586,-4.5586,-4.5586,-2.9431,-2.9567,-2.9651,-2.9651,-3.0497,-3.0954,-3.0243,-3.0734,-3.119,-3.119,-3.119,-3.119,-3.119,-3.0662,-3.0428,-3.0738,-2.9383,-2.9902,-3.3189,-3.3147,-3.3129,-3.3422,-3.3393,-3.3393,-3.3393,-3.3393,-3.3422,-3.3509,-3.3509,-3.3509,-3.3509,-3.352,-3.3481,-3.3393,-3.3422,-3.3452,-3.3491,-3.3577,-3.3643,-3.3698,-3.378,-3.3807,-3.3807,-3.3807,-3.3807,-3.3807,-3.3807,-3.3807,-3.3807,-3.3807,-3.3807,-3.3807,-3.3807,-3.3807,-3.3807,-3.3807,-3.3807,-3.3842,-3.4124,-3.4348,-3.4572,-3.4908,-3.5089,-3.5209,-3.5209,-3.5239,-3.53,-3.53,-3.584,-3.6325,-3.633,-3.6839,-3.7243,-3.7194,-3.742,-3.782,-3.837,-3.8658,-3.9353,-4.0778,-4.0929,-4.1581,-4.3216,-4.3445,-4.3846,-4.4632,-4.4708,-4.4861,-4.5129,-4.5396,-4.5531,-4.5531,-4.5568,-4.5586,-4.5586,-4.5586,-4.5586,-4.5586,-4.5586,-4.5586,-4.5586,-4.5586,-4.5586,-4.5586,-4.5586,-4.574,-4.599,-4.599,-4.599,-4.599,-4.599,-4.5817,-4.5586,-4.5586,-4.5586,-4.5586,-2.9279,-2.9651,-2.9854,-2.9854,-2.9617,-2.9617,-3.0192,-3.0801,-3.119,-3.119,-3.119,-3.119,-3.119,-3.0649,-3.0531,-3.114,-2.9533,-2.9765,-3.2787,-3.283,-3.2943,-3.3364,-3.3393,-3.3393,-3.3393,-3.3393,-3.3422,-3.3452,-3.3452,-3.3452,-3.3452,-3.3452,-3.3452,-3.3393,-3.3393,-3.3452,-3.3549,-3.3577,-3.3643,-3.3753,-3.378,-3.3807,-3.3807,-3.3807,-3.3807,-3.3807,-3.3807,-3.3807,-3.3807,-3.3807,-3.3807,-3.3807,-3.3807,-3.3807,-3.3807,-3.3807,-3.3807,-3.386,-3.3998,-3.4279,-3.4529,-3.4694,-3.4982,-3.5209,-3.5226,-3.5522,-3.578,-3.5814,-3.6535,-3.7179,-3.7168,-3.7621,-3.7947,-3.7913,-3.8212,-3.8635,-3.9103,-3.9756,-4.0562,-4.1566,-4.1984,-4.2694,-4.4057,-4.4211,-4.4537,-4.5342,-4.5495,-4.5513,-4.5495,-4.5532,-4.555,-4.555,-4.5586,-4.5586,-4.5586,-4.5586,-4.5586,-4.5586,-4.5586,-4.5586,-4.5586,-4.5586,-4.5586,-4.5586,-4.5586,-4.5586,-4.5586,-4.5586,-4.5586,-4.5586,-4.5586,-4.5586,-4.5586,-4.5586,-4.5586,-4.5586,-2.9062,-3.0209,-3.1157,-3.1072,-2.8856,-2.801,-3.0683,-3.1157,-3.119,-3.119,-3.119,-3.119,-3.119,-3.119,-3.119,-3.119,-3.119,-3.1504,-3.2144,-3.2437,-3.2834,-3.3316,-3.3364,-3.3364,-3.3393,-3.3393,-3.3393,-3.3393,-3.3393,-3.3393,-3.3393,-3.3393,-3.3393,-3.3393,-3.3393,-3.3481,-3.3605,-3.3605,-3.3671,-3.3807,-3.3807,-3.3807,-3.3807,-3.3807,-3.3807,-3.3807,-3.3807,-3.3807,-3.3807,-3.3807,-3.3807,-3.3807,-3.3807,-3.3807,-3.3807,-3.3807,-3.3807,-3.3807,-3.3807,-3.416,-3.4526,-3.4602,-3.4965,-3.5324,-3.5392,-3.5982,-3.6553,-3.668,-3.7405,-3.8019,-3.8003,-3.806,-3.8115,-3.8108,-3.8853,-3.9391,-3.9243,-4.0715,-4.181,-4.1796,-4.2524,-4.3403,-4.4318,-4.4288,-4.4556,-4.5361,-4.5533,-4.5568,-4.5513,-4.5568,-4.5586,-4.5586,-4.5586,-4.5586,-4.5586,-4.5586,-4.5586,-4.5586,-4.5586,-4.5586,-4.5586,-4.5586,-4.5586,-4.5586,-4.5586,-4.5586,-4.5586,-4.5586,-4.5586,-4.5586,-4.5586,-4.5586,-4.5586,-4.5586,-4.5586,-4.5586,-2.933,-3.0429,-3.0937,-3.0142,-3.0125,-3.0243,-3.0328,-3.0835,-3.119,-3.119,-3.119,-3.119,-3.119,-3.119,-3.119,-3.119,-3.119,-3.1269,-3.1428,-3.1731,-3.2196,-3.2908,-3.2939,-3.3068,-3.3393,-3.3393,-3.3393,-3.3393,-3.3393,-3.3393,-3.3393,-3.3393,-3.3393,-3.3393,-3.3393,-3.3481,-3.3605,-3.3605,-3.3671,-3.3807,-3.3807,-3.3807,-3.3807,-3.3807,-3.3807,-3.3807,-3.3807,-3.3807,-3.3807,-3.3807,-3.3807,-3.3807,-3.3807,-3.3807,-3.3807,-3.3807,-3.3807,-3.3807,-3.3807,-3.416,-3.468,-3.5421,-3.5913,-3.6222,-3.6241,-3.6422,-3.6757,-3.7414,-3.8216,-3.8846,-3.885,-3.9404,-3.9859,-3.9859,-4.0584,-4.0924,-4.0293,-4.1654,-4.271,-4.2657,-4.3443,-4.4305,-4.5093,-4.517,-4.5284,-4.555,-4.5568,-4.5586,-4.5586,-4.5586,-4.5586,-4.5586,-4.5586,-4.5586,-4.5586,-4.5586,-4.5586,-4.5586,-4.5586,-4.5586,-4.5586,-4.5586,-4.5586,-4.5586,-4.5586,-4.5586,-4.5586,-4.5586,-4.5586,-4.5586,-4.5586,-4.5586,-4.5586,-4.5586,-4.5586,-4.5586,-2.9144,-3.0345,-3.1021,-3.0497,-3.0835,-3.1072,-3.0683,-3.0954,-3.119,-3.119,-3.119,-3.119,-3.119,-3.119,-3.119,-3.119,-3.119,-3.119,-3.119,-3.1524,-3.1878,-3.2368,-3.2502,-3.2749,-3.3099,-3.3099,-3.3208,-3.3393,-3.3393,-3.3393,-3.3393,-3.3393,-3.3393,-3.3393,-3.3393,-3.3481,-3.3605,-3.3605,-3.3671,-3.3807,-3.3807,-3.3807,-3.3807,-3.3807,-3.3807,-3.3807,-3.3807,-3.3807,-3.3807,-3.3807,-3.3807,-3.3807,-3.3807,-3.3807,-3.3807,-3.3807,-3.3807,-3.3807,-3.3807,-3.4463,-3.5286,-3.5738,-3.6521,-3.7171,-3.7171,-3.7474,-3.7972,-3.8814,-3.9656,-4.0384,-4.0787,-4.1246,-4.1569,-4.1586,-4.1967,-4.2136,-4.175,-4.2821,-4.3611,-4.3576,-4.4379,-4.5052,-4.54,-4.5513,-4.555,-4.5513,-4.5568,-4.5586,-4.5568,-4.5586,-4.5586,-4.5586,-4.5586,-4.5586,-4.5586,-4.5586,-4.5586,-4.5586,-4.5586,-4.5586,-4.5586,-4.5586,-4.5586,-4.5586,-4.5586,-4.5586,-4.5586,-4.5586,-4.5586,-4.5586,-4.5586,-4.5586,-4.5586,-4.5586,-4.5586,-4.5586,-2.8805,-2.9973,-3.0886,-3.1157,-3.119,-3.119,-3.119,-3.119,-3.119,-3.119,-3.119,-3.119,-3.119,-3.119,-3.119,-3.119,-3.119,-3.119,-3.119,-3.1449,-3.1694,-3.186,-3.2074,-3.2368,-3.2699,-3.2699,-3.2957,-3.3393,-3.3393,-3.3393,-3.3393,-3.3393,-3.3393,-3.3393,-3.3393,-3.3481,-3.3605,-3.3605,-3.3671,-3.3807,-3.3807,-3.3807,-3.3807,-3.3807,-3.3807,-3.3807,-3.3807,-3.3807,-3.3807,-3.3807,-3.3807,-3.3807,-3.3807,-3.3807,-3.3807,-3.3807,-3.3807,-3.3807,-3.3807,-3.4803,-3.5891,-3.5998,-3.7053,-3.812,-3.829,-3.868,-3.9259,-4.0117,-4.094,-4.1724,-4.2431,-4.2698,-4.2814,-4.2889,-4.3023,-4.3079,-4.3035,-4.3895,-4.4453,-4.4322,-4.5068,-4.5586,-4.5513,-4.5568,-4.5568,-4.5438,-4.555,-4.5568,-4.5513,-4.5568,-4.5586,-4.5586,-4.5586,-4.5586,-4.5586,-4.5586,-4.5586,-4.5586,-4.5586,-4.5586,-4.5586,-4.5586,-4.5586,-4.5586,-4.5586,-4.5586,-4.5586,-4.5586,-4.5586,-4.5586,-4.5586,-4.5586,-4.5586,-4.5586,-4.5586,-4.5586,-2.8704,-2.918,-2.9685,-3.097,-3.119,-3.119,-3.119,-3.119,-3.119,-3.119,-3.119,-3.119,-3.119,-3.119,-3.119,-3.119,-3.119,-3.119,-3.119,-3.123,-3.1389,-3.1714,-3.175,-3.1967,-3.2351,-3.2385,-3.2702,-3.3393,-3.3393,-3.3393,-3.3393,-3.3393,-3.3393,-3.3393,-3.3393,-3.3481,-3.3605,-3.3605,-3.3671,-3.3807,-3.3807,-3.3807,-3.3807,-3.3807,-3.3807,-3.3807,-3.3807,-3.3807,-3.3807,-3.3807,-3.3807,-3.3807,-3.3807,-3.3807,-3.3807,-3.3807,-3.3807,-3.3807,-3.3807,-3.4797,-3.5979,-3.6742,-3.7907,-3.9066,-3.9809,-3.9522,-3.9315,-4.0138,-4.0941,-4.1533,-4.1648,-4.2297,-4.2814,-4.2889,-4.3484,-4.3733,-4.3167,-4.4397,-4.5071,-4.4376,-4.5066,-4.5605,-4.5586,-4.5586,-4.5586,-4.5568,-4.5586,-4.5605,-4.5586,-4.5605,-4.5586,-4.5586,-4.5586,-4.5586,-4.5586,-4.5586,-4.5586,-4.5586,-4.5586,-4.5586,-4.5586,-4.5586,-4.5586,-4.5586,-4.5586,-4.5586,-4.5586,-4.5586,-4.5586,-4.5586,-4.5586,-4.5586,-4.5586,-4.5586,-4.5586,-4.5586,-2.8687,-2.8636,-2.8941,-3.0852,-3.0852,-3.0717,-3.114,-3.119,-3.119,-3.119,-3.119,-3.119,-3.119,-3.119,-3.119,-3.119,-3.119,-3.119,-3.119,-3.119,-3.1269,-3.1428,-3.1428,-3.16,-3.1967,-3.1967,-3.2231,-3.2766,-3.2957,-3.3178,-3.3393,-3.3393,-3.3393,-3.3393,-3.3393,-3.3481,-3.3605,-3.3605,-3.3671,-3.3807,-3.3807,-3.3807,-3.3807,-3.3807,-3.3807,-3.3807,-3.3807,-3.3807,-3.3807,-3.3807,-3.3807,-3.3807,-3.3807,-3.3807,-3.3807,-3.3807,-3.3807,-3.3899,-3.4357,-3.5492,-3.6738,-3.7562,-3.876,-3.9831,-4.0213,-4.0023,-4.0138,-4.1437,-4.1972,-4.2507,-4.3443,-4.394,-4.4209,-4.4288,-4.4595,-4.4729,-4.444,-4.4996,-4.5323,-4.5012,-4.53,-4.5568,-4.5605,-4.5586,-4.5586,-4.5586,-4.5586,-4.5586,-4.5586,-4.5586,-4.5586,-4.5586,-4.5586,-4.5586,-4.5586,-4.5586,-4.5586,-4.5586,-4.5568,-4.5568,-4.5586,-4.5586,-4.5586,-4.5586,-4.5586,-4.5586,-4.5586,-4.5586,-4.5586,-4.5586,-4.5586,-4.5586,-4.5586,-4.5586,-4.5586,-4.5586]}]]